<?xml version="1.0" encoding="UTF-8"?>
<gpx version="1.0" creator="GPSBabel - http://www.gpsbabel.org" xmlns="http://www.topografix.com/GPX/1/0">
  <time>2019-11-19T01:31:22.350Z</time>
  <bounds minlat="35.133061160" minlon="-106.481958150" maxlat="35.139629100" maxlon="-106.458718990"/>
  <trk>
    <name>Oso Ridge-Embudito Trails Hike.Solo.2019-11-18</name>
    <trkseg>
      <trkpt lat="35.136297670" lon="-106.481949270">
        <ele>1887.000</ele>
        <time>2019-11-18T18:26:44Z</time>
      </trkpt>
      <trkpt lat="35.136322630" lon="-106.481903060">
        <ele>1887.000</ele>
        <time>2019-11-18T18:26:47Z</time>
      </trkpt>
      <trkpt lat="35.136350480" lon="-106.481866430">
        <ele>1885.000</ele>
        <time>2019-11-18T18:26:50Z</time>
      </trkpt>
      <trkpt lat="35.136357240" lon="-106.481811790">
        <ele>1883.000</ele>
        <time>2019-11-18T18:26:53Z</time>
      </trkpt>
      <trkpt lat="35.136369600" lon="-106.481758290">
        <ele>1881.000</ele>
        <time>2019-11-18T18:26:56Z</time>
      </trkpt>
      <trkpt lat="35.136373220" lon="-106.481703400">
        <ele>1882.000</ele>
        <time>2019-11-18T18:26:59Z</time>
      </trkpt>
      <trkpt lat="35.136356100" lon="-106.481648070">
        <ele>1881.000</ele>
        <time>2019-11-18T18:27:02Z</time>
      </trkpt>
      <trkpt lat="35.136327930" lon="-106.481599930">
        <ele>1881.000</ele>
        <time>2019-11-18T18:27:05Z</time>
      </trkpt>
      <trkpt lat="35.136305530" lon="-106.481560060">
        <ele>1881.000</ele>
        <time>2019-11-18T18:27:08Z</time>
      </trkpt>
      <trkpt lat="35.136300820" lon="-106.481514630">
        <ele>1882.000</ele>
        <time>2019-11-18T18:27:12Z</time>
      </trkpt>
      <trkpt lat="35.136290800" lon="-106.481463690">
        <ele>1883.000</ele>
        <time>2019-11-18T18:27:17Z</time>
      </trkpt>
      <trkpt lat="35.136257530" lon="-106.481421750">
        <ele>1884.000</ele>
        <time>2019-11-18T18:27:22Z</time>
      </trkpt>
      <trkpt lat="35.136241750" lon="-106.481379110">
        <ele>1884.000</ele>
        <time>2019-11-18T18:27:25Z</time>
      </trkpt>
      <trkpt lat="35.136221660" lon="-106.481334770">
        <ele>1885.000</ele>
        <time>2019-11-18T18:27:29Z</time>
      </trkpt>
      <trkpt lat="35.136200350" lon="-106.481295900">
        <ele>1885.000</ele>
        <time>2019-11-18T18:27:32Z</time>
      </trkpt>
      <trkpt lat="35.136190720" lon="-106.481237150">
        <ele>1884.000</ele>
        <time>2019-11-18T18:27:36Z</time>
      </trkpt>
      <trkpt lat="35.136194160" lon="-106.481188510">
        <ele>1883.000</ele>
        <time>2019-11-18T18:27:39Z</time>
      </trkpt>
      <trkpt lat="35.136187930" lon="-106.481141940">
        <ele>1884.000</ele>
        <time>2019-11-18T18:27:42Z</time>
      </trkpt>
      <trkpt lat="35.136184170" lon="-106.481094380">
        <ele>1883.000</ele>
        <time>2019-11-18T18:27:45Z</time>
      </trkpt>
      <trkpt lat="35.136182610" lon="-106.481042820">
        <ele>1882.000</ele>
        <time>2019-11-18T18:27:48Z</time>
      </trkpt>
      <trkpt lat="35.136173560" lon="-106.480985570">
        <ele>1882.000</ele>
        <time>2019-11-18T18:27:52Z</time>
      </trkpt>
      <trkpt lat="35.136164130" lon="-106.480936630">
        <ele>1881.000</ele>
        <time>2019-11-18T18:27:55Z</time>
      </trkpt>
      <trkpt lat="35.136153440" lon="-106.480883950">
        <ele>1881.000</ele>
        <time>2019-11-18T18:27:59Z</time>
      </trkpt>
      <trkpt lat="35.136145710" lon="-106.480835100">
        <ele>1881.000</ele>
        <time>2019-11-18T18:28:02Z</time>
      </trkpt>
      <trkpt lat="35.136140450" lon="-106.480779680">
        <ele>1882.000</ele>
        <time>2019-11-18T18:28:06Z</time>
      </trkpt>
      <trkpt lat="35.136177290" lon="-106.480807270">
        <ele>1884.000</ele>
        <time>2019-11-18T18:28:52Z</time>
      </trkpt>
      <trkpt lat="35.136212210" lon="-106.480822280">
        <ele>1884.000</ele>
        <time>2019-11-18T18:28:55Z</time>
      </trkpt>
      <trkpt lat="35.136246280" lon="-106.480847020">
        <ele>1883.000</ele>
        <time>2019-11-18T18:28:59Z</time>
      </trkpt>
      <trkpt lat="35.136286030" lon="-106.480825250">
        <ele>1884.000</ele>
        <time>2019-11-18T18:29:04Z</time>
      </trkpt>
      <trkpt lat="35.136326770" lon="-106.480793000">
        <ele>1884.000</ele>
        <time>2019-11-18T18:29:10Z</time>
      </trkpt>
      <trkpt lat="35.136369050" lon="-106.480788340">
        <ele>1885.000</ele>
        <time>2019-11-18T18:29:14Z</time>
      </trkpt>
      <trkpt lat="35.136411770" lon="-106.480797700">
        <ele>1884.000</ele>
        <time>2019-11-18T18:29:18Z</time>
      </trkpt>
      <trkpt lat="35.136457720" lon="-106.480810270">
        <ele>1883.000</ele>
        <time>2019-11-18T18:29:21Z</time>
      </trkpt>
      <trkpt lat="35.136497560" lon="-106.480810980">
        <ele>1883.000</ele>
        <time>2019-11-18T18:29:24Z</time>
      </trkpt>
      <trkpt lat="35.136537940" lon="-106.480824910">
        <ele>1884.000</ele>
        <time>2019-11-18T18:29:28Z</time>
      </trkpt>
      <trkpt lat="35.136552410" lon="-106.480866050">
        <ele>1886.000</ele>
        <time>2019-11-18T18:29:32Z</time>
      </trkpt>
      <trkpt lat="35.136589390" lon="-106.480877450">
        <ele>1886.000</ele>
        <time>2019-11-18T18:29:35Z</time>
      </trkpt>
      <trkpt lat="35.136632400" lon="-106.480874250">
        <ele>1886.000</ele>
        <time>2019-11-18T18:29:38Z</time>
      </trkpt>
      <trkpt lat="35.136668680" lon="-106.480870330">
        <ele>1886.000</ele>
        <time>2019-11-18T18:29:41Z</time>
      </trkpt>
      <trkpt lat="35.136713830" lon="-106.480860480">
        <ele>1886.000</ele>
        <time>2019-11-18T18:29:45Z</time>
      </trkpt>
      <trkpt lat="35.136749830" lon="-106.480856810">
        <ele>1886.000</ele>
        <time>2019-11-18T18:29:47Z</time>
      </trkpt>
      <trkpt lat="35.136788310" lon="-106.480849420">
        <ele>1886.000</ele>
        <time>2019-11-18T18:29:50Z</time>
      </trkpt>
      <trkpt lat="35.136835940" lon="-106.480837600">
        <ele>1886.000</ele>
        <time>2019-11-18T18:29:54Z</time>
      </trkpt>
      <trkpt lat="35.136876160" lon="-106.480827770">
        <ele>1887.000</ele>
        <time>2019-11-18T18:29:57Z</time>
      </trkpt>
      <trkpt lat="35.136913550" lon="-106.480809410">
        <ele>1887.000</ele>
        <time>2019-11-18T18:30:00Z</time>
      </trkpt>
      <trkpt lat="35.136952630" lon="-106.480793060">
        <ele>1886.000</ele>
        <time>2019-11-18T18:30:04Z</time>
      </trkpt>
      <trkpt lat="35.136986380" lon="-106.480771750">
        <ele>1886.000</ele>
        <time>2019-11-18T18:30:11Z</time>
      </trkpt>
      <trkpt lat="35.136967170" lon="-106.480731940">
        <ele>1887.000</ele>
        <time>2019-11-18T18:30:19Z</time>
      </trkpt>
      <trkpt lat="35.136943090" lon="-106.480691820">
        <ele>1888.000</ele>
        <time>2019-11-18T18:30:23Z</time>
      </trkpt>
      <trkpt lat="35.136907180" lon="-106.480698760">
        <ele>1888.000</ele>
        <time>2019-11-18T18:30:29Z</time>
      </trkpt>
      <trkpt lat="35.136871020" lon="-106.480693780">
        <ele>1889.000</ele>
        <time>2019-11-18T18:30:35Z</time>
      </trkpt>
      <trkpt lat="35.136834160" lon="-106.480700050">
        <ele>1888.000</ele>
        <time>2019-11-18T18:30:45Z</time>
      </trkpt>
      <trkpt lat="35.136812190" lon="-106.480665210">
        <ele>1889.000</ele>
        <time>2019-11-18T18:30:57Z</time>
      </trkpt>
      <trkpt lat="35.136807110" lon="-106.480619450">
        <ele>1891.000</ele>
        <time>2019-11-18T18:31:03Z</time>
      </trkpt>
      <trkpt lat="35.136835840" lon="-106.480592460">
        <ele>1891.000</ele>
        <time>2019-11-18T18:31:32Z</time>
      </trkpt>
      <trkpt lat="35.136874360" lon="-106.480598020">
        <ele>1891.000</ele>
        <time>2019-11-18T18:31:41Z</time>
      </trkpt>
      <trkpt lat="35.136891510" lon="-106.480553490">
        <ele>1890.000</ele>
        <time>2019-11-18T18:31:45Z</time>
      </trkpt>
      <trkpt lat="35.136908270" lon="-106.480512140">
        <ele>1889.000</ele>
        <time>2019-11-18T18:31:54Z</time>
      </trkpt>
      <trkpt lat="35.136877080" lon="-106.480484330">
        <ele>1888.000</ele>
        <time>2019-11-18T18:32:00Z</time>
      </trkpt>
      <trkpt lat="35.136864180" lon="-106.480442480">
        <ele>1889.000</ele>
        <time>2019-11-18T18:32:06Z</time>
      </trkpt>
      <trkpt lat="35.136863430" lon="-106.480394280">
        <ele>1891.000</ele>
        <time>2019-11-18T18:32:09Z</time>
      </trkpt>
      <trkpt lat="35.136827790" lon="-106.480379630">
        <ele>1891.000</ele>
        <time>2019-11-18T18:32:13Z</time>
      </trkpt>
      <trkpt lat="35.136818130" lon="-106.480337120">
        <ele>1892.000</ele>
        <time>2019-11-18T18:32:20Z</time>
      </trkpt>
      <trkpt lat="35.136843380" lon="-106.480305420">
        <ele>1897.000</ele>
        <time>2019-11-18T18:32:39Z</time>
      </trkpt>
      <trkpt lat="35.136844030" lon="-106.480260030">
        <ele>1900.000</ele>
        <time>2019-11-18T18:32:52Z</time>
      </trkpt>
      <trkpt lat="35.136839990" lon="-106.480207810">
        <ele>1899.000</ele>
        <time>2019-11-18T18:33:09Z</time>
      </trkpt>
      <trkpt lat="35.136872660" lon="-106.480180440">
        <ele>1901.000</ele>
        <time>2019-11-18T18:33:21Z</time>
      </trkpt>
      <trkpt lat="35.136864820" lon="-106.480136430">
        <ele>1900.000</ele>
        <time>2019-11-18T18:33:33Z</time>
      </trkpt>
      <trkpt lat="35.136887640" lon="-106.480101540">
        <ele>1902.000</ele>
        <time>2019-11-18T18:33:39Z</time>
      </trkpt>
      <trkpt lat="35.136913170" lon="-106.480060860">
        <ele>1904.000</ele>
        <time>2019-11-18T18:33:48Z</time>
      </trkpt>
      <trkpt lat="35.136944360" lon="-106.480027000">
        <ele>1903.000</ele>
        <time>2019-11-18T18:33:56Z</time>
      </trkpt>
      <trkpt lat="35.136973040" lon="-106.479992250">
        <ele>1904.000</ele>
        <time>2019-11-18T18:34:01Z</time>
      </trkpt>
      <trkpt lat="35.137008210" lon="-106.479979140">
        <ele>1906.000</ele>
        <time>2019-11-18T18:34:07Z</time>
      </trkpt>
      <trkpt lat="35.137028020" lon="-106.479926390">
        <ele>1907.000</ele>
        <time>2019-11-18T18:34:23Z</time>
      </trkpt>
      <trkpt lat="35.137038500" lon="-106.479883770">
        <ele>1909.000</ele>
        <time>2019-11-18T18:34:29Z</time>
      </trkpt>
      <trkpt lat="35.137051170" lon="-106.479841980">
        <ele>1910.000</ele>
        <time>2019-11-18T18:34:33Z</time>
      </trkpt>
      <trkpt lat="35.137066730" lon="-106.479793330">
        <ele>1909.000</ele>
        <time>2019-11-18T18:34:40Z</time>
      </trkpt>
      <trkpt lat="35.137080070" lon="-106.479745340">
        <ele>1910.000</ele>
        <time>2019-11-18T18:34:44Z</time>
      </trkpt>
      <trkpt lat="35.137089210" lon="-106.479697960">
        <ele>1911.000</ele>
        <time>2019-11-18T18:34:48Z</time>
      </trkpt>
      <trkpt lat="35.137114910" lon="-106.479654190">
        <ele>1911.000</ele>
        <time>2019-11-18T18:35:06Z</time>
      </trkpt>
      <trkpt lat="35.137139540" lon="-106.479615130">
        <ele>1912.000</ele>
        <time>2019-11-18T18:35:09Z</time>
      </trkpt>
      <trkpt lat="35.137168400" lon="-106.479580200">
        <ele>1913.000</ele>
        <time>2019-11-18T18:35:13Z</time>
      </trkpt>
      <trkpt lat="35.137198590" lon="-106.479549910">
        <ele>1914.000</ele>
        <time>2019-11-18T18:35:17Z</time>
      </trkpt>
      <trkpt lat="35.137240910" lon="-106.479526200">
        <ele>1915.000</ele>
        <time>2019-11-18T18:35:21Z</time>
      </trkpt>
      <trkpt lat="35.137269780" lon="-106.479494840">
        <ele>1915.000</ele>
        <time>2019-11-18T18:35:25Z</time>
      </trkpt>
      <trkpt lat="35.137289930" lon="-106.479429950">
        <ele>1917.000</ele>
        <time>2019-11-18T18:35:30Z</time>
      </trkpt>
      <trkpt lat="35.137323200" lon="-106.479406090">
        <ele>1916.000</ele>
        <time>2019-11-18T18:35:35Z</time>
      </trkpt>
      <trkpt lat="35.137361090" lon="-106.479384230">
        <ele>1918.000</ele>
        <time>2019-11-18T18:35:40Z</time>
      </trkpt>
      <trkpt lat="35.137384890" lon="-106.479349030">
        <ele>1920.000</ele>
        <time>2019-11-18T18:35:45Z</time>
      </trkpt>
      <trkpt lat="35.137404290" lon="-106.479310670">
        <ele>1922.000</ele>
        <time>2019-11-18T18:35:50Z</time>
      </trkpt>
      <trkpt lat="35.137429130" lon="-106.479276850">
        <ele>1922.000</ele>
        <time>2019-11-18T18:35:55Z</time>
      </trkpt>
      <trkpt lat="35.137469330" lon="-106.479288100">
        <ele>1920.000</ele>
        <time>2019-11-18T18:36:02Z</time>
      </trkpt>
      <trkpt lat="35.137509950" lon="-106.479304090">
        <ele>1920.000</ele>
        <time>2019-11-18T18:36:19Z</time>
      </trkpt>
      <trkpt lat="35.137542340" lon="-106.479331470">
        <ele>1924.000</ele>
        <time>2019-11-18T18:36:38Z</time>
      </trkpt>
      <trkpt lat="35.137578820" lon="-106.479346710">
        <ele>1926.000</ele>
        <time>2019-11-18T18:36:47Z</time>
      </trkpt>
      <trkpt lat="35.137621110" lon="-106.479340580">
        <ele>1927.000</ele>
        <time>2019-11-18T18:36:52Z</time>
      </trkpt>
      <trkpt lat="35.137634940" lon="-106.479294500">
        <ele>1929.000</ele>
        <time>2019-11-18T18:36:58Z</time>
      </trkpt>
      <trkpt lat="35.137652820" lon="-106.479248410">
        <ele>1929.000</ele>
        <time>2019-11-18T18:37:02Z</time>
      </trkpt>
      <trkpt lat="35.137672190" lon="-106.479209290">
        <ele>1931.000</ele>
        <time>2019-11-18T18:37:09Z</time>
      </trkpt>
      <trkpt lat="35.137707780" lon="-106.479201380">
        <ele>1935.000</ele>
        <time>2019-11-18T18:40:33Z</time>
      </trkpt>
      <trkpt lat="35.137739770" lon="-106.479233460">
        <ele>1932.000</ele>
        <time>2019-11-18T18:41:37Z</time>
      </trkpt>
      <trkpt lat="35.137773920" lon="-106.479248230">
        <ele>1932.000</ele>
        <time>2019-11-18T18:41:40Z</time>
      </trkpt>
      <trkpt lat="35.137810720" lon="-106.479230480">
        <ele>1932.000</ele>
        <time>2019-11-18T18:41:45Z</time>
      </trkpt>
      <trkpt lat="35.137854980" lon="-106.479221640">
        <ele>1933.000</ele>
        <time>2019-11-18T18:41:55Z</time>
      </trkpt>
      <trkpt lat="35.137893550" lon="-106.479215320">
        <ele>1934.000</ele>
        <time>2019-11-18T18:41:59Z</time>
      </trkpt>
      <trkpt lat="35.137929400" lon="-106.479186330">
        <ele>1934.000</ele>
        <time>2019-11-18T18:42:03Z</time>
      </trkpt>
      <trkpt lat="35.137956500" lon="-106.479157160">
        <ele>1936.000</ele>
        <time>2019-11-18T18:42:07Z</time>
      </trkpt>
      <trkpt lat="35.138000810" lon="-106.479138080">
        <ele>1935.000</ele>
        <time>2019-11-18T18:42:12Z</time>
      </trkpt>
      <trkpt lat="35.138037040" lon="-106.479141340">
        <ele>1936.000</ele>
        <time>2019-11-18T18:42:17Z</time>
      </trkpt>
      <trkpt lat="35.138067280" lon="-106.479116040">
        <ele>1936.000</ele>
        <time>2019-11-18T18:42:22Z</time>
      </trkpt>
      <trkpt lat="35.138058300" lon="-106.479159260">
        <ele>1935.000</ele>
        <time>2019-11-18T18:42:39Z</time>
      </trkpt>
      <trkpt lat="35.138094890" lon="-106.479159220">
        <ele>1936.000</ele>
        <time>2019-11-18T18:42:52Z</time>
      </trkpt>
      <trkpt lat="35.138119390" lon="-106.479119970">
        <ele>1936.000</ele>
        <time>2019-11-18T18:42:55Z</time>
      </trkpt>
      <trkpt lat="35.138148000" lon="-106.479081750">
        <ele>1937.000</ele>
        <time>2019-11-18T18:42:59Z</time>
      </trkpt>
      <trkpt lat="35.138191520" lon="-106.479037040">
        <ele>1937.000</ele>
        <time>2019-11-18T18:43:03Z</time>
      </trkpt>
      <trkpt lat="35.138181630" lon="-106.478984220">
        <ele>1937.000</ele>
        <time>2019-11-18T18:43:07Z</time>
      </trkpt>
      <trkpt lat="35.138209490" lon="-106.478938060">
        <ele>1937.000</ele>
        <time>2019-11-18T18:43:11Z</time>
      </trkpt>
      <trkpt lat="35.138228270" lon="-106.478895060">
        <ele>1937.000</ele>
        <time>2019-11-18T18:43:14Z</time>
      </trkpt>
      <trkpt lat="35.138247930" lon="-106.478852950">
        <ele>1937.000</ele>
        <time>2019-11-18T18:43:17Z</time>
      </trkpt>
      <trkpt lat="35.138269440" lon="-106.478813880">
        <ele>1938.000</ele>
        <time>2019-11-18T18:43:21Z</time>
      </trkpt>
      <trkpt lat="35.138283790" lon="-106.478767950">
        <ele>1939.000</ele>
        <time>2019-11-18T18:43:25Z</time>
      </trkpt>
      <trkpt lat="35.138299870" lon="-106.478726590">
        <ele>1939.000</ele>
        <time>2019-11-18T18:43:28Z</time>
      </trkpt>
      <trkpt lat="35.138327540" lon="-106.478694010">
        <ele>1939.000</ele>
        <time>2019-11-18T18:43:31Z</time>
      </trkpt>
      <trkpt lat="35.138354260" lon="-106.478662330">
        <ele>1940.000</ele>
        <time>2019-11-18T18:43:34Z</time>
      </trkpt>
      <trkpt lat="35.138388730" lon="-106.478620910">
        <ele>1941.000</ele>
        <time>2019-11-18T18:43:38Z</time>
      </trkpt>
      <trkpt lat="35.138419360" lon="-106.478594580">
        <ele>1941.000</ele>
        <time>2019-11-18T18:43:42Z</time>
      </trkpt>
      <trkpt lat="35.138448750" lon="-106.478559550">
        <ele>1942.000</ele>
        <time>2019-11-18T18:43:45Z</time>
      </trkpt>
      <trkpt lat="35.138466330" lon="-106.478516200">
        <ele>1941.000</ele>
        <time>2019-11-18T18:43:48Z</time>
      </trkpt>
      <trkpt lat="35.138479320" lon="-106.478465390">
        <ele>1942.000</ele>
        <time>2019-11-18T18:43:53Z</time>
      </trkpt>
      <trkpt lat="35.138515180" lon="-106.478430190">
        <ele>1943.000</ele>
        <time>2019-11-18T18:44:09Z</time>
      </trkpt>
      <trkpt lat="35.138511060" lon="-106.478375280">
        <ele>1943.000</ele>
        <time>2019-11-18T18:44:14Z</time>
      </trkpt>
      <trkpt lat="35.138535040" lon="-106.478329300">
        <ele>1944.000</ele>
        <time>2019-11-18T18:44:18Z</time>
      </trkpt>
      <trkpt lat="35.138558970" lon="-106.478287180">
        <ele>1944.000</ele>
        <time>2019-11-18T18:44:21Z</time>
      </trkpt>
      <trkpt lat="35.138590740" lon="-106.478255590">
        <ele>1944.000</ele>
        <time>2019-11-18T18:44:24Z</time>
      </trkpt>
      <trkpt lat="35.138618080" lon="-106.478210720">
        <ele>1945.000</ele>
        <time>2019-11-18T18:44:28Z</time>
      </trkpt>
      <trkpt lat="35.138642990" lon="-106.478172520">
        <ele>1948.000</ele>
        <time>2019-11-18T18:44:32Z</time>
      </trkpt>
      <trkpt lat="35.138669300" lon="-106.478123940">
        <ele>1947.000</ele>
        <time>2019-11-18T18:44:36Z</time>
      </trkpt>
      <trkpt lat="35.138667740" lon="-106.478071660">
        <ele>1949.000</ele>
        <time>2019-11-18T18:44:41Z</time>
      </trkpt>
      <trkpt lat="35.138681020" lon="-106.478023440">
        <ele>1951.000</ele>
        <time>2019-11-18T18:44:47Z</time>
      </trkpt>
      <trkpt lat="35.138707110" lon="-106.477979750">
        <ele>1951.000</ele>
        <time>2019-11-18T18:44:54Z</time>
      </trkpt>
      <trkpt lat="35.138728630" lon="-106.477931460">
        <ele>1952.000</ele>
        <time>2019-11-18T18:44:58Z</time>
      </trkpt>
      <trkpt lat="35.138762000" lon="-106.477905630">
        <ele>1953.000</ele>
        <time>2019-11-18T18:45:03Z</time>
      </trkpt>
      <trkpt lat="35.138797490" lon="-106.477885560">
        <ele>1955.000</ele>
        <time>2019-11-18T18:45:08Z</time>
      </trkpt>
      <trkpt lat="35.138819480" lon="-106.477845780">
        <ele>1955.000</ele>
        <time>2019-11-18T18:45:12Z</time>
      </trkpt>
      <trkpt lat="35.138845730" lon="-106.477803730">
        <ele>1957.000</ele>
        <time>2019-11-18T18:45:17Z</time>
      </trkpt>
      <trkpt lat="35.138838690" lon="-106.477749830">
        <ele>1958.000</ele>
        <time>2019-11-18T18:45:56Z</time>
      </trkpt>
      <trkpt lat="35.138833210" lon="-106.477700610">
        <ele>1958.000</ele>
        <time>2019-11-18T18:46:03Z</time>
      </trkpt>
      <trkpt lat="35.138853190" lon="-106.477657960">
        <ele>1961.000</ele>
        <time>2019-11-18T18:46:17Z</time>
      </trkpt>
      <trkpt lat="35.138863940" lon="-106.477608710">
        <ele>1963.000</ele>
        <time>2019-11-18T18:46:22Z</time>
      </trkpt>
      <trkpt lat="35.138882710" lon="-106.477566910">
        <ele>1965.000</ele>
        <time>2019-11-18T18:46:28Z</time>
      </trkpt>
      <trkpt lat="35.138890880" lon="-106.477520490">
        <ele>1966.000</ele>
        <time>2019-11-18T18:46:33Z</time>
      </trkpt>
      <trkpt lat="35.138905550" lon="-106.477477990">
        <ele>1967.000</ele>
        <time>2019-11-18T18:46:38Z</time>
      </trkpt>
      <trkpt lat="35.138934450" lon="-106.477445660">
        <ele>1968.000</ele>
        <time>2019-11-18T18:46:43Z</time>
      </trkpt>
      <trkpt lat="35.138935560" lon="-106.477399730">
        <ele>1968.000</ele>
        <time>2019-11-18T18:46:47Z</time>
      </trkpt>
      <trkpt lat="35.138921290" lon="-106.477358290">
        <ele>1968.000</ele>
        <time>2019-11-18T18:46:52Z</time>
      </trkpt>
      <trkpt lat="35.138931150" lon="-106.477312560">
        <ele>1970.000</ele>
        <time>2019-11-18T18:46:57Z</time>
      </trkpt>
      <trkpt lat="35.138930020" lon="-106.477267500">
        <ele>1970.000</ele>
        <time>2019-11-18T18:47:02Z</time>
      </trkpt>
      <trkpt lat="35.138910870" lon="-106.477218470">
        <ele>1973.000</ele>
        <time>2019-11-18T18:48:22Z</time>
      </trkpt>
      <trkpt lat="35.138929500" lon="-106.477173320">
        <ele>1972.000</ele>
        <time>2019-11-18T18:48:25Z</time>
      </trkpt>
      <trkpt lat="35.138938710" lon="-106.477123530">
        <ele>1974.000</ele>
        <time>2019-11-18T18:48:30Z</time>
      </trkpt>
      <trkpt lat="35.138970420" lon="-106.477082140">
        <ele>1976.000</ele>
        <time>2019-11-18T18:48:35Z</time>
      </trkpt>
      <trkpt lat="35.138979490" lon="-106.477037810">
        <ele>1977.000</ele>
        <time>2019-11-18T18:48:38Z</time>
      </trkpt>
      <trkpt lat="35.138970720" lon="-106.476990320">
        <ele>1977.000</ele>
        <time>2019-11-18T18:48:42Z</time>
      </trkpt>
      <trkpt lat="35.138965850" lon="-106.476942620">
        <ele>1980.000</ele>
        <time>2019-11-18T18:48:48Z</time>
      </trkpt>
      <trkpt lat="35.138940630" lon="-106.476906780">
        <ele>1980.000</ele>
        <time>2019-11-18T18:48:53Z</time>
      </trkpt>
      <trkpt lat="35.138938770" lon="-106.476862450">
        <ele>1981.000</ele>
        <time>2019-11-18T18:48:59Z</time>
      </trkpt>
      <trkpt lat="35.138957410" lon="-106.476816740">
        <ele>1982.000</ele>
        <time>2019-11-18T18:49:04Z</time>
      </trkpt>
      <trkpt lat="35.138958010" lon="-106.476772190">
        <ele>1983.000</ele>
        <time>2019-11-18T18:49:09Z</time>
      </trkpt>
      <trkpt lat="35.138934000" lon="-106.476737370">
        <ele>1983.000</ele>
        <time>2019-11-18T18:49:17Z</time>
      </trkpt>
      <trkpt lat="35.138913290" lon="-106.476691940">
        <ele>1983.000</ele>
        <time>2019-11-18T18:50:04Z</time>
      </trkpt>
      <trkpt lat="35.138910990" lon="-106.476643600">
        <ele>1985.000</ele>
        <time>2019-11-18T18:50:09Z</time>
      </trkpt>
      <trkpt lat="35.138897270" lon="-106.476593850">
        <ele>1986.000</ele>
        <time>2019-11-18T18:50:14Z</time>
      </trkpt>
      <trkpt lat="35.138901640" lon="-106.476545190">
        <ele>1987.000</ele>
        <time>2019-11-18T18:50:19Z</time>
      </trkpt>
      <trkpt lat="35.138906320" lon="-106.476495520">
        <ele>1989.000</ele>
        <time>2019-11-18T18:50:24Z</time>
      </trkpt>
      <trkpt lat="35.138898900" lon="-106.476452510">
        <ele>1992.000</ele>
        <time>2019-11-18T18:50:29Z</time>
      </trkpt>
      <trkpt lat="35.138897450" lon="-106.476401860">
        <ele>1995.000</ele>
        <time>2019-11-18T18:50:35Z</time>
      </trkpt>
      <trkpt lat="35.138874890" lon="-106.476367560">
        <ele>1997.000</ele>
        <time>2019-11-18T18:50:49Z</time>
      </trkpt>
      <trkpt lat="35.138849730" lon="-106.476325750">
        <ele>1996.000</ele>
        <time>2019-11-18T18:51:14Z</time>
      </trkpt>
      <trkpt lat="35.138864530" lon="-106.476285420">
        <ele>1998.000</ele>
        <time>2019-11-18T18:51:20Z</time>
      </trkpt>
      <trkpt lat="35.138870290" lon="-106.476234220">
        <ele>1999.000</ele>
        <time>2019-11-18T18:51:26Z</time>
      </trkpt>
      <trkpt lat="35.138850050" lon="-106.476182860">
        <ele>1999.000</ele>
        <time>2019-11-18T18:51:32Z</time>
      </trkpt>
      <trkpt lat="35.138825970" lon="-106.476149290">
        <ele>1998.000</ele>
        <time>2019-11-18T18:51:35Z</time>
      </trkpt>
      <trkpt lat="35.138811130" lon="-106.476099010">
        <ele>2001.000</ele>
        <time>2019-11-18T18:51:39Z</time>
      </trkpt>
      <trkpt lat="35.138790800" lon="-106.476054980">
        <ele>2003.000</ele>
        <time>2019-11-18T18:51:45Z</time>
      </trkpt>
      <trkpt lat="35.138779290" lon="-106.476012060">
        <ele>2003.000</ele>
        <time>2019-11-18T18:51:49Z</time>
      </trkpt>
      <trkpt lat="35.138762680" lon="-106.475964510">
        <ele>2005.000</ele>
        <time>2019-11-18T18:51:56Z</time>
      </trkpt>
      <trkpt lat="35.138750480" lon="-106.475916800">
        <ele>2006.000</ele>
        <time>2019-11-18T18:52:02Z</time>
      </trkpt>
      <trkpt lat="35.138726290" lon="-106.475880060">
        <ele>2006.000</ele>
        <time>2019-11-18T18:52:07Z</time>
      </trkpt>
      <trkpt lat="35.138699420" lon="-106.475840160">
        <ele>2007.000</ele>
        <time>2019-11-18T18:52:11Z</time>
      </trkpt>
      <trkpt lat="35.138678220" lon="-106.475799730">
        <ele>2009.000</ele>
        <time>2019-11-18T18:52:16Z</time>
      </trkpt>
      <trkpt lat="35.138684050" lon="-106.475748510">
        <ele>2008.000</ele>
        <time>2019-11-18T18:54:01Z</time>
      </trkpt>
      <trkpt lat="35.138663770" lon="-106.475712090">
        <ele>2008.000</ele>
        <time>2019-11-18T18:54:10Z</time>
      </trkpt>
      <trkpt lat="35.138621880" lon="-106.475672060">
        <ele>2012.000</ele>
        <time>2019-11-18T18:54:19Z</time>
      </trkpt>
      <trkpt lat="35.138580390" lon="-106.475640260">
        <ele>2012.000</ele>
        <time>2019-11-18T18:54:23Z</time>
      </trkpt>
      <trkpt lat="35.138572690" lon="-106.475590710">
        <ele>2013.000</ele>
        <time>2019-11-18T18:54:30Z</time>
      </trkpt>
      <trkpt lat="35.138570940" lon="-106.475544160">
        <ele>2014.000</ele>
        <time>2019-11-18T18:54:52Z</time>
      </trkpt>
      <trkpt lat="35.138586760" lon="-106.475496630">
        <ele>2015.000</ele>
        <time>2019-11-18T18:54:58Z</time>
      </trkpt>
      <trkpt lat="35.138609130" lon="-106.475460180">
        <ele>2017.000</ele>
        <time>2019-11-18T18:55:36Z</time>
      </trkpt>
      <trkpt lat="35.138651470" lon="-106.475450550">
        <ele>2017.000</ele>
        <time>2019-11-18T18:55:39Z</time>
      </trkpt>
      <trkpt lat="35.138690960" lon="-106.475441130">
        <ele>2018.000</ele>
        <time>2019-11-18T18:55:44Z</time>
      </trkpt>
      <trkpt lat="35.138730100" lon="-106.475441790">
        <ele>2019.000</ele>
        <time>2019-11-18T18:55:51Z</time>
      </trkpt>
      <trkpt lat="35.138767660" lon="-106.475444020">
        <ele>2020.000</ele>
        <time>2019-11-18T18:55:56Z</time>
      </trkpt>
      <trkpt lat="35.138802910" lon="-106.475453940">
        <ele>2022.000</ele>
        <time>2019-11-18T18:56:13Z</time>
      </trkpt>
      <trkpt lat="35.138848430" lon="-106.475442470">
        <ele>2023.000</ele>
        <time>2019-11-18T18:56:18Z</time>
      </trkpt>
      <trkpt lat="35.138884970" lon="-106.475420460">
        <ele>2025.000</ele>
        <time>2019-11-18T18:56:22Z</time>
      </trkpt>
      <trkpt lat="35.138922360" lon="-106.475408020">
        <ele>2027.000</ele>
        <time>2019-11-18T18:56:26Z</time>
      </trkpt>
      <trkpt lat="35.138959210" lon="-106.475388820">
        <ele>2027.000</ele>
        <time>2019-11-18T18:56:31Z</time>
      </trkpt>
      <trkpt lat="35.138991390" lon="-106.475365410">
        <ele>2028.000</ele>
        <time>2019-11-18T18:56:35Z</time>
      </trkpt>
      <trkpt lat="35.139024850" lon="-106.475342320">
        <ele>2029.000</ele>
        <time>2019-11-18T18:56:40Z</time>
      </trkpt>
      <trkpt lat="35.139063460" lon="-106.475337350">
        <ele>2029.000</ele>
        <time>2019-11-18T18:56:45Z</time>
      </trkpt>
      <trkpt lat="35.139100140" lon="-106.475333900">
        <ele>2030.000</ele>
        <time>2019-11-18T18:56:49Z</time>
      </trkpt>
      <trkpt lat="35.139140280" lon="-106.475319680">
        <ele>2029.000</ele>
        <time>2019-11-18T18:56:53Z</time>
      </trkpt>
      <trkpt lat="35.139179870" lon="-106.475301120">
        <ele>2030.000</ele>
        <time>2019-11-18T18:56:57Z</time>
      </trkpt>
      <trkpt lat="35.139223240" lon="-106.475297230">
        <ele>2029.000</ele>
        <time>2019-11-18T18:57:01Z</time>
      </trkpt>
      <trkpt lat="35.139262680" lon="-106.475317120">
        <ele>2033.000</ele>
        <time>2019-11-18T18:57:06Z</time>
      </trkpt>
      <trkpt lat="35.139299760" lon="-106.475308030">
        <ele>2031.000</ele>
        <time>2019-11-18T18:57:09Z</time>
      </trkpt>
      <trkpt lat="35.139341670" lon="-106.475300890">
        <ele>2030.000</ele>
        <time>2019-11-18T18:57:13Z</time>
      </trkpt>
      <trkpt lat="35.139341980" lon="-106.475250940">
        <ele>2035.000</ele>
        <time>2019-11-18T18:57:57Z</time>
      </trkpt>
      <trkpt lat="35.139345080" lon="-106.475198770">
        <ele>2036.000</ele>
        <time>2019-11-18T18:58:01Z</time>
      </trkpt>
      <trkpt lat="35.139349470" lon="-106.475147830">
        <ele>2038.000</ele>
        <time>2019-11-18T18:58:06Z</time>
      </trkpt>
      <trkpt lat="35.139319570" lon="-106.475110150">
        <ele>2037.000</ele>
        <time>2019-11-18T18:58:10Z</time>
      </trkpt>
      <trkpt lat="35.139292530" lon="-106.475069870">
        <ele>2036.000</ele>
        <time>2019-11-18T18:58:14Z</time>
      </trkpt>
      <trkpt lat="35.139268220" lon="-106.475030090">
        <ele>2038.000</ele>
        <time>2019-11-18T18:58:19Z</time>
      </trkpt>
      <trkpt lat="35.139251700" lon="-106.474982970">
        <ele>2038.000</ele>
        <time>2019-11-18T18:58:24Z</time>
      </trkpt>
      <trkpt lat="35.139261610" lon="-106.474923210">
        <ele>2038.000</ele>
        <time>2019-11-18T18:58:29Z</time>
      </trkpt>
      <trkpt lat="35.139232800" lon="-106.474880740">
        <ele>2039.000</ele>
        <time>2019-11-18T18:58:32Z</time>
      </trkpt>
      <trkpt lat="35.139233590" lon="-106.474835870">
        <ele>2040.000</ele>
        <time>2019-11-18T18:58:35Z</time>
      </trkpt>
      <trkpt lat="35.139253600" lon="-106.474799160">
        <ele>2042.000</ele>
        <time>2019-11-18T18:58:38Z</time>
      </trkpt>
      <trkpt lat="35.139276690" lon="-106.474749440">
        <ele>2043.000</ele>
        <time>2019-11-18T18:58:43Z</time>
      </trkpt>
      <trkpt lat="35.139313560" lon="-106.474726020">
        <ele>2044.000</ele>
        <time>2019-11-18T18:58:47Z</time>
      </trkpt>
      <trkpt lat="35.139349100" lon="-106.474705400">
        <ele>2045.000</ele>
        <time>2019-11-18T18:58:51Z</time>
      </trkpt>
      <trkpt lat="35.139376150" lon="-106.474674330">
        <ele>2045.000</ele>
        <time>2019-11-18T18:58:55Z</time>
      </trkpt>
      <trkpt lat="35.139400830" lon="-106.474636800">
        <ele>2045.000</ele>
        <time>2019-11-18T18:58:59Z</time>
      </trkpt>
      <trkpt lat="35.139424810" lon="-106.474592300">
        <ele>2046.000</ele>
        <time>2019-11-18T18:59:04Z</time>
      </trkpt>
      <trkpt lat="35.139443900" lon="-106.474546880">
        <ele>2048.000</ele>
        <time>2019-11-18T18:59:09Z</time>
      </trkpt>
      <trkpt lat="35.139439240" lon="-106.474501900">
        <ele>2048.000</ele>
        <time>2019-11-18T18:59:13Z</time>
      </trkpt>
      <trkpt lat="35.139444040" lon="-106.474457900">
        <ele>2050.000</ele>
        <time>2019-11-18T18:59:18Z</time>
      </trkpt>
      <trkpt lat="35.139461630" lon="-106.474418830">
        <ele>2052.000</ele>
        <time>2019-11-18T18:59:25Z</time>
      </trkpt>
      <trkpt lat="35.139487240" lon="-106.474382580">
        <ele>2052.000</ele>
        <time>2019-11-18T18:59:32Z</time>
      </trkpt>
      <trkpt lat="35.139510200" lon="-106.474341710">
        <ele>2053.000</ele>
        <time>2019-11-18T18:59:37Z</time>
      </trkpt>
      <trkpt lat="35.139524850" lon="-106.474301460">
        <ele>2052.000</ele>
        <time>2019-11-18T18:59:41Z</time>
      </trkpt>
      <trkpt lat="35.139532410" lon="-106.474250480">
        <ele>2052.000</ele>
        <time>2019-11-18T18:59:46Z</time>
      </trkpt>
      <trkpt lat="35.139540620" lon="-106.474203390">
        <ele>2053.000</ele>
        <time>2019-11-18T18:59:50Z</time>
      </trkpt>
      <trkpt lat="35.139532660" lon="-106.474159430">
        <ele>2051.000</ele>
        <time>2019-11-18T18:59:53Z</time>
      </trkpt>
      <trkpt lat="35.139523720" lon="-106.474113070">
        <ele>2052.000</ele>
        <time>2019-11-18T18:59:58Z</time>
      </trkpt>
      <trkpt lat="35.139505190" lon="-106.474071670">
        <ele>2052.000</ele>
        <time>2019-11-18T19:00:02Z</time>
      </trkpt>
      <trkpt lat="35.139482570" lon="-106.474037340">
        <ele>2051.000</ele>
        <time>2019-11-18T19:00:06Z</time>
      </trkpt>
      <trkpt lat="35.139459690" lon="-106.474002340">
        <ele>2050.000</ele>
        <time>2019-11-18T19:00:09Z</time>
      </trkpt>
      <trkpt lat="35.139439790" lon="-106.473954070">
        <ele>2051.000</ele>
        <time>2019-11-18T19:00:15Z</time>
      </trkpt>
      <trkpt lat="35.139425130" lon="-106.473908580">
        <ele>2052.000</ele>
        <time>2019-11-18T19:00:19Z</time>
      </trkpt>
      <trkpt lat="35.139428560" lon="-106.473861670">
        <ele>2052.000</ele>
        <time>2019-11-18T19:00:23Z</time>
      </trkpt>
      <trkpt lat="35.139432760" lon="-106.473817990">
        <ele>2054.000</ele>
        <time>2019-11-18T19:00:39Z</time>
      </trkpt>
      <trkpt lat="35.139469940" lon="-106.473790240">
        <ele>2054.000</ele>
        <time>2019-11-18T19:00:49Z</time>
      </trkpt>
      <trkpt lat="35.139486670" lon="-106.473740720">
        <ele>2055.000</ele>
        <time>2019-11-18T19:00:53Z</time>
      </trkpt>
      <trkpt lat="35.139475340" lon="-106.473695000">
        <ele>2056.000</ele>
        <time>2019-11-18T19:00:58Z</time>
      </trkpt>
      <trkpt lat="35.139496090" lon="-106.473647320">
        <ele>2057.000</ele>
        <time>2019-11-18T19:01:03Z</time>
      </trkpt>
      <trkpt lat="35.139518070" lon="-106.473608530">
        <ele>2057.000</ele>
        <time>2019-11-18T19:01:09Z</time>
      </trkpt>
      <trkpt lat="35.139524080" lon="-106.473556770">
        <ele>2060.000</ele>
        <time>2019-11-18T19:01:14Z</time>
      </trkpt>
      <trkpt lat="35.139546990" lon="-106.473514100">
        <ele>2060.000</ele>
        <time>2019-11-18T19:01:20Z</time>
      </trkpt>
      <trkpt lat="35.139558850" lon="-106.473470910">
        <ele>2061.000</ele>
        <time>2019-11-18T19:01:24Z</time>
      </trkpt>
      <trkpt lat="35.139537050" lon="-106.473426600">
        <ele>2062.000</ele>
        <time>2019-11-18T19:01:29Z</time>
      </trkpt>
      <trkpt lat="35.139559390" lon="-106.473389160">
        <ele>2064.000</ele>
        <time>2019-11-18T19:01:36Z</time>
      </trkpt>
      <trkpt lat="35.139572550" lon="-106.473346380">
        <ele>2065.000</ele>
        <time>2019-11-18T19:01:40Z</time>
      </trkpt>
      <trkpt lat="35.139600790" lon="-106.473304120">
        <ele>2066.000</ele>
        <time>2019-11-18T19:01:44Z</time>
      </trkpt>
      <trkpt lat="35.139616250" lon="-106.473260690">
        <ele>2068.000</ele>
        <time>2019-11-18T19:01:48Z</time>
      </trkpt>
      <trkpt lat="35.139616610" lon="-106.473215700">
        <ele>2068.000</ele>
        <time>2019-11-18T19:02:44Z</time>
      </trkpt>
      <trkpt lat="35.139621990" lon="-106.473171780">
        <ele>2070.000</ele>
        <time>2019-11-18T19:02:52Z</time>
      </trkpt>
      <trkpt lat="35.139629100" lon="-106.473126700">
        <ele>2071.000</ele>
        <time>2019-11-18T19:02:59Z</time>
      </trkpt>
      <trkpt lat="35.139598550" lon="-106.473100350">
        <ele>2072.000</ele>
        <time>2019-11-18T19:03:11Z</time>
      </trkpt>
      <trkpt lat="35.139585260" lon="-106.473052680">
        <ele>2074.000</ele>
        <time>2019-11-18T19:03:17Z</time>
      </trkpt>
      <trkpt lat="35.139555280" lon="-106.473025100">
        <ele>2073.000</ele>
        <time>2019-11-18T19:03:22Z</time>
      </trkpt>
      <trkpt lat="35.139538400" lon="-106.472986270">
        <ele>2076.000</ele>
        <time>2019-11-18T19:04:18Z</time>
      </trkpt>
      <trkpt lat="35.139549730" lon="-106.472937940">
        <ele>2080.000</ele>
        <time>2019-11-18T19:04:27Z</time>
      </trkpt>
      <trkpt lat="35.139547000" lon="-106.472889780">
        <ele>2080.000</ele>
        <time>2019-11-18T19:04:51Z</time>
      </trkpt>
      <trkpt lat="35.139535590" lon="-106.472848110">
        <ele>2082.000</ele>
        <time>2019-11-18T19:04:57Z</time>
      </trkpt>
      <trkpt lat="35.139493470" lon="-106.472845060">
        <ele>2083.000</ele>
        <time>2019-11-18T19:05:10Z</time>
      </trkpt>
      <trkpt lat="35.139451530" lon="-106.472837190">
        <ele>2085.000</ele>
        <time>2019-11-18T19:05:36Z</time>
      </trkpt>
      <trkpt lat="35.139412910" lon="-106.472840990">
        <ele>2085.000</ele>
        <time>2019-11-18T19:05:40Z</time>
      </trkpt>
      <trkpt lat="35.139429860" lon="-106.472799090">
        <ele>2087.000</ele>
        <time>2019-11-18T19:05:49Z</time>
      </trkpt>
      <trkpt lat="35.139462080" lon="-106.472774670">
        <ele>2091.000</ele>
        <time>2019-11-18T19:06:01Z</time>
      </trkpt>
      <trkpt lat="35.139449630" lon="-106.472726880">
        <ele>2092.000</ele>
        <time>2019-11-18T19:06:52Z</time>
      </trkpt>
      <trkpt lat="35.139479460" lon="-106.472698860">
        <ele>2092.000</ele>
        <time>2019-11-18T19:07:01Z</time>
      </trkpt>
      <trkpt lat="35.139454720" lon="-106.472660260">
        <ele>2090.000</ele>
        <time>2019-11-18T19:07:12Z</time>
      </trkpt>
      <trkpt lat="35.139433230" lon="-106.472621490">
        <ele>2093.000</ele>
        <time>2019-11-18T19:07:21Z</time>
      </trkpt>
      <trkpt lat="35.139397180" lon="-106.472588870">
        <ele>2096.000</ele>
        <time>2019-11-18T19:07:46Z</time>
      </trkpt>
      <trkpt lat="35.139382140" lon="-106.472539220">
        <ele>2098.000</ele>
        <time>2019-11-18T19:07:53Z</time>
      </trkpt>
      <trkpt lat="35.139350760" lon="-106.472498950">
        <ele>2097.000</ele>
        <time>2019-11-18T19:07:57Z</time>
      </trkpt>
      <trkpt lat="35.139305150" lon="-106.472488360">
        <ele>2099.000</ele>
        <time>2019-11-18T19:08:04Z</time>
      </trkpt>
      <trkpt lat="35.139271060" lon="-106.472468160">
        <ele>2099.000</ele>
        <time>2019-11-18T19:08:10Z</time>
      </trkpt>
      <trkpt lat="35.139246730" lon="-106.472422840">
        <ele>2101.000</ele>
        <time>2019-11-18T19:08:16Z</time>
      </trkpt>
      <trkpt lat="35.139256870" lon="-106.472379740">
        <ele>2104.000</ele>
        <time>2019-11-18T19:08:41Z</time>
      </trkpt>
      <trkpt lat="35.139254700" lon="-106.472329450">
        <ele>2105.000</ele>
        <time>2019-11-18T19:09:29Z</time>
      </trkpt>
      <trkpt lat="35.139260450" lon="-106.472280120">
        <ele>2109.000</ele>
        <time>2019-11-18T19:09:37Z</time>
      </trkpt>
      <trkpt lat="35.139264930" lon="-106.472231950">
        <ele>2109.000</ele>
        <time>2019-11-18T19:09:42Z</time>
      </trkpt>
      <trkpt lat="35.139261740" lon="-106.472187190">
        <ele>2110.000</ele>
        <time>2019-11-18T19:09:46Z</time>
      </trkpt>
      <trkpt lat="35.139244500" lon="-106.472147450">
        <ele>2113.000</ele>
        <time>2019-11-18T19:09:52Z</time>
      </trkpt>
      <trkpt lat="35.139253470" lon="-106.472104670">
        <ele>2114.000</ele>
        <time>2019-11-18T19:10:01Z</time>
      </trkpt>
      <trkpt lat="35.139244010" lon="-106.472058940">
        <ele>2115.000</ele>
        <time>2019-11-18T19:10:07Z</time>
      </trkpt>
      <trkpt lat="35.139267080" lon="-106.472022060">
        <ele>2117.000</ele>
        <time>2019-11-18T19:10:12Z</time>
      </trkpt>
      <trkpt lat="35.139257560" lon="-106.471976110">
        <ele>2119.000</ele>
        <time>2019-11-18T19:10:19Z</time>
      </trkpt>
      <trkpt lat="35.139232680" lon="-106.471942710">
        <ele>2117.000</ele>
        <time>2019-11-18T19:10:29Z</time>
      </trkpt>
      <trkpt lat="35.139231760" lon="-106.471894900">
        <ele>2117.000</ele>
        <time>2019-11-18T19:11:13Z</time>
      </trkpt>
      <trkpt lat="35.139212870" lon="-106.471856240">
        <ele>2119.000</ele>
        <time>2019-11-18T19:11:18Z</time>
      </trkpt>
      <trkpt lat="35.139217500" lon="-106.471806270">
        <ele>2124.000</ele>
        <time>2019-11-18T19:11:27Z</time>
      </trkpt>
      <trkpt lat="35.139201880" lon="-106.471751810">
        <ele>2127.000</ele>
        <time>2019-11-18T19:11:33Z</time>
      </trkpt>
      <trkpt lat="35.139169260" lon="-106.471704250">
        <ele>2125.000</ele>
        <time>2019-11-18T19:11:37Z</time>
      </trkpt>
      <trkpt lat="35.139161250" lon="-106.471658880">
        <ele>2126.000</ele>
        <time>2019-11-18T19:11:41Z</time>
      </trkpt>
      <trkpt lat="35.139152620" lon="-106.471616140">
        <ele>2127.000</ele>
        <time>2019-11-18T19:11:45Z</time>
      </trkpt>
      <trkpt lat="35.139126720" lon="-106.471578740">
        <ele>2127.000</ele>
        <time>2019-11-18T19:11:49Z</time>
      </trkpt>
      <trkpt lat="35.139095040" lon="-106.471549300">
        <ele>2127.000</ele>
        <time>2019-11-18T19:11:53Z</time>
      </trkpt>
      <trkpt lat="35.139067060" lon="-106.471519170">
        <ele>2127.000</ele>
        <time>2019-11-18T19:11:56Z</time>
      </trkpt>
      <trkpt lat="35.139035660" lon="-106.471486760">
        <ele>2128.000</ele>
        <time>2019-11-18T19:12:00Z</time>
      </trkpt>
      <trkpt lat="35.139000280" lon="-106.471503300">
        <ele>2128.000</ele>
        <time>2019-11-18T19:12:04Z</time>
      </trkpt>
      <trkpt lat="35.138955670" lon="-106.471513960">
        <ele>2128.000</ele>
        <time>2019-11-18T19:12:18Z</time>
      </trkpt>
      <trkpt lat="35.138922020" lon="-106.471486420">
        <ele>2128.000</ele>
        <time>2019-11-18T19:13:08Z</time>
      </trkpt>
      <trkpt lat="35.138882710" lon="-106.471463800">
        <ele>2127.000</ele>
        <time>2019-11-18T19:13:11Z</time>
      </trkpt>
      <trkpt lat="35.138857850" lon="-106.471429480">
        <ele>2128.000</ele>
        <time>2019-11-18T19:13:16Z</time>
      </trkpt>
      <trkpt lat="35.138824950" lon="-106.471406830">
        <ele>2127.000</ele>
        <time>2019-11-18T19:13:19Z</time>
      </trkpt>
      <trkpt lat="35.138785960" lon="-106.471388120">
        <ele>2128.000</ele>
        <time>2019-11-18T19:13:24Z</time>
      </trkpt>
      <trkpt lat="35.138752810" lon="-106.471362850">
        <ele>2129.000</ele>
        <time>2019-11-18T19:13:30Z</time>
      </trkpt>
      <trkpt lat="35.138728200" lon="-106.471319130">
        <ele>2132.000</ele>
        <time>2019-11-18T19:13:36Z</time>
      </trkpt>
      <trkpt lat="35.138710240" lon="-106.471264680">
        <ele>2130.000</ele>
        <time>2019-11-18T19:13:41Z</time>
      </trkpt>
      <trkpt lat="35.138675600" lon="-106.471236500">
        <ele>2132.000</ele>
        <time>2019-11-18T19:13:48Z</time>
      </trkpt>
      <trkpt lat="35.138672400" lon="-106.471189710">
        <ele>2134.000</ele>
        <time>2019-11-18T19:13:53Z</time>
      </trkpt>
      <trkpt lat="35.138682860" lon="-106.471145450">
        <ele>2135.000</ele>
        <time>2019-11-18T19:13:57Z</time>
      </trkpt>
      <trkpt lat="35.138677990" lon="-106.471101020">
        <ele>2137.000</ele>
        <time>2019-11-18T19:14:02Z</time>
      </trkpt>
      <trkpt lat="35.138682380" lon="-106.471051410">
        <ele>2139.000</ele>
        <time>2019-11-18T19:14:07Z</time>
      </trkpt>
      <trkpt lat="35.138658780" lon="-106.471010550">
        <ele>2141.000</ele>
        <time>2019-11-18T19:14:53Z</time>
      </trkpt>
      <trkpt lat="35.138650180" lon="-106.470960840">
        <ele>2140.000</ele>
        <time>2019-11-18T19:14:59Z</time>
      </trkpt>
      <trkpt lat="35.138601880" lon="-106.470953880">
        <ele>2142.000</ele>
        <time>2019-11-18T19:15:03Z</time>
      </trkpt>
      <trkpt lat="35.138561870" lon="-106.470945830">
        <ele>2143.000</ele>
        <time>2019-11-18T19:15:07Z</time>
      </trkpt>
      <trkpt lat="35.138530490" lon="-106.470918610">
        <ele>2143.000</ele>
        <time>2019-11-18T19:15:12Z</time>
      </trkpt>
      <trkpt lat="35.138505420" lon="-106.470869970">
        <ele>2143.000</ele>
        <time>2019-11-18T19:15:18Z</time>
      </trkpt>
      <trkpt lat="35.138510810" lon="-106.470814910">
        <ele>2145.000</ele>
        <time>2019-11-18T19:15:25Z</time>
      </trkpt>
      <trkpt lat="35.138521280" lon="-106.470764880">
        <ele>2146.000</ele>
        <time>2019-11-18T19:15:30Z</time>
      </trkpt>
      <trkpt lat="35.138552540" lon="-106.470730240">
        <ele>2148.000</ele>
        <time>2019-11-18T19:15:37Z</time>
      </trkpt>
      <trkpt lat="35.138551940" lon="-106.470683420">
        <ele>2150.000</ele>
        <time>2019-11-18T19:16:37Z</time>
      </trkpt>
      <trkpt lat="35.138579710" lon="-106.470653560">
        <ele>2152.000</ele>
        <time>2019-11-18T19:16:43Z</time>
      </trkpt>
      <trkpt lat="35.138597830" lon="-106.470614810">
        <ele>2153.000</ele>
        <time>2019-11-18T19:16:48Z</time>
      </trkpt>
      <trkpt lat="35.138613840" lon="-106.470574980">
        <ele>2154.000</ele>
        <time>2019-11-18T19:16:52Z</time>
      </trkpt>
      <trkpt lat="35.138614490" lon="-106.470529900">
        <ele>2155.000</ele>
        <time>2019-11-18T19:16:58Z</time>
      </trkpt>
      <trkpt lat="35.138597230" lon="-106.470485890">
        <ele>2156.000</ele>
        <time>2019-11-18T19:17:04Z</time>
      </trkpt>
      <trkpt lat="35.138591270" lon="-106.470438620">
        <ele>2156.000</ele>
        <time>2019-11-18T19:17:09Z</time>
      </trkpt>
      <trkpt lat="35.138575030" lon="-106.470387790">
        <ele>2157.000</ele>
        <time>2019-11-18T19:17:14Z</time>
      </trkpt>
      <trkpt lat="35.138549750" lon="-106.470351930">
        <ele>2157.000</ele>
        <time>2019-11-18T19:17:18Z</time>
      </trkpt>
      <trkpt lat="35.138544400" lon="-106.470306910">
        <ele>2159.000</ele>
        <time>2019-11-18T19:17:22Z</time>
      </trkpt>
      <trkpt lat="35.138542080" lon="-106.470259920">
        <ele>2160.000</ele>
        <time>2019-11-18T19:17:26Z</time>
      </trkpt>
      <trkpt lat="35.138549630" lon="-106.470215360">
        <ele>2161.000</ele>
        <time>2019-11-18T19:17:31Z</time>
      </trkpt>
      <trkpt lat="35.138555700" lon="-106.470169270">
        <ele>2162.000</ele>
        <time>2019-11-18T19:17:35Z</time>
      </trkpt>
      <trkpt lat="35.138562510" lon="-106.470125450">
        <ele>2163.000</ele>
        <time>2019-11-18T19:17:39Z</time>
      </trkpt>
      <trkpt lat="35.138559690" lon="-106.470068930">
        <ele>2164.000</ele>
        <time>2019-11-18T19:17:44Z</time>
      </trkpt>
      <trkpt lat="35.138535560" lon="-106.470023470">
        <ele>2164.000</ele>
        <time>2019-11-18T19:17:48Z</time>
      </trkpt>
      <trkpt lat="35.138517270" lon="-106.469974130">
        <ele>2165.000</ele>
        <time>2019-11-18T19:19:28Z</time>
      </trkpt>
      <trkpt lat="35.138507850" lon="-106.469923100">
        <ele>2165.000</ele>
        <time>2019-11-18T19:19:34Z</time>
      </trkpt>
      <trkpt lat="35.138536780" lon="-106.469888930">
        <ele>2167.000</ele>
        <time>2019-11-18T19:19:39Z</time>
      </trkpt>
      <trkpt lat="35.138561380" lon="-106.469847830">
        <ele>2173.000</ele>
        <time>2019-11-18T19:19:46Z</time>
      </trkpt>
      <trkpt lat="35.138547370" lon="-106.469794440">
        <ele>2174.000</ele>
        <time>2019-11-18T19:19:51Z</time>
      </trkpt>
      <trkpt lat="35.138559220" lon="-106.469749040">
        <ele>2173.000</ele>
        <time>2019-11-18T19:19:55Z</time>
      </trkpt>
      <trkpt lat="35.138548320" lon="-106.469706490">
        <ele>2173.000</ele>
        <time>2019-11-18T19:19:58Z</time>
      </trkpt>
      <trkpt lat="35.138557120" lon="-106.469656390">
        <ele>2173.000</ele>
        <time>2019-11-18T19:20:03Z</time>
      </trkpt>
      <trkpt lat="35.138553240" lon="-106.469611310">
        <ele>2174.000</ele>
        <time>2019-11-18T19:20:08Z</time>
      </trkpt>
      <trkpt lat="35.138521800" lon="-106.469586960">
        <ele>2175.000</ele>
        <time>2019-11-18T19:20:22Z</time>
      </trkpt>
      <trkpt lat="35.138521740" lon="-106.469534300">
        <ele>2177.000</ele>
        <time>2019-11-18T19:20:34Z</time>
      </trkpt>
      <trkpt lat="35.138536090" lon="-106.469492700">
        <ele>2178.000</ele>
        <time>2019-11-18T19:20:45Z</time>
      </trkpt>
      <trkpt lat="35.138556090" lon="-106.469453550">
        <ele>2182.000</ele>
        <time>2019-11-18T19:20:51Z</time>
      </trkpt>
      <trkpt lat="35.138551310" lon="-106.469406590">
        <ele>2183.000</ele>
        <time>2019-11-18T19:20:54Z</time>
      </trkpt>
      <trkpt lat="35.138562360" lon="-106.469364110">
        <ele>2183.000</ele>
        <time>2019-11-18T19:20:58Z</time>
      </trkpt>
      <trkpt lat="35.138583520" lon="-106.469321200">
        <ele>2185.000</ele>
        <time>2019-11-18T19:21:03Z</time>
      </trkpt>
      <trkpt lat="35.138569070" lon="-106.469280540">
        <ele>2185.000</ele>
        <time>2019-11-18T19:21:19Z</time>
      </trkpt>
      <trkpt lat="35.138606440" lon="-106.469262490">
        <ele>2186.000</ele>
        <time>2019-11-18T19:21:35Z</time>
      </trkpt>
      <trkpt lat="35.138596540" lon="-106.469216830">
        <ele>2189.000</ele>
        <time>2019-11-18T19:21:42Z</time>
      </trkpt>
      <trkpt lat="35.138560750" lon="-106.469206650">
        <ele>2188.000</ele>
        <time>2019-11-18T19:21:52Z</time>
      </trkpt>
      <trkpt lat="35.138587590" lon="-106.469176860">
        <ele>2190.000</ele>
        <time>2019-11-18T19:22:45Z</time>
      </trkpt>
      <trkpt lat="35.138616000" lon="-106.469147150">
        <ele>2193.000</ele>
        <time>2019-11-18T19:22:50Z</time>
      </trkpt>
      <trkpt lat="35.138616690" lon="-106.469087390">
        <ele>2192.000</ele>
        <time>2019-11-18T19:22:56Z</time>
      </trkpt>
      <trkpt lat="35.138596960" lon="-106.469042300">
        <ele>2194.000</ele>
        <time>2019-11-18T19:23:00Z</time>
      </trkpt>
      <trkpt lat="35.138574870" lon="-106.468998290">
        <ele>2196.000</ele>
        <time>2019-11-18T19:23:05Z</time>
      </trkpt>
      <trkpt lat="35.138536580" lon="-106.468986790">
        <ele>2196.000</ele>
        <time>2019-11-18T19:23:09Z</time>
      </trkpt>
      <trkpt lat="35.138509970" lon="-106.468953540">
        <ele>2198.000</ele>
        <time>2019-11-18T19:23:15Z</time>
      </trkpt>
      <trkpt lat="35.138529680" lon="-106.468911730">
        <ele>2198.000</ele>
        <time>2019-11-18T19:23:51Z</time>
      </trkpt>
      <trkpt lat="35.138541810" lon="-106.468862840">
        <ele>2200.000</ele>
        <time>2019-11-18T19:23:56Z</time>
      </trkpt>
      <trkpt lat="35.138527930" lon="-106.468818800">
        <ele>2201.000</ele>
        <time>2019-11-18T19:24:01Z</time>
      </trkpt>
      <trkpt lat="35.138533010" lon="-106.468770320">
        <ele>2203.000</ele>
        <time>2019-11-18T19:24:06Z</time>
      </trkpt>
      <trkpt lat="35.138534950" lon="-106.468724450">
        <ele>2203.000</ele>
        <time>2019-11-18T19:24:11Z</time>
      </trkpt>
      <trkpt lat="35.138554500" lon="-106.468677320">
        <ele>2204.000</ele>
        <time>2019-11-18T19:24:17Z</time>
      </trkpt>
      <trkpt lat="35.138575420" lon="-106.468633250">
        <ele>2205.000</ele>
        <time>2019-11-18T19:24:21Z</time>
      </trkpt>
      <trkpt lat="35.138558020" lon="-106.468594410">
        <ele>2205.000</ele>
        <time>2019-11-18T19:24:59Z</time>
      </trkpt>
      <trkpt lat="35.138557130" lon="-106.468550030">
        <ele>2206.000</ele>
        <time>2019-11-18T19:25:05Z</time>
      </trkpt>
      <trkpt lat="35.138571730" lon="-106.468493410">
        <ele>2207.000</ele>
        <time>2019-11-18T19:25:09Z</time>
      </trkpt>
      <trkpt lat="35.138578700" lon="-106.468438980">
        <ele>2207.000</ele>
        <time>2019-11-18T19:25:14Z</time>
      </trkpt>
      <trkpt lat="35.138588230" lon="-106.468386690">
        <ele>2208.000</ele>
        <time>2019-11-18T19:25:18Z</time>
      </trkpt>
      <trkpt lat="35.138586580" lon="-106.468339030">
        <ele>2209.000</ele>
        <time>2019-11-18T19:25:22Z</time>
      </trkpt>
      <trkpt lat="35.138586260" lon="-106.468286170">
        <ele>2210.000</ele>
        <time>2019-11-18T19:25:27Z</time>
      </trkpt>
      <trkpt lat="35.138599400" lon="-106.468235390">
        <ele>2212.000</ele>
        <time>2019-11-18T19:25:32Z</time>
      </trkpt>
      <trkpt lat="35.138613910" lon="-106.468194810">
        <ele>2213.000</ele>
        <time>2019-11-18T19:25:36Z</time>
      </trkpt>
      <trkpt lat="35.138644370" lon="-106.468159220">
        <ele>2214.000</ele>
        <time>2019-11-18T19:25:40Z</time>
      </trkpt>
      <trkpt lat="35.138662930" lon="-106.468114240">
        <ele>2214.000</ele>
        <time>2019-11-18T19:25:57Z</time>
      </trkpt>
      <trkpt lat="35.138682920" lon="-106.468076790">
        <ele>2215.000</ele>
        <time>2019-11-18T19:26:03Z</time>
      </trkpt>
      <trkpt lat="35.138680350" lon="-106.468030650">
        <ele>2214.000</ele>
        <time>2019-11-18T19:26:21Z</time>
      </trkpt>
      <trkpt lat="35.138680100" lon="-106.467980610">
        <ele>2213.000</ele>
        <time>2019-11-18T19:26:26Z</time>
      </trkpt>
      <trkpt lat="35.138677880" lon="-106.467929580">
        <ele>2212.000</ele>
        <time>2019-11-18T19:26:31Z</time>
      </trkpt>
      <trkpt lat="35.138669320" lon="-106.467884750">
        <ele>2213.000</ele>
        <time>2019-11-18T19:26:36Z</time>
      </trkpt>
      <trkpt lat="35.138672040" lon="-106.467830260">
        <ele>2215.000</ele>
        <time>2019-11-18T19:26:42Z</time>
      </trkpt>
      <trkpt lat="35.138659060" lon="-106.467785690">
        <ele>2215.000</ele>
        <time>2019-11-18T19:27:20Z</time>
      </trkpt>
      <trkpt lat="35.138665580" lon="-106.467732220">
        <ele>2217.000</ele>
        <time>2019-11-18T19:27:48Z</time>
      </trkpt>
      <trkpt lat="35.138653390" lon="-106.467687020">
        <ele>2217.000</ele>
        <time>2019-11-18T19:27:53Z</time>
      </trkpt>
      <trkpt lat="35.138645460" lon="-106.467632550">
        <ele>2218.000</ele>
        <time>2019-11-18T19:28:06Z</time>
      </trkpt>
      <trkpt lat="35.138630500" lon="-106.467585480">
        <ele>2218.000</ele>
        <time>2019-11-18T19:28:10Z</time>
      </trkpt>
      <trkpt lat="35.138623310" lon="-106.467540070">
        <ele>2218.000</ele>
        <time>2019-11-18T19:28:13Z</time>
      </trkpt>
      <trkpt lat="35.138646600" lon="-106.467504250">
        <ele>2220.000</ele>
        <time>2019-11-18T19:28:16Z</time>
      </trkpt>
      <trkpt lat="35.138637710" lon="-106.467461120">
        <ele>2221.000</ele>
        <time>2019-11-18T19:28:20Z</time>
      </trkpt>
      <trkpt lat="35.138631590" lon="-106.467416490">
        <ele>2221.000</ele>
        <time>2019-11-18T19:28:27Z</time>
      </trkpt>
      <trkpt lat="35.138636160" lon="-106.467364920">
        <ele>2220.000</ele>
        <time>2019-11-18T19:28:33Z</time>
      </trkpt>
      <trkpt lat="35.138635830" lon="-106.467314150">
        <ele>2219.000</ele>
        <time>2019-11-18T19:28:37Z</time>
      </trkpt>
      <trkpt lat="35.138609880" lon="-106.467264420">
        <ele>2220.000</ele>
        <time>2019-11-18T19:28:41Z</time>
      </trkpt>
      <trkpt lat="35.138582430" lon="-106.467221720">
        <ele>2219.000</ele>
        <time>2019-11-18T19:28:45Z</time>
      </trkpt>
      <trkpt lat="35.138587170" lon="-106.467166570">
        <ele>2219.000</ele>
        <time>2019-11-18T19:28:49Z</time>
      </trkpt>
      <trkpt lat="35.138572720" lon="-106.467122460">
        <ele>2219.000</ele>
        <time>2019-11-18T19:28:52Z</time>
      </trkpt>
      <trkpt lat="35.138547810" lon="-106.467078800">
        <ele>2218.000</ele>
        <time>2019-11-18T19:28:57Z</time>
      </trkpt>
      <trkpt lat="35.138527110" lon="-106.467029020">
        <ele>2219.000</ele>
        <time>2019-11-18T19:29:02Z</time>
      </trkpt>
      <trkpt lat="35.138534640" lon="-106.466970930">
        <ele>2217.000</ele>
        <time>2019-11-18T19:29:05Z</time>
      </trkpt>
      <trkpt lat="35.138545380" lon="-106.466928430">
        <ele>2218.000</ele>
        <time>2019-11-18T19:29:08Z</time>
      </trkpt>
      <trkpt lat="35.138559980" lon="-106.466866240">
        <ele>2218.000</ele>
        <time>2019-11-18T19:29:12Z</time>
      </trkpt>
      <trkpt lat="35.138565490" lon="-106.466812490">
        <ele>2219.000</ele>
        <time>2019-11-18T19:29:15Z</time>
      </trkpt>
      <trkpt lat="35.138549910" lon="-106.466758360">
        <ele>2221.000</ele>
        <time>2019-11-18T19:29:19Z</time>
      </trkpt>
      <trkpt lat="35.138554530" lon="-106.466712490">
        <ele>2221.000</ele>
        <time>2019-11-18T19:29:22Z</time>
      </trkpt>
      <trkpt lat="35.138536740" lon="-106.466670530">
        <ele>2221.000</ele>
        <time>2019-11-18T19:29:25Z</time>
      </trkpt>
      <trkpt lat="35.138516280" lon="-106.466623670">
        <ele>2222.000</ele>
        <time>2019-11-18T19:29:29Z</time>
      </trkpt>
      <trkpt lat="35.138516910" lon="-106.466569110">
        <ele>2222.000</ele>
        <time>2019-11-18T19:29:34Z</time>
      </trkpt>
      <trkpt lat="35.138545170" lon="-106.466530100">
        <ele>2222.000</ele>
        <time>2019-11-18T19:29:39Z</time>
      </trkpt>
      <trkpt lat="35.138573040" lon="-106.466491690">
        <ele>2224.000</ele>
        <time>2019-11-18T19:29:44Z</time>
      </trkpt>
      <trkpt lat="35.138590400" lon="-106.466453100">
        <ele>2225.000</ele>
        <time>2019-11-18T19:29:47Z</time>
      </trkpt>
      <trkpt lat="35.138619670" lon="-106.466420490">
        <ele>2227.000</ele>
        <time>2019-11-18T19:29:51Z</time>
      </trkpt>
      <trkpt lat="35.138637970" lon="-106.466374970">
        <ele>2227.000</ele>
        <time>2019-11-18T19:29:55Z</time>
      </trkpt>
      <trkpt lat="35.138658180" lon="-106.466326860">
        <ele>2227.000</ele>
        <time>2019-11-18T19:29:59Z</time>
      </trkpt>
      <trkpt lat="35.138687730" lon="-106.466294770">
        <ele>2229.000</ele>
        <time>2019-11-18T19:30:03Z</time>
      </trkpt>
      <trkpt lat="35.138708290" lon="-106.466248660">
        <ele>2227.000</ele>
        <time>2019-11-18T19:30:07Z</time>
      </trkpt>
      <trkpt lat="35.138731470" lon="-106.466202340">
        <ele>2229.000</ele>
        <time>2019-11-18T19:30:12Z</time>
      </trkpt>
      <trkpt lat="35.138757310" lon="-106.466161690">
        <ele>2230.000</ele>
        <time>2019-11-18T19:30:16Z</time>
      </trkpt>
      <trkpt lat="35.138769190" lon="-106.466117360">
        <ele>2228.000</ele>
        <time>2019-11-18T19:30:28Z</time>
      </trkpt>
      <trkpt lat="35.138780140" lon="-106.466072810">
        <ele>2229.000</ele>
        <time>2019-11-18T19:30:53Z</time>
      </trkpt>
      <trkpt lat="35.138805530" lon="-106.466040250">
        <ele>2228.000</ele>
        <time>2019-11-18T19:30:57Z</time>
      </trkpt>
      <trkpt lat="35.138829790" lon="-106.466002840">
        <ele>2229.000</ele>
        <time>2019-11-18T19:31:01Z</time>
      </trkpt>
      <trkpt lat="35.138851880" lon="-106.465960650">
        <ele>2231.000</ele>
        <time>2019-11-18T19:31:05Z</time>
      </trkpt>
      <trkpt lat="35.138858000" lon="-106.465909530">
        <ele>2231.000</ele>
        <time>2019-11-18T19:31:09Z</time>
      </trkpt>
      <trkpt lat="35.138869230" lon="-106.465856820">
        <ele>2232.000</ele>
        <time>2019-11-18T19:31:14Z</time>
      </trkpt>
      <trkpt lat="35.138877880" lon="-106.465804300">
        <ele>2231.000</ele>
        <time>2019-11-18T19:31:18Z</time>
      </trkpt>
      <trkpt lat="35.138877130" lon="-106.465759940">
        <ele>2233.000</ele>
        <time>2019-11-18T19:31:22Z</time>
      </trkpt>
      <trkpt lat="35.138897770" lon="-106.465714180">
        <ele>2237.000</ele>
        <time>2019-11-18T19:31:29Z</time>
      </trkpt>
      <trkpt lat="35.138917040" lon="-106.465676570">
        <ele>2236.000</ele>
        <time>2019-11-18T19:31:31Z</time>
      </trkpt>
      <trkpt lat="35.138914870" lon="-106.465631470">
        <ele>2239.000</ele>
        <time>2019-11-18T19:31:38Z</time>
      </trkpt>
      <trkpt lat="35.138896620" lon="-106.465591430">
        <ele>2239.000</ele>
        <time>2019-11-18T19:31:43Z</time>
      </trkpt>
      <trkpt lat="35.138889590" lon="-106.465548330">
        <ele>2239.000</ele>
        <time>2019-11-18T19:31:46Z</time>
      </trkpt>
      <trkpt lat="35.138874910" lon="-106.465499340">
        <ele>2241.000</ele>
        <time>2019-11-18T19:31:51Z</time>
      </trkpt>
      <trkpt lat="35.138843950" lon="-106.465464340">
        <ele>2240.000</ele>
        <time>2019-11-18T19:31:55Z</time>
      </trkpt>
      <trkpt lat="35.138809460" lon="-106.465450110">
        <ele>2240.000</ele>
        <time>2019-11-18T19:32:04Z</time>
      </trkpt>
      <trkpt lat="35.138799460" lon="-106.465397220">
        <ele>2239.000</ele>
        <time>2019-11-18T19:32:46Z</time>
      </trkpt>
      <trkpt lat="35.138811150" lon="-106.465345390">
        <ele>2237.000</ele>
        <time>2019-11-18T19:32:49Z</time>
      </trkpt>
      <trkpt lat="35.138805050" lon="-106.465300990">
        <ele>2238.000</ele>
        <time>2019-11-18T19:32:53Z</time>
      </trkpt>
      <trkpt lat="35.138791810" lon="-106.465249990">
        <ele>2238.000</ele>
        <time>2019-11-18T19:32:57Z</time>
      </trkpt>
      <trkpt lat="35.138825720" lon="-106.465214530">
        <ele>2242.000</ele>
        <time>2019-11-18T19:33:03Z</time>
      </trkpt>
      <trkpt lat="35.138834240" lon="-106.465170470">
        <ele>2243.000</ele>
        <time>2019-11-18T19:33:07Z</time>
      </trkpt>
      <trkpt lat="35.138870190" lon="-106.465161340">
        <ele>2247.000</ele>
        <time>2019-11-18T19:33:18Z</time>
      </trkpt>
      <trkpt lat="35.138896360" lon="-106.465121020">
        <ele>2250.000</ele>
        <time>2019-11-18T19:33:24Z</time>
      </trkpt>
      <trkpt lat="35.138860790" lon="-106.465066380">
        <ele>2249.000</ele>
        <time>2019-11-18T19:33:28Z</time>
      </trkpt>
      <trkpt lat="35.138848910" lon="-106.465022560">
        <ele>2251.000</ele>
        <time>2019-11-18T19:33:33Z</time>
      </trkpt>
      <trkpt lat="35.138822220" lon="-106.464991020">
        <ele>2249.000</ele>
        <time>2019-11-18T19:33:42Z</time>
      </trkpt>
      <trkpt lat="35.138791620" lon="-106.464963050">
        <ele>2251.000</ele>
        <time>2019-11-18T19:33:57Z</time>
      </trkpt>
      <trkpt lat="35.138753280" lon="-106.464941090">
        <ele>2252.000</ele>
        <time>2019-11-18T19:34:02Z</time>
      </trkpt>
      <trkpt lat="35.138717200" lon="-106.464918880">
        <ele>2254.000</ele>
        <time>2019-11-18T19:34:07Z</time>
      </trkpt>
      <trkpt lat="35.138690800" lon="-106.464882390">
        <ele>2256.000</ele>
        <time>2019-11-18T19:34:11Z</time>
      </trkpt>
      <trkpt lat="35.138657780" lon="-106.464862410">
        <ele>2256.000</ele>
        <time>2019-11-18T19:34:15Z</time>
      </trkpt>
      <trkpt lat="35.138621160" lon="-106.464846370">
        <ele>2261.000</ele>
        <time>2019-11-18T19:36:19Z</time>
      </trkpt>
      <trkpt lat="35.138591310" lon="-106.464805220">
        <ele>2259.000</ele>
        <time>2019-11-18T19:36:25Z</time>
      </trkpt>
      <trkpt lat="35.138594010" lon="-106.464752450">
        <ele>2262.000</ele>
        <time>2019-11-18T19:36:31Z</time>
      </trkpt>
      <trkpt lat="35.138593200" lon="-106.464703870">
        <ele>2264.000</ele>
        <time>2019-11-18T19:36:36Z</time>
      </trkpt>
      <trkpt lat="35.138583150" lon="-106.464655910">
        <ele>2266.000</ele>
        <time>2019-11-18T19:36:40Z</time>
      </trkpt>
      <trkpt lat="35.138580940" lon="-106.464608220">
        <ele>2267.000</ele>
        <time>2019-11-18T19:36:44Z</time>
      </trkpt>
      <trkpt lat="35.138543160" lon="-106.464585940">
        <ele>2266.000</ele>
        <time>2019-11-18T19:36:47Z</time>
      </trkpt>
      <trkpt lat="35.138540890" lon="-106.464537080">
        <ele>2268.000</ele>
        <time>2019-11-18T19:36:52Z</time>
      </trkpt>
      <trkpt lat="35.138503040" lon="-106.464503000">
        <ele>2268.000</ele>
        <time>2019-11-18T19:36:56Z</time>
      </trkpt>
      <trkpt lat="35.138502490" lon="-106.464451750">
        <ele>2270.000</ele>
        <time>2019-11-18T19:37:00Z</time>
      </trkpt>
      <trkpt lat="35.138492270" lon="-106.464408430">
        <ele>2270.000</ele>
        <time>2019-11-18T19:37:03Z</time>
      </trkpt>
      <trkpt lat="35.138472760" lon="-106.464370310">
        <ele>2270.000</ele>
        <time>2019-11-18T19:37:06Z</time>
      </trkpt>
      <trkpt lat="35.138456290" lon="-106.464323680">
        <ele>2272.000</ele>
        <time>2019-11-18T19:37:11Z</time>
      </trkpt>
      <trkpt lat="35.138430720" lon="-106.464266770">
        <ele>2270.000</ele>
        <time>2019-11-18T19:37:14Z</time>
      </trkpt>
      <trkpt lat="35.138418610" lon="-106.464220230">
        <ele>2271.000</ele>
        <time>2019-11-18T19:37:18Z</time>
      </trkpt>
      <trkpt lat="35.138395310" lon="-106.464170680">
        <ele>2269.000</ele>
        <time>2019-11-18T19:37:24Z</time>
      </trkpt>
      <trkpt lat="35.138370080" lon="-106.464136840">
        <ele>2270.000</ele>
        <time>2019-11-18T19:37:31Z</time>
      </trkpt>
      <trkpt lat="35.138359600" lon="-106.464090110">
        <ele>2273.000</ele>
        <time>2019-11-18T19:38:21Z</time>
      </trkpt>
      <trkpt lat="35.138330870" lon="-106.464057200">
        <ele>2272.000</ele>
        <time>2019-11-18T19:38:23Z</time>
      </trkpt>
      <trkpt lat="35.138348480" lon="-106.463999930">
        <ele>2273.000</ele>
        <time>2019-11-18T19:38:29Z</time>
      </trkpt>
      <trkpt lat="35.138319490" lon="-106.463968730">
        <ele>2273.000</ele>
        <time>2019-11-18T19:38:32Z</time>
      </trkpt>
      <trkpt lat="35.138311420" lon="-106.463923640">
        <ele>2272.000</ele>
        <time>2019-11-18T19:38:36Z</time>
      </trkpt>
      <trkpt lat="35.138287130" lon="-106.463877960">
        <ele>2270.000</ele>
        <time>2019-11-18T19:38:39Z</time>
      </trkpt>
      <trkpt lat="35.138253350" lon="-106.463839500">
        <ele>2273.000</ele>
        <time>2019-11-18T19:38:45Z</time>
      </trkpt>
      <trkpt lat="35.138246400" lon="-106.463793460">
        <ele>2271.000</ele>
        <time>2019-11-18T19:38:50Z</time>
      </trkpt>
      <trkpt lat="35.138272350" lon="-106.463752770">
        <ele>2274.000</ele>
        <time>2019-11-18T19:38:55Z</time>
      </trkpt>
      <trkpt lat="35.138289070" lon="-106.463707420">
        <ele>2276.000</ele>
        <time>2019-11-18T19:38:59Z</time>
      </trkpt>
      <trkpt lat="35.138286630" lon="-106.463649630">
        <ele>2277.000</ele>
        <time>2019-11-18T19:39:03Z</time>
      </trkpt>
      <trkpt lat="35.138254980" lon="-106.463618580">
        <ele>2275.000</ele>
        <time>2019-11-18T19:39:06Z</time>
      </trkpt>
      <trkpt lat="35.138226080" lon="-106.463591630">
        <ele>2276.000</ele>
        <time>2019-11-18T19:39:09Z</time>
      </trkpt>
      <trkpt lat="35.138225060" lon="-106.463539380">
        <ele>2277.000</ele>
        <time>2019-11-18T19:39:13Z</time>
      </trkpt>
      <trkpt lat="35.138212360" lon="-106.463486890">
        <ele>2280.000</ele>
        <time>2019-11-18T19:39:18Z</time>
      </trkpt>
      <trkpt lat="35.138218460" lon="-106.463434580">
        <ele>2277.000</ele>
        <time>2019-11-18T19:39:20Z</time>
      </trkpt>
      <trkpt lat="35.138219300" lon="-106.463385980">
        <ele>2277.000</ele>
        <time>2019-11-18T19:39:24Z</time>
      </trkpt>
      <trkpt lat="35.138243760" lon="-106.463345620">
        <ele>2279.000</ele>
        <time>2019-11-18T19:39:30Z</time>
      </trkpt>
      <trkpt lat="35.138285020" lon="-106.463363260">
        <ele>2281.000</ele>
        <time>2019-11-18T19:39:35Z</time>
      </trkpt>
      <trkpt lat="35.138291650" lon="-106.463424710">
        <ele>2280.000</ele>
        <time>2019-11-18T19:39:40Z</time>
      </trkpt>
      <trkpt lat="35.138290930" lon="-106.463380300">
        <ele>2280.000</ele>
        <time>2019-11-18T19:40:16Z</time>
      </trkpt>
      <trkpt lat="35.138309350" lon="-106.463327340">
        <ele>2282.000</ele>
        <time>2019-11-18T19:40:21Z</time>
      </trkpt>
      <trkpt lat="35.138331200" lon="-106.463280910">
        <ele>2282.000</ele>
        <time>2019-11-18T19:40:25Z</time>
      </trkpt>
      <trkpt lat="35.138347180" lon="-106.463233890">
        <ele>2283.000</ele>
        <time>2019-11-18T19:40:30Z</time>
      </trkpt>
      <trkpt lat="35.138353100" lon="-106.463189030">
        <ele>2283.000</ele>
        <time>2019-11-18T19:40:34Z</time>
      </trkpt>
      <trkpt lat="35.138336420" lon="-106.463146440">
        <ele>2283.000</ele>
        <time>2019-11-18T19:40:37Z</time>
      </trkpt>
      <trkpt lat="35.138321680" lon="-106.463103930">
        <ele>2282.000</ele>
        <time>2019-11-18T19:40:40Z</time>
      </trkpt>
      <trkpt lat="35.138292460" lon="-106.463070200">
        <ele>2283.000</ele>
        <time>2019-11-18T19:40:44Z</time>
      </trkpt>
      <trkpt lat="35.138272010" lon="-106.463032760">
        <ele>2283.000</ele>
        <time>2019-11-18T19:40:47Z</time>
      </trkpt>
      <trkpt lat="35.138256810" lon="-106.462991490">
        <ele>2283.000</ele>
        <time>2019-11-18T19:40:50Z</time>
      </trkpt>
      <trkpt lat="35.138234010" lon="-106.462951000">
        <ele>2282.000</ele>
        <time>2019-11-18T19:40:54Z</time>
      </trkpt>
      <trkpt lat="35.138182610" lon="-106.462934260">
        <ele>2282.000</ele>
        <time>2019-11-18T19:40:58Z</time>
      </trkpt>
      <trkpt lat="35.138159160" lon="-106.462899990">
        <ele>2281.000</ele>
        <time>2019-11-18T19:41:01Z</time>
      </trkpt>
      <trkpt lat="35.138142790" lon="-106.462856540">
        <ele>2280.000</ele>
        <time>2019-11-18T19:41:04Z</time>
      </trkpt>
      <trkpt lat="35.138133860" lon="-106.462812340">
        <ele>2280.000</ele>
        <time>2019-11-18T19:41:08Z</time>
      </trkpt>
      <trkpt lat="35.138132280" lon="-106.462760670">
        <ele>2279.000</ele>
        <time>2019-11-18T19:41:11Z</time>
      </trkpt>
      <trkpt lat="35.138114970" lon="-106.462716780">
        <ele>2278.000</ele>
        <time>2019-11-18T19:41:14Z</time>
      </trkpt>
      <trkpt lat="35.138095200" lon="-106.462676610">
        <ele>2278.000</ele>
        <time>2019-11-18T19:41:18Z</time>
      </trkpt>
      <trkpt lat="35.138076290" lon="-106.462634450">
        <ele>2280.000</ele>
        <time>2019-11-18T19:41:23Z</time>
      </trkpt>
      <trkpt lat="35.138098530" lon="-106.462582900">
        <ele>2282.000</ele>
        <time>2019-11-18T19:41:29Z</time>
      </trkpt>
      <trkpt lat="35.138093920" lon="-106.462536730">
        <ele>2283.000</ele>
        <time>2019-11-18T19:41:32Z</time>
      </trkpt>
      <trkpt lat="35.138113640" lon="-106.462487490">
        <ele>2280.000</ele>
        <time>2019-11-18T19:41:35Z</time>
      </trkpt>
      <trkpt lat="35.138139000" lon="-106.462453170">
        <ele>2281.000</ele>
        <time>2019-11-18T19:41:38Z</time>
      </trkpt>
      <trkpt lat="35.138133500" lon="-106.462394070">
        <ele>2282.000</ele>
        <time>2019-11-18T19:41:41Z</time>
      </trkpt>
      <trkpt lat="35.138136320" lon="-106.462346920">
        <ele>2281.000</ele>
        <time>2019-11-18T19:41:44Z</time>
      </trkpt>
      <trkpt lat="35.138087630" lon="-106.462349790">
        <ele>2280.000</ele>
        <time>2019-11-18T19:41:52Z</time>
      </trkpt>
      <trkpt lat="35.138035720" lon="-106.462378130">
        <ele>2279.000</ele>
        <time>2019-11-18T19:41:58Z</time>
      </trkpt>
      <trkpt lat="35.137996470" lon="-106.462387920">
        <ele>2281.000</ele>
        <time>2019-11-18T19:42:03Z</time>
      </trkpt>
      <trkpt lat="35.137972220" lon="-106.462423250">
        <ele>2283.000</ele>
        <time>2019-11-18T19:42:07Z</time>
      </trkpt>
      <trkpt lat="35.137965560" lon="-106.462466600">
        <ele>2282.000</ele>
        <time>2019-11-18T19:42:11Z</time>
      </trkpt>
      <trkpt lat="35.137968560" lon="-106.462523590">
        <ele>2284.000</ele>
        <time>2019-11-18T19:42:17Z</time>
      </trkpt>
      <trkpt lat="35.137963410" lon="-106.462570300">
        <ele>2283.000</ele>
        <time>2019-11-18T19:42:21Z</time>
      </trkpt>
      <trkpt lat="35.137942820" lon="-106.462615230">
        <ele>2283.000</ele>
        <time>2019-11-18T19:42:24Z</time>
      </trkpt>
      <trkpt lat="35.137977860" lon="-106.462583840">
        <ele>2281.000</ele>
        <time>2019-11-18T19:42:42Z</time>
      </trkpt>
      <trkpt lat="35.137983070" lon="-106.462540350">
        <ele>2280.000</ele>
        <time>2019-11-18T19:42:46Z</time>
      </trkpt>
      <trkpt lat="35.137993120" lon="-106.462489810">
        <ele>2281.000</ele>
        <time>2019-11-18T19:42:50Z</time>
      </trkpt>
      <trkpt lat="35.137964720" lon="-106.462435670">
        <ele>2280.000</ele>
        <time>2019-11-18T19:42:55Z</time>
      </trkpt>
      <trkpt lat="35.137947800" lon="-106.462395010">
        <ele>2279.000</ele>
        <time>2019-11-18T19:42:59Z</time>
      </trkpt>
      <trkpt lat="35.137934300" lon="-106.462351950">
        <ele>2280.000</ele>
        <time>2019-11-18T19:43:02Z</time>
      </trkpt>
      <trkpt lat="35.137920830" lon="-106.462310410">
        <ele>2277.000</ele>
        <time>2019-11-18T19:43:06Z</time>
      </trkpt>
      <trkpt lat="35.137894050" lon="-106.462268890">
        <ele>2275.000</ele>
        <time>2019-11-18T19:43:09Z</time>
      </trkpt>
      <trkpt lat="35.137868530" lon="-106.462221830">
        <ele>2273.000</ele>
        <time>2019-11-18T19:43:13Z</time>
      </trkpt>
      <trkpt lat="35.137836730" lon="-106.462180490">
        <ele>2273.000</ele>
        <time>2019-11-18T19:43:18Z</time>
      </trkpt>
      <trkpt lat="35.137794990" lon="-106.462173600">
        <ele>2272.000</ele>
        <time>2019-11-18T19:43:21Z</time>
      </trkpt>
      <trkpt lat="35.137751080" lon="-106.462156400">
        <ele>2273.000</ele>
        <time>2019-11-18T19:43:25Z</time>
      </trkpt>
      <trkpt lat="35.137712370" lon="-106.462133040">
        <ele>2276.000</ele>
        <time>2019-11-18T19:43:31Z</time>
      </trkpt>
      <trkpt lat="35.137682470" lon="-106.462104520">
        <ele>2277.000</ele>
        <time>2019-11-18T19:43:34Z</time>
      </trkpt>
      <trkpt lat="35.137655670" lon="-106.462074290">
        <ele>2275.000</ele>
        <time>2019-11-18T19:43:37Z</time>
      </trkpt>
      <trkpt lat="35.137636760" lon="-106.462030540">
        <ele>2276.000</ele>
        <time>2019-11-18T19:43:42Z</time>
      </trkpt>
      <trkpt lat="35.137602160" lon="-106.461998870">
        <ele>2276.000</ele>
        <time>2019-11-18T19:43:46Z</time>
      </trkpt>
      <trkpt lat="35.137584750" lon="-106.461958840">
        <ele>2274.000</ele>
        <time>2019-11-18T19:43:49Z</time>
      </trkpt>
      <trkpt lat="35.137541450" lon="-106.461954540">
        <ele>2275.000</ele>
        <time>2019-11-18T19:43:53Z</time>
      </trkpt>
      <trkpt lat="35.137542400" lon="-106.461908690">
        <ele>2278.000</ele>
        <time>2019-11-18T19:43:57Z</time>
      </trkpt>
      <trkpt lat="35.137515720" lon="-106.461877980">
        <ele>2278.000</ele>
        <time>2019-11-18T19:43:59Z</time>
      </trkpt>
      <trkpt lat="35.137492080" lon="-106.461844490">
        <ele>2276.000</ele>
        <time>2019-11-18T19:44:02Z</time>
      </trkpt>
      <trkpt lat="35.137464400" lon="-106.461816040">
        <ele>2277.000</ele>
        <time>2019-11-18T19:44:06Z</time>
      </trkpt>
      <trkpt lat="35.137434310" lon="-106.461783260">
        <ele>2277.000</ele>
        <time>2019-11-18T19:44:11Z</time>
      </trkpt>
      <trkpt lat="35.137385800" lon="-106.461773560">
        <ele>2275.000</ele>
        <time>2019-11-18T19:44:15Z</time>
      </trkpt>
      <trkpt lat="35.137351880" lon="-106.461736160">
        <ele>2274.000</ele>
        <time>2019-11-18T19:44:18Z</time>
      </trkpt>
      <trkpt lat="35.137317010" lon="-106.461702500">
        <ele>2273.000</ele>
        <time>2019-11-18T19:44:22Z</time>
      </trkpt>
      <trkpt lat="35.137282010" lon="-106.461665600">
        <ele>2272.000</ele>
        <time>2019-11-18T19:44:25Z</time>
      </trkpt>
      <trkpt lat="35.137257010" lon="-106.461633650">
        <ele>2269.000</ele>
        <time>2019-11-18T19:44:28Z</time>
      </trkpt>
      <trkpt lat="35.137233360" lon="-106.461592240">
        <ele>2271.000</ele>
        <time>2019-11-18T19:44:33Z</time>
      </trkpt>
      <trkpt lat="35.137202880" lon="-106.461555040">
        <ele>2276.000</ele>
        <time>2019-11-18T19:44:39Z</time>
      </trkpt>
      <trkpt lat="35.137172370" lon="-106.461524150">
        <ele>2273.000</ele>
        <time>2019-11-18T19:44:42Z</time>
      </trkpt>
      <trkpt lat="35.137148190" lon="-106.461484340">
        <ele>2275.000</ele>
        <time>2019-11-18T19:44:48Z</time>
      </trkpt>
      <trkpt lat="35.137129080" lon="-106.461440030">
        <ele>2275.000</ele>
        <time>2019-11-18T19:44:54Z</time>
      </trkpt>
      <trkpt lat="35.137111390" lon="-106.461393910">
        <ele>2277.000</ele>
        <time>2019-11-18T19:44:59Z</time>
      </trkpt>
      <trkpt lat="35.137091190" lon="-106.461354530">
        <ele>2277.000</ele>
        <time>2019-11-18T19:45:04Z</time>
      </trkpt>
      <trkpt lat="35.137099470" lon="-106.461311730">
        <ele>2280.000</ele>
        <time>2019-11-18T19:45:20Z</time>
      </trkpt>
      <trkpt lat="35.137070630" lon="-106.461270620">
        <ele>2278.000</ele>
        <time>2019-11-18T19:45:23Z</time>
      </trkpt>
      <trkpt lat="35.137056960" lon="-106.461227570">
        <ele>2281.000</ele>
        <time>2019-11-18T19:45:31Z</time>
      </trkpt>
      <trkpt lat="35.137020870" lon="-106.461197170">
        <ele>2281.000</ele>
        <time>2019-11-18T19:45:36Z</time>
      </trkpt>
      <trkpt lat="35.136985670" lon="-106.461175960">
        <ele>2283.000</ele>
        <time>2019-11-18T19:45:44Z</time>
      </trkpt>
      <trkpt lat="35.136953330" lon="-106.461150010">
        <ele>2282.000</ele>
        <time>2019-11-18T19:45:52Z</time>
      </trkpt>
      <trkpt lat="35.136931100" lon="-106.461113040">
        <ele>2283.000</ele>
        <time>2019-11-18T19:46:03Z</time>
      </trkpt>
      <trkpt lat="35.136902590" lon="-106.461073860">
        <ele>2283.000</ele>
        <time>2019-11-18T19:46:16Z</time>
      </trkpt>
      <trkpt lat="35.136874370" lon="-106.461044570">
        <ele>2283.000</ele>
        <time>2019-11-18T19:46:19Z</time>
      </trkpt>
      <trkpt lat="35.136828100" lon="-106.461044870">
        <ele>2282.000</ele>
        <time>2019-11-18T19:46:25Z</time>
      </trkpt>
      <trkpt lat="35.136793500" lon="-106.461019850">
        <ele>2282.000</ele>
        <time>2019-11-18T19:46:28Z</time>
      </trkpt>
      <trkpt lat="35.136788710" lon="-106.460974770">
        <ele>2281.000</ele>
        <time>2019-11-18T19:46:33Z</time>
      </trkpt>
      <trkpt lat="35.136751740" lon="-106.460947010">
        <ele>2284.000</ele>
        <time>2019-11-18T19:46:46Z</time>
      </trkpt>
      <trkpt lat="35.136724660" lon="-106.460917020">
        <ele>2282.000</ele>
        <time>2019-11-18T19:46:49Z</time>
      </trkpt>
      <trkpt lat="35.136688680" lon="-106.460902660">
        <ele>2282.000</ele>
        <time>2019-11-18T19:46:54Z</time>
      </trkpt>
      <trkpt lat="35.136650920" lon="-106.460893620">
        <ele>2288.000</ele>
        <time>2019-11-18T19:47:03Z</time>
      </trkpt>
      <trkpt lat="35.136613520" lon="-106.460902090">
        <ele>2289.000</ele>
        <time>2019-11-18T19:47:06Z</time>
      </trkpt>
      <trkpt lat="35.136571480" lon="-106.460893620">
        <ele>2291.000</ele>
        <time>2019-11-18T19:47:09Z</time>
      </trkpt>
      <trkpt lat="35.136536250" lon="-106.460873580">
        <ele>2291.000</ele>
        <time>2019-11-18T19:47:26Z</time>
      </trkpt>
      <trkpt lat="35.136503060" lon="-106.460855440">
        <ele>2293.000</ele>
        <time>2019-11-18T19:47:30Z</time>
      </trkpt>
      <trkpt lat="35.136469560" lon="-106.460837140">
        <ele>2292.000</ele>
        <time>2019-11-18T19:47:35Z</time>
      </trkpt>
      <trkpt lat="35.136430500" lon="-106.460827100">
        <ele>2291.000</ele>
        <time>2019-11-18T19:47:42Z</time>
      </trkpt>
      <trkpt lat="35.136395640" lon="-106.460805380">
        <ele>2290.000</ele>
        <time>2019-11-18T19:47:48Z</time>
      </trkpt>
      <trkpt lat="35.136360000" lon="-106.460830920">
        <ele>2296.000</ele>
        <time>2019-11-18T19:47:55Z</time>
      </trkpt>
      <trkpt lat="35.136316140" lon="-106.460817210">
        <ele>2298.000</ele>
        <time>2019-11-18T19:48:02Z</time>
      </trkpt>
      <trkpt lat="35.136290490" lon="-106.460783690">
        <ele>2300.000</ele>
        <time>2019-11-18T19:48:16Z</time>
      </trkpt>
      <trkpt lat="35.136272620" lon="-106.460737800">
        <ele>2299.000</ele>
        <time>2019-11-18T19:48:20Z</time>
      </trkpt>
      <trkpt lat="35.136235710" lon="-106.460729820">
        <ele>2302.000</ele>
        <time>2019-11-18T19:48:26Z</time>
      </trkpt>
      <trkpt lat="35.136199360" lon="-106.460689480">
        <ele>2299.000</ele>
        <time>2019-11-18T19:48:30Z</time>
      </trkpt>
      <trkpt lat="35.136168650" lon="-106.460650040">
        <ele>2301.000</ele>
        <time>2019-11-18T19:48:34Z</time>
      </trkpt>
      <trkpt lat="35.136142760" lon="-106.460614680">
        <ele>2302.000</ele>
        <time>2019-11-18T19:48:39Z</time>
      </trkpt>
      <trkpt lat="35.136101330" lon="-106.460596100">
        <ele>2302.000</ele>
        <time>2019-11-18T19:48:42Z</time>
      </trkpt>
      <trkpt lat="35.136065150" lon="-106.460569400">
        <ele>2302.000</ele>
        <time>2019-11-18T19:48:46Z</time>
      </trkpt>
      <trkpt lat="35.136036320" lon="-106.460536890">
        <ele>2305.000</ele>
        <time>2019-11-18T19:48:50Z</time>
      </trkpt>
      <trkpt lat="35.136002250" lon="-106.460522020">
        <ele>2309.000</ele>
        <time>2019-11-18T19:48:54Z</time>
      </trkpt>
      <trkpt lat="35.135969340" lon="-106.460496780">
        <ele>2313.000</ele>
        <time>2019-11-18T19:48:59Z</time>
      </trkpt>
      <trkpt lat="35.135949630" lon="-106.460447900">
        <ele>2310.000</ele>
        <time>2019-11-18T19:49:03Z</time>
      </trkpt>
      <trkpt lat="35.135915280" lon="-106.460426010">
        <ele>2309.000</ele>
        <time>2019-11-18T19:49:14Z</time>
      </trkpt>
      <trkpt lat="35.135871940" lon="-106.460408650">
        <ele>2309.000</ele>
        <time>2019-11-18T19:49:20Z</time>
      </trkpt>
      <trkpt lat="35.135834600" lon="-106.460391320">
        <ele>2309.000</ele>
        <time>2019-11-18T19:49:24Z</time>
      </trkpt>
      <trkpt lat="35.135821860" lon="-106.460349280">
        <ele>2308.000</ele>
        <time>2019-11-18T19:49:31Z</time>
      </trkpt>
      <trkpt lat="35.135815650" lon="-106.460305090">
        <ele>2308.000</ele>
        <time>2019-11-18T19:49:36Z</time>
      </trkpt>
      <trkpt lat="35.135787660" lon="-106.460262160">
        <ele>2309.000</ele>
        <time>2019-11-18T19:49:41Z</time>
      </trkpt>
      <trkpt lat="35.135757220" lon="-106.460229250">
        <ele>2309.000</ele>
        <time>2019-11-18T19:49:45Z</time>
      </trkpt>
      <trkpt lat="35.135784580" lon="-106.460198330">
        <ele>2307.000</ele>
        <time>2019-11-18T19:49:47Z</time>
      </trkpt>
      <trkpt lat="35.135768680" lon="-106.460149720">
        <ele>2308.000</ele>
        <time>2019-11-18T19:49:52Z</time>
      </trkpt>
      <trkpt lat="35.135788120" lon="-106.460109670">
        <ele>2307.000</ele>
        <time>2019-11-18T19:49:56Z</time>
      </trkpt>
      <trkpt lat="35.135790840" lon="-106.460051920">
        <ele>2306.000</ele>
        <time>2019-11-18T19:50:01Z</time>
      </trkpt>
      <trkpt lat="35.135768950" lon="-106.460003350">
        <ele>2304.000</ele>
        <time>2019-11-18T19:50:05Z</time>
      </trkpt>
      <trkpt lat="35.135746460" lon="-106.459959330">
        <ele>2305.000</ele>
        <time>2019-11-18T19:50:11Z</time>
      </trkpt>
      <trkpt lat="35.135718640" lon="-106.459922770">
        <ele>2302.000</ele>
        <time>2019-11-18T19:50:15Z</time>
      </trkpt>
      <trkpt lat="35.135673450" lon="-106.459901970">
        <ele>2303.000</ele>
        <time>2019-11-18T19:50:19Z</time>
      </trkpt>
      <trkpt lat="35.135650360" lon="-106.459863940">
        <ele>2302.000</ele>
        <time>2019-11-18T19:50:22Z</time>
      </trkpt>
      <trkpt lat="35.135626500" lon="-106.459830920">
        <ele>2299.000</ele>
        <time>2019-11-18T19:50:27Z</time>
      </trkpt>
      <trkpt lat="35.135578550" lon="-106.459807640">
        <ele>2301.000</ele>
        <time>2019-11-18T19:50:31Z</time>
      </trkpt>
      <trkpt lat="35.135541710" lon="-106.459802600">
        <ele>2300.000</ele>
        <time>2019-11-18T19:50:34Z</time>
      </trkpt>
      <trkpt lat="35.135510410" lon="-106.459774470">
        <ele>2302.000</ele>
        <time>2019-11-18T19:50:37Z</time>
      </trkpt>
      <trkpt lat="35.135482550" lon="-106.459739940">
        <ele>2302.000</ele>
        <time>2019-11-18T19:50:41Z</time>
      </trkpt>
      <trkpt lat="35.135443460" lon="-106.459712680">
        <ele>2297.000</ele>
        <time>2019-11-18T19:50:50Z</time>
      </trkpt>
      <trkpt lat="35.135415580" lon="-106.459682870">
        <ele>2300.000</ele>
        <time>2019-11-18T19:50:59Z</time>
      </trkpt>
      <trkpt lat="35.135401890" lon="-106.459642170">
        <ele>2301.000</ele>
        <time>2019-11-18T19:51:05Z</time>
      </trkpt>
      <trkpt lat="35.135363940" lon="-106.459640710">
        <ele>2303.000</ele>
        <time>2019-11-18T19:51:08Z</time>
      </trkpt>
      <trkpt lat="35.135351470" lon="-106.459598810">
        <ele>2299.000</ele>
        <time>2019-11-18T19:51:14Z</time>
      </trkpt>
      <trkpt lat="35.135332790" lon="-106.459553320">
        <ele>2298.000</ele>
        <time>2019-11-18T19:51:19Z</time>
      </trkpt>
      <trkpt lat="35.135303030" lon="-106.459519590">
        <ele>2297.000</ele>
        <time>2019-11-18T19:51:25Z</time>
      </trkpt>
      <trkpt lat="35.135262770" lon="-106.459520450">
        <ele>2297.000</ele>
        <time>2019-11-18T19:51:29Z</time>
      </trkpt>
      <trkpt lat="35.135240550" lon="-106.459485740">
        <ele>2295.000</ele>
        <time>2019-11-18T19:51:34Z</time>
      </trkpt>
      <trkpt lat="35.135222390" lon="-106.459440820">
        <ele>2292.000</ele>
        <time>2019-11-18T19:51:41Z</time>
      </trkpt>
      <trkpt lat="35.135199210" lon="-106.459402400">
        <ele>2287.000</ele>
        <time>2019-11-18T19:51:48Z</time>
      </trkpt>
      <trkpt lat="35.135176750" lon="-106.459365440">
        <ele>2288.000</ele>
        <time>2019-11-18T19:51:58Z</time>
      </trkpt>
      <trkpt lat="35.135160770" lon="-106.459323930">
        <ele>2287.000</ele>
        <time>2019-11-18T19:52:08Z</time>
      </trkpt>
      <trkpt lat="35.135126170" lon="-106.459298580">
        <ele>2285.000</ele>
        <time>2019-11-18T19:52:13Z</time>
      </trkpt>
      <trkpt lat="35.135098380" lon="-106.459252800">
        <ele>2285.000</ele>
        <time>2019-11-18T19:52:22Z</time>
      </trkpt>
      <trkpt lat="35.135052060" lon="-106.459232470">
        <ele>2280.000</ele>
        <time>2019-11-18T19:52:33Z</time>
      </trkpt>
      <trkpt lat="35.135034240" lon="-106.459184840">
        <ele>2282.000</ele>
        <time>2019-11-18T19:52:38Z</time>
      </trkpt>
      <trkpt lat="35.135019730" lon="-106.459139860">
        <ele>2282.000</ele>
        <time>2019-11-18T19:52:45Z</time>
      </trkpt>
      <trkpt lat="35.135015530" lon="-106.459094710">
        <ele>2281.000</ele>
        <time>2019-11-18T19:52:50Z</time>
      </trkpt>
      <trkpt lat="35.134978440" lon="-106.459102670">
        <ele>2281.000</ele>
        <time>2019-11-18T19:53:04Z</time>
      </trkpt>
      <trkpt lat="35.134961740" lon="-106.459062250">
        <ele>2280.000</ele>
        <time>2019-11-18T19:53:21Z</time>
      </trkpt>
      <trkpt lat="35.134980740" lon="-106.459017110">
        <ele>2280.000</ele>
        <time>2019-11-18T19:53:27Z</time>
      </trkpt>
      <trkpt lat="35.134965970" lon="-106.458972330">
        <ele>2275.000</ele>
        <time>2019-11-18T19:53:44Z</time>
      </trkpt>
      <trkpt lat="35.134929000" lon="-106.458953870">
        <ele>2278.000</ele>
        <time>2019-11-18T19:53:49Z</time>
      </trkpt>
      <trkpt lat="35.134899090" lon="-106.458913350">
        <ele>2276.000</ele>
        <time>2019-11-18T19:54:07Z</time>
      </trkpt>
      <trkpt lat="35.134867840" lon="-106.458888790">
        <ele>2276.000</ele>
        <time>2019-11-18T19:54:09Z</time>
      </trkpt>
      <trkpt lat="35.134825130" lon="-106.458878330">
        <ele>2274.000</ele>
        <time>2019-11-18T19:54:13Z</time>
      </trkpt>
      <trkpt lat="35.134783850" lon="-106.458895270">
        <ele>2273.000</ele>
        <time>2019-11-18T19:54:17Z</time>
      </trkpt>
      <trkpt lat="35.134750780" lon="-106.458861170">
        <ele>2274.000</ele>
        <time>2019-11-18T19:54:22Z</time>
      </trkpt>
      <trkpt lat="35.134716870" lon="-106.458844230">
        <ele>2274.000</ele>
        <time>2019-11-18T19:54:27Z</time>
      </trkpt>
      <trkpt lat="35.134676470" lon="-106.458850910">
        <ele>2274.000</ele>
        <time>2019-11-18T19:54:32Z</time>
      </trkpt>
      <trkpt lat="35.134649780" lon="-106.458815630">
        <ele>2270.000</ele>
        <time>2019-11-18T19:54:39Z</time>
      </trkpt>
      <trkpt lat="35.134609410" lon="-106.458804800">
        <ele>2268.000</ele>
        <time>2019-11-18T19:54:43Z</time>
      </trkpt>
      <trkpt lat="35.134563760" lon="-106.458794630">
        <ele>2267.000</ele>
        <time>2019-11-18T19:54:48Z</time>
      </trkpt>
      <trkpt lat="35.134524850" lon="-106.458778470">
        <ele>2267.000</ele>
        <time>2019-11-18T19:54:51Z</time>
      </trkpt>
      <trkpt lat="35.134481850" lon="-106.458771820">
        <ele>2268.000</ele>
        <time>2019-11-18T19:54:55Z</time>
      </trkpt>
      <trkpt lat="35.134446610" lon="-106.458754050">
        <ele>2269.000</ele>
        <time>2019-11-18T19:54:59Z</time>
      </trkpt>
      <trkpt lat="35.134410170" lon="-106.458754670">
        <ele>2269.000</ele>
        <time>2019-11-18T19:55:02Z</time>
      </trkpt>
      <trkpt lat="35.134372870" lon="-106.458741560">
        <ele>2270.000</ele>
        <time>2019-11-18T19:55:09Z</time>
      </trkpt>
      <trkpt lat="35.134341480" lon="-106.458718990">
        <ele>2271.000</ele>
        <time>2019-11-18T19:55:13Z</time>
      </trkpt>
      <trkpt lat="35.134304600" lon="-106.458728310">
        <ele>2269.000</ele>
        <time>2019-11-18T19:55:16Z</time>
      </trkpt>
      <trkpt lat="35.134269620" lon="-106.458741810">
        <ele>2266.000</ele>
        <time>2019-11-18T19:55:19Z</time>
      </trkpt>
      <trkpt lat="35.134234220" lon="-106.458773400">
        <ele>2263.000</ele>
        <time>2019-11-18T19:55:25Z</time>
      </trkpt>
      <trkpt lat="35.134193360" lon="-106.458775480">
        <ele>2264.000</ele>
        <time>2019-11-18T19:55:31Z</time>
      </trkpt>
      <trkpt lat="35.134159060" lon="-106.458799360">
        <ele>2263.000</ele>
        <time>2019-11-18T19:55:35Z</time>
      </trkpt>
      <trkpt lat="35.134129750" lon="-106.458846380">
        <ele>2261.000</ele>
        <time>2019-11-18T19:55:39Z</time>
      </trkpt>
      <trkpt lat="35.134090640" lon="-106.458842060">
        <ele>2264.000</ele>
        <time>2019-11-18T19:55:54Z</time>
      </trkpt>
      <trkpt lat="35.134056270" lon="-106.458859400">
        <ele>2261.000</ele>
        <time>2019-11-18T19:55:59Z</time>
      </trkpt>
      <trkpt lat="35.134029380" lon="-106.458902620">
        <ele>2260.000</ele>
        <time>2019-11-18T19:56:04Z</time>
      </trkpt>
      <trkpt lat="35.133997660" lon="-106.458940890">
        <ele>2259.000</ele>
        <time>2019-11-18T19:56:14Z</time>
      </trkpt>
      <trkpt lat="35.133978540" lon="-106.458987290">
        <ele>2259.000</ele>
        <time>2019-11-18T19:56:19Z</time>
      </trkpt>
      <trkpt lat="35.133963350" lon="-106.459029580">
        <ele>2259.000</ele>
        <time>2019-11-18T19:56:23Z</time>
      </trkpt>
      <trkpt lat="35.133929000" lon="-106.459043650">
        <ele>2258.000</ele>
        <time>2019-11-18T19:56:27Z</time>
      </trkpt>
      <trkpt lat="35.133892670" lon="-106.459075600">
        <ele>2258.000</ele>
        <time>2019-11-18T19:56:31Z</time>
      </trkpt>
      <trkpt lat="35.133873360" lon="-106.459128920">
        <ele>2257.000</ele>
        <time>2019-11-18T19:56:35Z</time>
      </trkpt>
      <trkpt lat="35.133833130" lon="-106.459143610">
        <ele>2259.000</ele>
        <time>2019-11-18T19:56:39Z</time>
      </trkpt>
      <trkpt lat="35.133805710" lon="-106.459183040">
        <ele>2258.000</ele>
        <time>2019-11-18T19:56:44Z</time>
      </trkpt>
      <trkpt lat="35.133766770" lon="-106.459187530">
        <ele>2256.000</ele>
        <time>2019-11-18T19:56:50Z</time>
      </trkpt>
      <trkpt lat="35.133738040" lon="-106.459218840">
        <ele>2252.000</ele>
        <time>2019-11-18T19:56:54Z</time>
      </trkpt>
      <trkpt lat="35.133700200" lon="-106.459221000">
        <ele>2249.000</ele>
        <time>2019-11-18T19:56:59Z</time>
      </trkpt>
      <trkpt lat="35.133652990" lon="-106.459220560">
        <ele>2252.000</ele>
        <time>2019-11-18T19:57:07Z</time>
      </trkpt>
      <trkpt lat="35.133617380" lon="-106.459246440">
        <ele>2250.000</ele>
        <time>2019-11-18T19:57:15Z</time>
      </trkpt>
      <trkpt lat="35.133592630" lon="-106.459280870">
        <ele>2251.000</ele>
        <time>2019-11-18T19:57:37Z</time>
      </trkpt>
      <trkpt lat="35.133574400" lon="-106.459328390">
        <ele>2250.000</ele>
        <time>2019-11-18T19:58:05Z</time>
      </trkpt>
      <trkpt lat="35.133557680" lon="-106.459369340">
        <ele>2252.000</ele>
        <time>2019-11-18T19:58:12Z</time>
      </trkpt>
      <trkpt lat="35.133516820" lon="-106.459364950">
        <ele>2255.000</ele>
        <time>2019-11-18T19:58:17Z</time>
      </trkpt>
      <trkpt lat="35.133484020" lon="-106.459392870">
        <ele>2256.000</ele>
        <time>2019-11-18T19:58:21Z</time>
      </trkpt>
      <trkpt lat="35.133443570" lon="-106.459414730">
        <ele>2258.000</ele>
        <time>2019-11-18T19:58:26Z</time>
      </trkpt>
      <trkpt lat="35.133415760" lon="-106.459451350">
        <ele>2258.000</ele>
        <time>2019-11-18T19:58:30Z</time>
      </trkpt>
      <trkpt lat="35.133393200" lon="-106.459489090">
        <ele>2260.000</ele>
        <time>2019-11-18T19:58:34Z</time>
      </trkpt>
      <trkpt lat="35.133367740" lon="-106.459535970">
        <ele>2259.000</ele>
        <time>2019-11-18T19:58:37Z</time>
      </trkpt>
      <trkpt lat="35.133335740" lon="-106.459558200">
        <ele>2260.000</ele>
        <time>2019-11-18T19:58:41Z</time>
      </trkpt>
      <trkpt lat="35.133320000" lon="-106.459617480">
        <ele>2259.000</ele>
        <time>2019-11-18T19:58:45Z</time>
      </trkpt>
      <trkpt lat="35.133303270" lon="-106.459656800">
        <ele>2258.000</ele>
        <time>2019-11-18T19:58:48Z</time>
      </trkpt>
      <trkpt lat="35.133296410" lon="-106.459707310">
        <ele>2257.000</ele>
        <time>2019-11-18T19:58:51Z</time>
      </trkpt>
      <trkpt lat="35.133273300" lon="-106.459741830">
        <ele>2256.000</ele>
        <time>2019-11-18T19:58:54Z</time>
      </trkpt>
      <trkpt lat="35.133267550" lon="-106.459791600">
        <ele>2256.000</ele>
        <time>2019-11-18T19:59:05Z</time>
      </trkpt>
      <trkpt lat="35.133255000" lon="-106.459835200">
        <ele>2258.000</ele>
        <time>2019-11-18T19:59:08Z</time>
      </trkpt>
      <trkpt lat="35.133256950" lon="-106.459884720">
        <ele>2258.000</ele>
        <time>2019-11-18T19:59:12Z</time>
      </trkpt>
      <trkpt lat="35.133245730" lon="-106.459930070">
        <ele>2261.000</ele>
        <time>2019-11-18T19:59:17Z</time>
      </trkpt>
      <trkpt lat="35.133220920" lon="-106.459970820">
        <ele>2261.000</ele>
        <time>2019-11-18T19:59:22Z</time>
      </trkpt>
      <trkpt lat="35.133230350" lon="-106.460031250">
        <ele>2259.000</ele>
        <time>2019-11-18T19:59:26Z</time>
      </trkpt>
      <trkpt lat="35.133254500" lon="-106.460070750">
        <ele>2258.000</ele>
        <time>2019-11-18T19:59:30Z</time>
      </trkpt>
      <trkpt lat="35.133286750" lon="-106.460101210">
        <ele>2256.000</ele>
        <time>2019-11-18T19:59:35Z</time>
      </trkpt>
      <trkpt lat="35.133317780" lon="-106.460125020">
        <ele>2256.000</ele>
        <time>2019-11-18T19:59:38Z</time>
      </trkpt>
      <trkpt lat="35.133348320" lon="-106.460148730">
        <ele>2256.000</ele>
        <time>2019-11-18T19:59:41Z</time>
      </trkpt>
      <trkpt lat="35.133381200" lon="-106.460174300">
        <ele>2254.000</ele>
        <time>2019-11-18T19:59:47Z</time>
      </trkpt>
      <trkpt lat="35.133415080" lon="-106.460200040">
        <ele>2253.000</ele>
        <time>2019-11-18T19:59:52Z</time>
      </trkpt>
      <trkpt lat="35.133435340" lon="-106.460238270">
        <ele>2253.000</ele>
        <time>2019-11-18T19:59:55Z</time>
      </trkpt>
      <trkpt lat="35.133465130" lon="-106.460286370">
        <ele>2254.000</ele>
        <time>2019-11-18T19:59:59Z</time>
      </trkpt>
      <trkpt lat="35.133484960" lon="-106.460329860">
        <ele>2255.000</ele>
        <time>2019-11-18T20:00:03Z</time>
      </trkpt>
      <trkpt lat="35.133517820" lon="-106.460375030">
        <ele>2254.000</ele>
        <time>2019-11-18T20:00:08Z</time>
      </trkpt>
      <trkpt lat="35.133543110" lon="-106.460414700">
        <ele>2253.000</ele>
        <time>2019-11-18T20:00:13Z</time>
      </trkpt>
      <trkpt lat="35.133577520" lon="-106.460453130">
        <ele>2253.000</ele>
        <time>2019-11-18T20:00:17Z</time>
      </trkpt>
      <trkpt lat="35.133605020" lon="-106.460487700">
        <ele>2252.000</ele>
        <time>2019-11-18T20:00:26Z</time>
      </trkpt>
      <trkpt lat="35.133628020" lon="-106.460532760">
        <ele>2252.000</ele>
        <time>2019-11-18T20:00:30Z</time>
      </trkpt>
      <trkpt lat="35.133654010" lon="-106.460575070">
        <ele>2253.000</ele>
        <time>2019-11-18T20:00:34Z</time>
      </trkpt>
      <trkpt lat="35.133679700" lon="-106.460607470">
        <ele>2249.000</ele>
        <time>2019-11-18T20:00:38Z</time>
      </trkpt>
      <trkpt lat="35.133714580" lon="-106.460645710">
        <ele>2248.000</ele>
        <time>2019-11-18T20:01:05Z</time>
      </trkpt>
      <trkpt lat="35.133734830" lon="-106.460689390">
        <ele>2251.000</ele>
        <time>2019-11-18T20:01:10Z</time>
      </trkpt>
      <trkpt lat="35.133761370" lon="-106.460719280">
        <ele>2252.000</ele>
        <time>2019-11-18T20:01:19Z</time>
      </trkpt>
      <trkpt lat="35.133778400" lon="-106.460758000">
        <ele>2255.000</ele>
        <time>2019-11-18T20:01:25Z</time>
      </trkpt>
      <trkpt lat="35.133771640" lon="-106.460805400">
        <ele>2253.000</ele>
        <time>2019-11-18T20:01:31Z</time>
      </trkpt>
      <trkpt lat="35.133752130" lon="-106.460843230">
        <ele>2255.000</ele>
        <time>2019-11-18T20:02:02Z</time>
      </trkpt>
      <trkpt lat="35.133737110" lon="-106.460886210">
        <ele>2243.000</ele>
        <time>2019-11-18T20:11:51Z</time>
      </trkpt>
      <trkpt lat="35.133775960" lon="-106.460880940">
        <ele>2247.000</ele>
        <time>2019-11-18T20:23:14Z</time>
      </trkpt>
      <trkpt lat="35.133739460" lon="-106.460888490">
        <ele>2247.000</ele>
        <time>2019-11-18T20:24:07Z</time>
      </trkpt>
      <trkpt lat="35.133732930" lon="-106.460936600">
        <ele>2240.000</ele>
        <time>2019-11-18T20:27:12Z</time>
      </trkpt>
      <trkpt lat="35.133737190" lon="-106.460986910">
        <ele>2240.000</ele>
        <time>2019-11-18T20:27:17Z</time>
      </trkpt>
      <trkpt lat="35.133736350" lon="-106.461031470">
        <ele>2240.000</ele>
        <time>2019-11-18T20:27:27Z</time>
      </trkpt>
      <trkpt lat="35.133753090" lon="-106.461080740">
        <ele>2237.000</ele>
        <time>2019-11-18T20:27:39Z</time>
      </trkpt>
      <trkpt lat="35.133761320" lon="-106.461130920">
        <ele>2237.000</ele>
        <time>2019-11-18T20:27:46Z</time>
      </trkpt>
      <trkpt lat="35.133778020" lon="-106.461178660">
        <ele>2236.000</ele>
        <time>2019-11-18T20:27:51Z</time>
      </trkpt>
      <trkpt lat="35.133802560" lon="-106.461219010">
        <ele>2236.000</ele>
        <time>2019-11-18T20:27:56Z</time>
      </trkpt>
      <trkpt lat="35.133833710" lon="-106.461250750">
        <ele>2235.000</ele>
        <time>2019-11-18T20:28:04Z</time>
      </trkpt>
      <trkpt lat="35.133861250" lon="-106.461281950">
        <ele>2235.000</ele>
        <time>2019-11-18T20:28:07Z</time>
      </trkpt>
      <trkpt lat="35.133874960" lon="-106.461324410">
        <ele>2233.000</ele>
        <time>2019-11-18T20:28:11Z</time>
      </trkpt>
      <trkpt lat="35.133911760" lon="-106.461337860">
        <ele>2235.000</ele>
        <time>2019-11-18T20:28:15Z</time>
      </trkpt>
      <trkpt lat="35.133944350" lon="-106.461356840">
        <ele>2233.000</ele>
        <time>2019-11-18T20:28:19Z</time>
      </trkpt>
      <trkpt lat="35.133982520" lon="-106.461356770">
        <ele>2232.000</ele>
        <time>2019-11-18T20:28:23Z</time>
      </trkpt>
      <trkpt lat="35.134016750" lon="-106.461386270">
        <ele>2233.000</ele>
        <time>2019-11-18T20:28:27Z</time>
      </trkpt>
      <trkpt lat="35.134053320" lon="-106.461405910">
        <ele>2231.000</ele>
        <time>2019-11-18T20:28:31Z</time>
      </trkpt>
      <trkpt lat="35.134093080" lon="-106.461397040">
        <ele>2229.000</ele>
        <time>2019-11-18T20:28:35Z</time>
      </trkpt>
      <trkpt lat="35.134136560" lon="-106.461413650">
        <ele>2231.000</ele>
        <time>2019-11-18T20:28:42Z</time>
      </trkpt>
      <trkpt lat="35.134100760" lon="-106.461444110">
        <ele>2230.000</ele>
        <time>2019-11-18T20:28:53Z</time>
      </trkpt>
      <trkpt lat="35.134055060" lon="-106.461422630">
        <ele>2227.000</ele>
        <time>2019-11-18T20:28:58Z</time>
      </trkpt>
      <trkpt lat="35.134015820" lon="-106.461426830">
        <ele>2224.000</ele>
        <time>2019-11-18T20:29:02Z</time>
      </trkpt>
      <trkpt lat="35.133968880" lon="-106.461436130">
        <ele>2222.000</ele>
        <time>2019-11-18T20:29:07Z</time>
      </trkpt>
      <trkpt lat="35.133930530" lon="-106.461446210">
        <ele>2225.000</ele>
        <time>2019-11-18T20:29:11Z</time>
      </trkpt>
      <trkpt lat="35.133892140" lon="-106.461439650">
        <ele>2223.000</ele>
        <time>2019-11-18T20:29:16Z</time>
      </trkpt>
      <trkpt lat="35.133854890" lon="-106.461437910">
        <ele>2223.000</ele>
        <time>2019-11-18T20:29:19Z</time>
      </trkpt>
      <trkpt lat="35.133815470" lon="-106.461449320">
        <ele>2222.000</ele>
        <time>2019-11-18T20:29:23Z</time>
      </trkpt>
      <trkpt lat="35.133823620" lon="-106.461503810">
        <ele>2220.000</ele>
        <time>2019-11-18T20:29:39Z</time>
      </trkpt>
      <trkpt lat="35.133855340" lon="-106.461539640">
        <ele>2220.000</ele>
        <time>2019-11-18T20:29:43Z</time>
      </trkpt>
      <trkpt lat="35.133893100" lon="-106.461566710">
        <ele>2219.000</ele>
        <time>2019-11-18T20:29:48Z</time>
      </trkpt>
      <trkpt lat="35.133934600" lon="-106.461575740">
        <ele>2219.000</ele>
        <time>2019-11-18T20:29:53Z</time>
      </trkpt>
      <trkpt lat="35.133932970" lon="-106.461630770">
        <ele>2220.000</ele>
        <time>2019-11-18T20:30:12Z</time>
      </trkpt>
      <trkpt lat="35.133959210" lon="-106.461662190">
        <ele>2216.000</ele>
        <time>2019-11-18T20:30:18Z</time>
      </trkpt>
      <trkpt lat="35.133979960" lon="-106.461700980">
        <ele>2217.000</ele>
        <time>2019-11-18T20:30:27Z</time>
      </trkpt>
      <trkpt lat="35.133983680" lon="-106.461753940">
        <ele>2215.000</ele>
        <time>2019-11-18T20:30:40Z</time>
      </trkpt>
      <trkpt lat="35.133975290" lon="-106.461808230">
        <ele>2213.000</ele>
        <time>2019-11-18T20:30:44Z</time>
      </trkpt>
      <trkpt lat="35.133997900" lon="-106.461859260">
        <ele>2213.000</ele>
        <time>2019-11-18T20:30:49Z</time>
      </trkpt>
      <trkpt lat="35.134000490" lon="-106.461916480">
        <ele>2213.000</ele>
        <time>2019-11-18T20:30:53Z</time>
      </trkpt>
      <trkpt lat="35.134025040" lon="-106.461959470">
        <ele>2214.000</ele>
        <time>2019-11-18T20:30:57Z</time>
      </trkpt>
      <trkpt lat="35.134055780" lon="-106.461997930">
        <ele>2214.000</ele>
        <time>2019-11-18T20:31:00Z</time>
      </trkpt>
      <trkpt lat="35.134092640" lon="-106.462009830">
        <ele>2212.000</ele>
        <time>2019-11-18T20:31:03Z</time>
      </trkpt>
      <trkpt lat="35.134123460" lon="-106.462041390">
        <ele>2213.000</ele>
        <time>2019-11-18T20:31:09Z</time>
      </trkpt>
      <trkpt lat="35.134084800" lon="-106.462030890">
        <ele>2212.000</ele>
        <time>2019-11-18T20:31:34Z</time>
      </trkpt>
      <trkpt lat="35.134041970" lon="-106.462025590">
        <ele>2212.000</ele>
        <time>2019-11-18T20:31:49Z</time>
      </trkpt>
      <trkpt lat="35.134005060" lon="-106.462024700">
        <ele>2210.000</ele>
        <time>2019-11-18T20:31:52Z</time>
      </trkpt>
      <trkpt lat="35.134015650" lon="-106.462071130">
        <ele>2209.000</ele>
        <time>2019-11-18T20:31:59Z</time>
      </trkpt>
      <trkpt lat="35.134026360" lon="-106.462114580">
        <ele>2208.000</ele>
        <time>2019-11-18T20:32:05Z</time>
      </trkpt>
      <trkpt lat="35.134058500" lon="-106.462141930">
        <ele>2206.000</ele>
        <time>2019-11-18T20:32:13Z</time>
      </trkpt>
      <trkpt lat="35.134094280" lon="-106.462168260">
        <ele>2203.000</ele>
        <time>2019-11-18T20:32:18Z</time>
      </trkpt>
      <trkpt lat="35.134134900" lon="-106.462167320">
        <ele>2203.000</ele>
        <time>2019-11-18T20:32:21Z</time>
      </trkpt>
      <trkpt lat="35.134183300" lon="-106.462166850">
        <ele>2202.000</ele>
        <time>2019-11-18T20:32:25Z</time>
      </trkpt>
      <trkpt lat="35.134149020" lon="-106.462198870">
        <ele>2199.000</ele>
        <time>2019-11-18T20:32:37Z</time>
      </trkpt>
      <trkpt lat="35.134110250" lon="-106.462181580">
        <ele>2198.000</ele>
        <time>2019-11-18T20:32:42Z</time>
      </trkpt>
      <trkpt lat="35.134069410" lon="-106.462194340">
        <ele>2200.000</ele>
        <time>2019-11-18T20:32:47Z</time>
      </trkpt>
      <trkpt lat="35.134032310" lon="-106.462184750">
        <ele>2202.000</ele>
        <time>2019-11-18T20:32:52Z</time>
      </trkpt>
      <trkpt lat="35.133992850" lon="-106.462175440">
        <ele>2203.000</ele>
        <time>2019-11-18T20:32:56Z</time>
      </trkpt>
      <trkpt lat="35.133957540" lon="-106.462186060">
        <ele>2205.000</ele>
        <time>2019-11-18T20:33:01Z</time>
      </trkpt>
      <trkpt lat="35.133911360" lon="-106.462208450">
        <ele>2203.000</ele>
        <time>2019-11-18T20:33:06Z</time>
      </trkpt>
      <trkpt lat="35.133872000" lon="-106.462205410">
        <ele>2202.000</ele>
        <time>2019-11-18T20:33:10Z</time>
      </trkpt>
      <trkpt lat="35.133829430" lon="-106.462214320">
        <ele>2199.000</ele>
        <time>2019-11-18T20:33:15Z</time>
      </trkpt>
      <trkpt lat="35.133795900" lon="-106.462232490">
        <ele>2197.000</ele>
        <time>2019-11-18T20:33:23Z</time>
      </trkpt>
      <trkpt lat="35.133755680" lon="-106.462248140">
        <ele>2197.000</ele>
        <time>2019-11-18T20:33:29Z</time>
      </trkpt>
      <trkpt lat="35.133782190" lon="-106.462281380">
        <ele>2195.000</ele>
        <time>2019-11-18T20:33:34Z</time>
      </trkpt>
      <trkpt lat="35.133809030" lon="-106.462319450">
        <ele>2194.000</ele>
        <time>2019-11-18T20:33:39Z</time>
      </trkpt>
      <trkpt lat="35.133849640" lon="-106.462351830">
        <ele>2193.000</ele>
        <time>2019-11-18T20:33:43Z</time>
      </trkpt>
      <trkpt lat="35.133881300" lon="-106.462380170">
        <ele>2189.000</ele>
        <time>2019-11-18T20:33:48Z</time>
      </trkpt>
      <trkpt lat="35.133909930" lon="-106.462407740">
        <ele>2189.000</ele>
        <time>2019-11-18T20:33:51Z</time>
      </trkpt>
      <trkpt lat="35.133951030" lon="-106.462428040">
        <ele>2189.000</ele>
        <time>2019-11-18T20:33:55Z</time>
      </trkpt>
      <trkpt lat="35.133980750" lon="-106.462465100">
        <ele>2191.000</ele>
        <time>2019-11-18T20:33:59Z</time>
      </trkpt>
      <trkpt lat="35.134017520" lon="-106.462451450">
        <ele>2189.000</ele>
        <time>2019-11-18T20:34:03Z</time>
      </trkpt>
      <trkpt lat="35.134054960" lon="-106.462462350">
        <ele>2190.000</ele>
        <time>2019-11-18T20:34:07Z</time>
      </trkpt>
      <trkpt lat="35.134098480" lon="-106.462464890">
        <ele>2190.000</ele>
        <time>2019-11-18T20:34:11Z</time>
      </trkpt>
      <trkpt lat="35.134113970" lon="-106.462511220">
        <ele>2190.000</ele>
        <time>2019-11-18T20:34:22Z</time>
      </trkpt>
      <trkpt lat="35.134086960" lon="-106.462540700">
        <ele>2189.000</ele>
        <time>2019-11-18T20:34:33Z</time>
      </trkpt>
      <trkpt lat="35.134044080" lon="-106.462559920">
        <ele>2192.000</ele>
        <time>2019-11-18T20:34:38Z</time>
      </trkpt>
      <trkpt lat="35.134005020" lon="-106.462572980">
        <ele>2190.000</ele>
        <time>2019-11-18T20:34:44Z</time>
      </trkpt>
      <trkpt lat="35.133962840" lon="-106.462569690">
        <ele>2191.000</ele>
        <time>2019-11-18T20:34:47Z</time>
      </trkpt>
      <trkpt lat="35.133913500" lon="-106.462608240">
        <ele>2191.000</ele>
        <time>2019-11-18T20:34:52Z</time>
      </trkpt>
      <trkpt lat="35.133898450" lon="-106.462653520">
        <ele>2189.000</ele>
        <time>2019-11-18T20:34:54Z</time>
      </trkpt>
      <trkpt lat="35.133873490" lon="-106.462695930">
        <ele>2188.000</ele>
        <time>2019-11-18T20:34:57Z</time>
      </trkpt>
      <trkpt lat="35.133825840" lon="-106.462694260">
        <ele>2187.000</ele>
        <time>2019-11-18T20:35:02Z</time>
      </trkpt>
      <trkpt lat="35.133788570" lon="-106.462672720">
        <ele>2180.000</ele>
        <time>2019-11-18T20:35:19Z</time>
      </trkpt>
      <trkpt lat="35.133746590" lon="-106.462677720">
        <ele>2179.000</ele>
        <time>2019-11-18T20:35:26Z</time>
      </trkpt>
      <trkpt lat="35.133713570" lon="-106.462717340">
        <ele>2178.000</ele>
        <time>2019-11-18T20:35:31Z</time>
      </trkpt>
      <trkpt lat="35.133675440" lon="-106.462704840">
        <ele>2179.000</ele>
        <time>2019-11-18T20:35:36Z</time>
      </trkpt>
      <trkpt lat="35.133666500" lon="-106.462753870">
        <ele>2175.000</ele>
        <time>2019-11-18T20:35:43Z</time>
      </trkpt>
      <trkpt lat="35.133636300" lon="-106.462788230">
        <ele>2174.000</ele>
        <time>2019-11-18T20:35:48Z</time>
      </trkpt>
      <trkpt lat="35.133608470" lon="-106.462818650">
        <ele>2174.000</ele>
        <time>2019-11-18T20:35:52Z</time>
      </trkpt>
      <trkpt lat="35.133602270" lon="-106.462882410">
        <ele>2170.000</ele>
        <time>2019-11-18T20:35:56Z</time>
      </trkpt>
      <trkpt lat="35.133562610" lon="-106.462836790">
        <ele>2176.000</ele>
        <time>2019-11-18T20:35:59Z</time>
      </trkpt>
      <trkpt lat="35.133532380" lon="-106.462799830">
        <ele>2170.000</ele>
        <time>2019-11-18T20:36:13Z</time>
      </trkpt>
      <trkpt lat="35.133493580" lon="-106.462803210">
        <ele>2169.000</ele>
        <time>2019-11-18T20:36:32Z</time>
      </trkpt>
      <trkpt lat="35.133460640" lon="-106.462827090">
        <ele>2170.000</ele>
        <time>2019-11-18T20:36:36Z</time>
      </trkpt>
      <trkpt lat="35.133444840" lon="-106.462866590">
        <ele>2169.000</ele>
        <time>2019-11-18T20:36:46Z</time>
      </trkpt>
      <trkpt lat="35.133424310" lon="-106.462928640">
        <ele>2165.000</ele>
        <time>2019-11-18T20:37:01Z</time>
      </trkpt>
      <trkpt lat="35.133404110" lon="-106.462983830">
        <ele>2163.000</ele>
        <time>2019-11-18T20:37:04Z</time>
      </trkpt>
      <trkpt lat="35.133375300" lon="-106.463026080">
        <ele>2164.000</ele>
        <time>2019-11-18T20:37:11Z</time>
      </trkpt>
      <trkpt lat="35.133361490" lon="-106.463075490">
        <ele>2163.000</ele>
        <time>2019-11-18T20:37:15Z</time>
      </trkpt>
      <trkpt lat="35.133346920" lon="-106.463121820">
        <ele>2159.000</ele>
        <time>2019-11-18T20:37:20Z</time>
      </trkpt>
      <trkpt lat="35.133343660" lon="-106.463174530">
        <ele>2155.000</ele>
        <time>2019-11-18T20:37:28Z</time>
      </trkpt>
      <trkpt lat="35.133332440" lon="-106.463218380">
        <ele>2155.000</ele>
        <time>2019-11-18T20:37:38Z</time>
      </trkpt>
      <trkpt lat="35.133307900" lon="-106.463175390">
        <ele>2154.000</ele>
        <time>2019-11-18T20:38:12Z</time>
      </trkpt>
      <trkpt lat="35.133271000" lon="-106.463195570">
        <ele>2153.000</ele>
        <time>2019-11-18T20:38:22Z</time>
      </trkpt>
      <trkpt lat="35.133250160" lon="-106.463240450">
        <ele>2151.000</ele>
        <time>2019-11-18T20:38:28Z</time>
      </trkpt>
      <trkpt lat="35.133232990" lon="-106.463300110">
        <ele>2150.000</ele>
        <time>2019-11-18T20:38:36Z</time>
      </trkpt>
      <trkpt lat="35.133214580" lon="-106.463341140">
        <ele>2149.000</ele>
        <time>2019-11-18T20:38:40Z</time>
      </trkpt>
      <trkpt lat="35.133205810" lon="-106.463389070">
        <ele>2150.000</ele>
        <time>2019-11-18T20:38:45Z</time>
      </trkpt>
      <trkpt lat="35.133182060" lon="-106.463426500">
        <ele>2150.000</ele>
        <time>2019-11-18T20:39:00Z</time>
      </trkpt>
      <trkpt lat="35.133190740" lon="-106.463489910">
        <ele>2146.000</ele>
        <time>2019-11-18T20:39:03Z</time>
      </trkpt>
      <trkpt lat="35.133205790" lon="-106.463548860">
        <ele>2143.000</ele>
        <time>2019-11-18T20:39:06Z</time>
      </trkpt>
      <trkpt lat="35.133188690" lon="-106.463590890">
        <ele>2143.000</ele>
        <time>2019-11-18T20:39:08Z</time>
      </trkpt>
      <trkpt lat="35.133202380" lon="-106.463646370">
        <ele>2141.000</ele>
        <time>2019-11-18T20:39:12Z</time>
      </trkpt>
      <trkpt lat="35.133171870" lon="-106.463619060">
        <ele>2139.000</ele>
        <time>2019-11-18T20:39:25Z</time>
      </trkpt>
      <trkpt lat="35.133153210" lon="-106.463581380">
        <ele>2137.000</ele>
        <time>2019-11-18T20:39:29Z</time>
      </trkpt>
      <trkpt lat="35.133111150" lon="-106.463551240">
        <ele>2136.000</ele>
        <time>2019-11-18T20:39:34Z</time>
      </trkpt>
      <trkpt lat="35.133075120" lon="-106.463556990">
        <ele>2135.000</ele>
        <time>2019-11-18T20:39:39Z</time>
      </trkpt>
      <trkpt lat="35.133062470" lon="-106.463610340">
        <ele>2135.000</ele>
        <time>2019-11-18T20:39:46Z</time>
      </trkpt>
      <trkpt lat="35.133075510" lon="-106.463657180">
        <ele>2134.000</ele>
        <time>2019-11-18T20:39:51Z</time>
      </trkpt>
      <trkpt lat="35.133067990" lon="-106.463704930">
        <ele>2134.000</ele>
        <time>2019-11-18T20:39:56Z</time>
      </trkpt>
      <trkpt lat="35.133070370" lon="-106.463759490">
        <ele>2134.000</ele>
        <time>2019-11-18T20:40:06Z</time>
      </trkpt>
      <trkpt lat="35.133075070" lon="-106.463811700">
        <ele>2133.000</ele>
        <time>2019-11-18T20:40:10Z</time>
      </trkpt>
      <trkpt lat="35.133077130" lon="-106.463856380">
        <ele>2132.000</ele>
        <time>2019-11-18T20:40:16Z</time>
      </trkpt>
      <trkpt lat="35.133074420" lon="-106.463911900">
        <ele>2132.000</ele>
        <time>2019-11-18T20:40:20Z</time>
      </trkpt>
      <trkpt lat="35.133067330" lon="-106.463963200">
        <ele>2132.000</ele>
        <time>2019-11-18T20:40:23Z</time>
      </trkpt>
      <trkpt lat="35.133066990" lon="-106.464012240">
        <ele>2130.000</ele>
        <time>2019-11-18T20:40:26Z</time>
      </trkpt>
      <trkpt lat="35.133061160" lon="-106.464061000">
        <ele>2129.000</ele>
        <time>2019-11-18T20:40:29Z</time>
      </trkpt>
      <trkpt lat="35.133064760" lon="-106.464108080">
        <ele>2128.000</ele>
        <time>2019-11-18T20:40:32Z</time>
      </trkpt>
      <trkpt lat="35.133063180" lon="-106.464168820">
        <ele>2129.000</ele>
        <time>2019-11-18T20:40:36Z</time>
      </trkpt>
      <trkpt lat="35.133083840" lon="-106.464206420">
        <ele>2130.000</ele>
        <time>2019-11-18T20:40:39Z</time>
      </trkpt>
      <trkpt lat="35.133075040" lon="-106.464261290">
        <ele>2129.000</ele>
        <time>2019-11-18T20:40:43Z</time>
      </trkpt>
      <trkpt lat="35.133075220" lon="-106.464312500">
        <ele>2129.000</ele>
        <time>2019-11-18T20:40:46Z</time>
      </trkpt>
      <trkpt lat="35.133109470" lon="-106.464335350">
        <ele>2128.000</ele>
        <time>2019-11-18T20:40:52Z</time>
      </trkpt>
      <trkpt lat="35.133147940" lon="-106.464351330">
        <ele>2129.000</ele>
        <time>2019-11-18T20:40:56Z</time>
      </trkpt>
      <trkpt lat="35.133185260" lon="-106.464332830">
        <ele>2129.000</ele>
        <time>2019-11-18T20:40:59Z</time>
      </trkpt>
      <trkpt lat="35.133224700" lon="-106.464310900">
        <ele>2129.000</ele>
        <time>2019-11-18T20:41:02Z</time>
      </trkpt>
      <trkpt lat="35.133269110" lon="-106.464302630">
        <ele>2127.000</ele>
        <time>2019-11-18T20:41:05Z</time>
      </trkpt>
      <trkpt lat="35.133310750" lon="-106.464335570">
        <ele>2128.000</ele>
        <time>2019-11-18T20:41:09Z</time>
      </trkpt>
      <trkpt lat="35.133358510" lon="-106.464337690">
        <ele>2128.000</ele>
        <time>2019-11-18T20:41:14Z</time>
      </trkpt>
      <trkpt lat="35.133399600" lon="-106.464337710">
        <ele>2128.000</ele>
        <time>2019-11-18T20:41:17Z</time>
      </trkpt>
      <trkpt lat="35.133436580" lon="-106.464342390">
        <ele>2129.000</ele>
        <time>2019-11-18T20:41:20Z</time>
      </trkpt>
      <trkpt lat="35.133478620" lon="-106.464352240">
        <ele>2130.000</ele>
        <time>2019-11-18T20:41:23Z</time>
      </trkpt>
      <trkpt lat="35.133518060" lon="-106.464348810">
        <ele>2130.000</ele>
        <time>2019-11-18T20:41:27Z</time>
      </trkpt>
      <trkpt lat="35.133552620" lon="-106.464364170">
        <ele>2132.000</ele>
        <time>2019-11-18T20:41:31Z</time>
      </trkpt>
      <trkpt lat="35.133580530" lon="-106.464395050">
        <ele>2132.000</ele>
        <time>2019-11-18T20:41:35Z</time>
      </trkpt>
      <trkpt lat="35.133615150" lon="-106.464426250">
        <ele>2133.000</ele>
        <time>2019-11-18T20:41:41Z</time>
      </trkpt>
      <trkpt lat="35.133571930" lon="-106.464419180">
        <ele>2130.000</ele>
        <time>2019-11-18T20:41:56Z</time>
      </trkpt>
      <trkpt lat="35.133525350" lon="-106.464411410">
        <ele>2128.000</ele>
        <time>2019-11-18T20:42:04Z</time>
      </trkpt>
      <trkpt lat="35.133490660" lon="-106.464395110">
        <ele>2126.000</ele>
        <time>2019-11-18T20:42:09Z</time>
      </trkpt>
      <trkpt lat="35.133449150" lon="-106.464403080">
        <ele>2125.000</ele>
        <time>2019-11-18T20:42:13Z</time>
      </trkpt>
      <trkpt lat="35.133413710" lon="-106.464413930">
        <ele>2122.000</ele>
        <time>2019-11-18T20:42:19Z</time>
      </trkpt>
      <trkpt lat="35.133362890" lon="-106.464413800">
        <ele>2121.000</ele>
        <time>2019-11-18T20:42:24Z</time>
      </trkpt>
      <trkpt lat="35.133365840" lon="-106.464458470">
        <ele>2118.000</ele>
        <time>2019-11-18T20:42:29Z</time>
      </trkpt>
      <trkpt lat="35.133403270" lon="-106.464482550">
        <ele>2116.000</ele>
        <time>2019-11-18T20:42:35Z</time>
      </trkpt>
      <trkpt lat="35.133433300" lon="-106.464514790">
        <ele>2115.000</ele>
        <time>2019-11-18T20:42:40Z</time>
      </trkpt>
      <trkpt lat="35.133461130" lon="-106.464542810">
        <ele>2117.000</ele>
        <time>2019-11-18T20:42:50Z</time>
      </trkpt>
      <trkpt lat="35.133470450" lon="-106.464586240">
        <ele>2118.000</ele>
        <time>2019-11-18T20:42:56Z</time>
      </trkpt>
      <trkpt lat="35.133502850" lon="-106.464620780">
        <ele>2117.000</ele>
        <time>2019-11-18T20:43:03Z</time>
      </trkpt>
      <trkpt lat="35.133515810" lon="-106.464665010">
        <ele>2117.000</ele>
        <time>2019-11-18T20:43:09Z</time>
      </trkpt>
      <trkpt lat="35.133544640" lon="-106.464697570">
        <ele>2115.000</ele>
        <time>2019-11-18T20:43:13Z</time>
      </trkpt>
      <trkpt lat="35.133582770" lon="-106.464705710">
        <ele>2114.000</ele>
        <time>2019-11-18T20:43:16Z</time>
      </trkpt>
      <trkpt lat="35.133604430" lon="-106.464751710">
        <ele>2116.000</ele>
        <time>2019-11-18T20:43:20Z</time>
      </trkpt>
      <trkpt lat="35.133635480" lon="-106.464792440">
        <ele>2114.000</ele>
        <time>2019-11-18T20:43:25Z</time>
      </trkpt>
      <trkpt lat="35.133672420" lon="-106.464825460">
        <ele>2114.000</ele>
        <time>2019-11-18T20:43:29Z</time>
      </trkpt>
      <trkpt lat="35.133704620" lon="-106.464847050">
        <ele>2114.000</ele>
        <time>2019-11-18T20:43:32Z</time>
      </trkpt>
      <trkpt lat="35.133731410" lon="-106.464883270">
        <ele>2111.000</ele>
        <time>2019-11-18T20:43:39Z</time>
      </trkpt>
      <trkpt lat="35.133747730" lon="-106.464927530">
        <ele>2109.000</ele>
        <time>2019-11-18T20:43:46Z</time>
      </trkpt>
      <trkpt lat="35.133755560" lon="-106.464972210">
        <ele>2109.000</ele>
        <time>2019-11-18T20:43:51Z</time>
      </trkpt>
      <trkpt lat="35.133770040" lon="-106.465018990">
        <ele>2106.000</ele>
        <time>2019-11-18T20:43:59Z</time>
      </trkpt>
      <trkpt lat="35.133798520" lon="-106.465060200">
        <ele>2107.000</ele>
        <time>2019-11-18T20:44:04Z</time>
      </trkpt>
      <trkpt lat="35.133831610" lon="-106.465079480">
        <ele>2108.000</ele>
        <time>2019-11-18T20:44:08Z</time>
      </trkpt>
      <trkpt lat="35.133874130" lon="-106.465110470">
        <ele>2106.000</ele>
        <time>2019-11-18T20:44:12Z</time>
      </trkpt>
      <trkpt lat="35.133904600" lon="-106.465147840">
        <ele>2107.000</ele>
        <time>2019-11-18T20:44:16Z</time>
      </trkpt>
      <trkpt lat="35.133925040" lon="-106.465193000">
        <ele>2106.000</ele>
        <time>2019-11-18T20:44:19Z</time>
      </trkpt>
      <trkpt lat="35.133942170" lon="-106.465233030">
        <ele>2107.000</ele>
        <time>2019-11-18T20:44:22Z</time>
      </trkpt>
      <trkpt lat="35.133975590" lon="-106.465269850">
        <ele>2106.000</ele>
        <time>2019-11-18T20:44:25Z</time>
      </trkpt>
      <trkpt lat="35.133992680" lon="-106.465312110">
        <ele>2106.000</ele>
        <time>2019-11-18T20:44:29Z</time>
      </trkpt>
      <trkpt lat="35.134018480" lon="-106.465345450">
        <ele>2107.000</ele>
        <time>2019-11-18T20:44:33Z</time>
      </trkpt>
      <trkpt lat="35.134051350" lon="-106.465377210">
        <ele>2107.000</ele>
        <time>2019-11-18T20:44:37Z</time>
      </trkpt>
      <trkpt lat="35.134087880" lon="-106.465392970">
        <ele>2105.000</ele>
        <time>2019-11-18T20:44:42Z</time>
      </trkpt>
      <trkpt lat="35.134085510" lon="-106.465436790">
        <ele>2103.000</ele>
        <time>2019-11-18T20:44:49Z</time>
      </trkpt>
      <trkpt lat="35.134106680" lon="-106.465484600">
        <ele>2103.000</ele>
        <time>2019-11-18T20:44:52Z</time>
      </trkpt>
      <trkpt lat="35.134136910" lon="-106.465508670">
        <ele>2102.000</ele>
        <time>2019-11-18T20:44:55Z</time>
      </trkpt>
      <trkpt lat="35.134171540" lon="-106.465545390">
        <ele>2104.000</ele>
        <time>2019-11-18T20:44:58Z</time>
      </trkpt>
      <trkpt lat="35.134197550" lon="-106.465580030">
        <ele>2103.000</ele>
        <time>2019-11-18T20:45:02Z</time>
      </trkpt>
      <trkpt lat="35.134233220" lon="-106.465601230">
        <ele>2101.000</ele>
        <time>2019-11-18T20:45:06Z</time>
      </trkpt>
      <trkpt lat="35.134263770" lon="-106.465640450">
        <ele>2100.000</ele>
        <time>2019-11-18T20:45:10Z</time>
      </trkpt>
      <trkpt lat="35.134302680" lon="-106.465654880">
        <ele>2099.000</ele>
        <time>2019-11-18T20:45:14Z</time>
      </trkpt>
      <trkpt lat="35.134341740" lon="-106.465666430">
        <ele>2099.000</ele>
        <time>2019-11-18T20:45:19Z</time>
      </trkpt>
      <trkpt lat="35.134380590" lon="-106.465681590">
        <ele>2100.000</ele>
        <time>2019-11-18T20:45:31Z</time>
      </trkpt>
      <trkpt lat="35.134397000" lon="-106.465725380">
        <ele>2101.000</ele>
        <time>2019-11-18T20:45:35Z</time>
      </trkpt>
      <trkpt lat="35.134399720" lon="-106.465785770">
        <ele>2103.000</ele>
        <time>2019-11-18T20:45:39Z</time>
      </trkpt>
      <trkpt lat="35.134410950" lon="-106.465832240">
        <ele>2101.000</ele>
        <time>2019-11-18T20:45:45Z</time>
      </trkpt>
      <trkpt lat="35.134444410" lon="-106.465872940">
        <ele>2105.000</ele>
        <time>2019-11-18T20:45:54Z</time>
      </trkpt>
      <trkpt lat="35.134461820" lon="-106.465911950">
        <ele>2104.000</ele>
        <time>2019-11-18T20:45:57Z</time>
      </trkpt>
      <trkpt lat="35.134494950" lon="-106.465964670">
        <ele>2102.000</ele>
        <time>2019-11-18T20:46:01Z</time>
      </trkpt>
      <trkpt lat="35.134531420" lon="-106.465983190">
        <ele>2102.000</ele>
        <time>2019-11-18T20:46:04Z</time>
      </trkpt>
      <trkpt lat="35.134569990" lon="-106.465979750">
        <ele>2101.000</ele>
        <time>2019-11-18T20:46:08Z</time>
      </trkpt>
      <trkpt lat="35.134606970" lon="-106.465995090">
        <ele>2100.000</ele>
        <time>2019-11-18T20:46:11Z</time>
      </trkpt>
      <trkpt lat="35.134642590" lon="-106.466024360">
        <ele>2099.000</ele>
        <time>2019-11-18T20:46:14Z</time>
      </trkpt>
      <trkpt lat="35.134653700" lon="-106.466072300">
        <ele>2100.000</ele>
        <time>2019-11-18T20:46:18Z</time>
      </trkpt>
      <trkpt lat="35.134667420" lon="-106.466119030">
        <ele>2101.000</ele>
        <time>2019-11-18T20:46:22Z</time>
      </trkpt>
      <trkpt lat="35.134681840" lon="-106.466162930">
        <ele>2100.000</ele>
        <time>2019-11-18T20:46:26Z</time>
      </trkpt>
      <trkpt lat="35.134702060" lon="-106.466203470">
        <ele>2100.000</ele>
        <time>2019-11-18T20:46:31Z</time>
      </trkpt>
      <trkpt lat="35.134690330" lon="-106.466259400">
        <ele>2101.000</ele>
        <time>2019-11-18T20:46:45Z</time>
      </trkpt>
      <trkpt lat="35.134718620" lon="-106.466295950">
        <ele>2099.000</ele>
        <time>2019-11-18T20:46:48Z</time>
      </trkpt>
      <trkpt lat="35.134710310" lon="-106.466339490">
        <ele>2103.000</ele>
        <time>2019-11-18T20:47:22Z</time>
      </trkpt>
      <trkpt lat="35.134716300" lon="-106.466392180">
        <ele>2099.000</ele>
        <time>2019-11-18T20:47:32Z</time>
      </trkpt>
      <trkpt lat="35.134710760" lon="-106.466446670">
        <ele>2097.000</ele>
        <time>2019-11-18T20:47:36Z</time>
      </trkpt>
      <trkpt lat="35.134717180" lon="-106.466490750">
        <ele>2097.000</ele>
        <time>2019-11-18T20:47:44Z</time>
      </trkpt>
      <trkpt lat="35.134701660" lon="-106.466538960">
        <ele>2096.000</ele>
        <time>2019-11-18T20:47:48Z</time>
      </trkpt>
      <trkpt lat="35.134699950" lon="-106.466594530">
        <ele>2094.000</ele>
        <time>2019-11-18T20:47:52Z</time>
      </trkpt>
      <trkpt lat="35.134699530" lon="-106.466641880">
        <ele>2095.000</ele>
        <time>2019-11-18T20:47:59Z</time>
      </trkpt>
      <trkpt lat="35.134700480" lon="-106.466687170">
        <ele>2090.000</ele>
        <time>2019-11-18T20:48:20Z</time>
      </trkpt>
      <trkpt lat="35.134699920" lon="-106.466742400">
        <ele>2093.000</ele>
        <time>2019-11-18T20:48:34Z</time>
      </trkpt>
      <trkpt lat="35.134678600" lon="-106.466786080">
        <ele>2091.000</ele>
        <time>2019-11-18T20:48:38Z</time>
      </trkpt>
      <trkpt lat="35.134680980" lon="-106.466830780">
        <ele>2088.000</ele>
        <time>2019-11-18T20:48:45Z</time>
      </trkpt>
      <trkpt lat="35.134658010" lon="-106.466889980">
        <ele>2089.000</ele>
        <time>2019-11-18T20:48:54Z</time>
      </trkpt>
      <trkpt lat="35.134659010" lon="-106.466935090">
        <ele>2089.000</ele>
        <time>2019-11-18T20:48:58Z</time>
      </trkpt>
      <trkpt lat="35.134672850" lon="-106.466987240">
        <ele>2090.000</ele>
        <time>2019-11-18T20:49:03Z</time>
      </trkpt>
      <trkpt lat="35.134669600" lon="-106.467036980">
        <ele>2090.000</ele>
        <time>2019-11-18T20:49:07Z</time>
      </trkpt>
      <trkpt lat="35.134659880" lon="-106.467084390">
        <ele>2091.000</ele>
        <time>2019-11-18T20:49:18Z</time>
      </trkpt>
      <trkpt lat="35.134655090" lon="-106.467133230">
        <ele>2089.000</ele>
        <time>2019-11-18T20:49:23Z</time>
      </trkpt>
      <trkpt lat="35.134657910" lon="-106.467181070">
        <ele>2089.000</ele>
        <time>2019-11-18T20:49:26Z</time>
      </trkpt>
      <trkpt lat="35.134645190" lon="-106.467230540">
        <ele>2087.000</ele>
        <time>2019-11-18T20:49:30Z</time>
      </trkpt>
      <trkpt lat="35.134655060" lon="-106.467286560">
        <ele>2089.000</ele>
        <time>2019-11-18T20:49:36Z</time>
      </trkpt>
      <trkpt lat="35.134682260" lon="-106.467319090">
        <ele>2088.000</ele>
        <time>2019-11-18T20:49:39Z</time>
      </trkpt>
      <trkpt lat="35.134696250" lon="-106.467360270">
        <ele>2087.000</ele>
        <time>2019-11-18T20:49:42Z</time>
      </trkpt>
      <trkpt lat="35.134699340" lon="-106.467409220">
        <ele>2087.000</ele>
        <time>2019-11-18T20:49:45Z</time>
      </trkpt>
      <trkpt lat="35.134692150" lon="-106.467465570">
        <ele>2088.000</ele>
        <time>2019-11-18T20:49:50Z</time>
      </trkpt>
      <trkpt lat="35.134707190" lon="-106.467509710">
        <ele>2087.000</ele>
        <time>2019-11-18T20:49:55Z</time>
      </trkpt>
      <trkpt lat="35.134718900" lon="-106.467553490">
        <ele>2088.000</ele>
        <time>2019-11-18T20:50:01Z</time>
      </trkpt>
      <trkpt lat="35.134744900" lon="-106.467591730">
        <ele>2086.000</ele>
        <time>2019-11-18T20:50:09Z</time>
      </trkpt>
      <trkpt lat="35.134728520" lon="-106.467636560">
        <ele>2086.000</ele>
        <time>2019-11-18T20:50:17Z</time>
      </trkpt>
      <trkpt lat="35.134692120" lon="-106.467636320">
        <ele>2086.000</ele>
        <time>2019-11-18T20:50:52Z</time>
      </trkpt>
      <trkpt lat="35.134656760" lon="-106.467602640">
        <ele>2085.000</ele>
        <time>2019-11-18T20:50:56Z</time>
      </trkpt>
      <trkpt lat="35.134646680" lon="-106.467559460">
        <ele>2089.000</ele>
        <time>2019-11-18T20:51:05Z</time>
      </trkpt>
      <trkpt lat="35.134615570" lon="-106.467526430">
        <ele>2088.000</ele>
        <time>2019-11-18T20:51:16Z</time>
      </trkpt>
      <trkpt lat="35.134580490" lon="-106.467500750">
        <ele>2088.000</ele>
        <time>2019-11-18T20:51:22Z</time>
      </trkpt>
      <trkpt lat="35.134549100" lon="-106.467470510">
        <ele>2086.000</ele>
        <time>2019-11-18T20:51:29Z</time>
      </trkpt>
      <trkpt lat="35.134506300" lon="-106.467452580">
        <ele>2087.000</ele>
        <time>2019-11-18T20:51:35Z</time>
      </trkpt>
      <trkpt lat="35.134468920" lon="-106.467452650">
        <ele>2088.000</ele>
        <time>2019-11-18T20:51:39Z</time>
      </trkpt>
      <trkpt lat="35.134432450" lon="-106.467478780">
        <ele>2087.000</ele>
        <time>2019-11-18T20:51:45Z</time>
      </trkpt>
      <trkpt lat="35.134406150" lon="-106.467512500">
        <ele>2086.000</ele>
        <time>2019-11-18T20:51:48Z</time>
      </trkpt>
      <trkpt lat="35.134396840" lon="-106.467561750">
        <ele>2085.000</ele>
        <time>2019-11-18T20:51:51Z</time>
      </trkpt>
      <trkpt lat="35.134421590" lon="-106.467603990">
        <ele>2083.000</ele>
        <time>2019-11-18T20:51:54Z</time>
      </trkpt>
      <trkpt lat="35.134431650" lon="-106.467649370">
        <ele>2084.000</ele>
        <time>2019-11-18T20:51:57Z</time>
      </trkpt>
      <trkpt lat="35.134417860" lon="-106.467708590">
        <ele>2085.000</ele>
        <time>2019-11-18T20:52:00Z</time>
      </trkpt>
      <trkpt lat="35.134406860" lon="-106.467762840">
        <ele>2085.000</ele>
        <time>2019-11-18T20:52:05Z</time>
      </trkpt>
      <trkpt lat="35.134389360" lon="-106.467803360">
        <ele>2084.000</ele>
        <time>2019-11-18T20:52:12Z</time>
      </trkpt>
      <trkpt lat="35.134352840" lon="-106.467820700">
        <ele>2083.000</ele>
        <time>2019-11-18T20:52:21Z</time>
      </trkpt>
      <trkpt lat="35.134315420" lon="-106.467811060">
        <ele>2081.000</ele>
        <time>2019-11-18T20:52:27Z</time>
      </trkpt>
      <trkpt lat="35.134270150" lon="-106.467839870">
        <ele>2084.000</ele>
        <time>2019-11-18T20:52:34Z</time>
      </trkpt>
      <trkpt lat="35.134231900" lon="-106.467855100">
        <ele>2084.000</ele>
        <time>2019-11-18T20:52:38Z</time>
      </trkpt>
      <trkpt lat="35.134202660" lon="-106.467903340">
        <ele>2082.000</ele>
        <time>2019-11-18T20:52:41Z</time>
      </trkpt>
      <trkpt lat="35.134178410" lon="-106.467950010">
        <ele>2081.000</ele>
        <time>2019-11-18T20:52:46Z</time>
      </trkpt>
      <trkpt lat="35.134151760" lon="-106.467987020">
        <ele>2081.000</ele>
        <time>2019-11-18T20:52:50Z</time>
      </trkpt>
      <trkpt lat="35.134136010" lon="-106.467942410">
        <ele>2076.000</ele>
        <time>2019-11-18T20:52:56Z</time>
      </trkpt>
      <trkpt lat="35.134126170" lon="-106.467892160">
        <ele>2074.000</ele>
        <time>2019-11-18T20:53:01Z</time>
      </trkpt>
      <trkpt lat="35.134087210" lon="-106.467902900">
        <ele>2072.000</ele>
        <time>2019-11-18T20:53:06Z</time>
      </trkpt>
      <trkpt lat="35.134070270" lon="-106.467947810">
        <ele>2071.000</ele>
        <time>2019-11-18T20:53:10Z</time>
      </trkpt>
      <trkpt lat="35.134047890" lon="-106.467991620">
        <ele>2072.000</ele>
        <time>2019-11-18T20:53:14Z</time>
      </trkpt>
      <trkpt lat="35.134039980" lon="-106.468035630">
        <ele>2069.000</ele>
        <time>2019-11-18T20:53:17Z</time>
      </trkpt>
      <trkpt lat="35.134023840" lon="-106.468084400">
        <ele>2069.000</ele>
        <time>2019-11-18T20:53:21Z</time>
      </trkpt>
      <trkpt lat="35.133998440" lon="-106.468125190">
        <ele>2068.000</ele>
        <time>2019-11-18T20:53:29Z</time>
      </trkpt>
      <trkpt lat="35.133982970" lon="-106.468169130">
        <ele>2067.000</ele>
        <time>2019-11-18T20:53:33Z</time>
      </trkpt>
      <trkpt lat="35.133959750" lon="-106.468205330">
        <ele>2069.000</ele>
        <time>2019-11-18T20:53:37Z</time>
      </trkpt>
      <trkpt lat="35.133943910" lon="-106.468258590">
        <ele>2068.000</ele>
        <time>2019-11-18T20:53:43Z</time>
      </trkpt>
      <trkpt lat="35.133936740" lon="-106.468319060">
        <ele>2067.000</ele>
        <time>2019-11-18T20:53:46Z</time>
      </trkpt>
      <trkpt lat="35.133925020" lon="-106.468366570">
        <ele>2068.000</ele>
        <time>2019-11-18T20:53:51Z</time>
      </trkpt>
      <trkpt lat="35.133914650" lon="-106.468428460">
        <ele>2064.000</ele>
        <time>2019-11-18T20:53:55Z</time>
      </trkpt>
      <trkpt lat="35.133910680" lon="-106.468476570">
        <ele>2065.000</ele>
        <time>2019-11-18T20:53:59Z</time>
      </trkpt>
      <trkpt lat="35.133934750" lon="-106.468522200">
        <ele>2064.000</ele>
        <time>2019-11-18T20:54:02Z</time>
      </trkpt>
      <trkpt lat="35.133971920" lon="-106.468545920">
        <ele>2065.000</ele>
        <time>2019-11-18T20:54:05Z</time>
      </trkpt>
      <trkpt lat="35.133981300" lon="-106.468589000">
        <ele>2064.000</ele>
        <time>2019-11-18T20:54:08Z</time>
      </trkpt>
      <trkpt lat="35.133967710" lon="-106.468631320">
        <ele>2065.000</ele>
        <time>2019-11-18T20:54:12Z</time>
      </trkpt>
      <trkpt lat="35.133946750" lon="-106.468668540">
        <ele>2064.000</ele>
        <time>2019-11-18T20:54:18Z</time>
      </trkpt>
      <trkpt lat="35.133920470" lon="-106.468702310">
        <ele>2064.000</ele>
        <time>2019-11-18T20:54:22Z</time>
      </trkpt>
      <trkpt lat="35.133896960" lon="-106.468740470">
        <ele>2064.000</ele>
        <time>2019-11-18T20:54:26Z</time>
      </trkpt>
      <trkpt lat="35.133878580" lon="-106.468778680">
        <ele>2063.000</ele>
        <time>2019-11-18T20:54:29Z</time>
      </trkpt>
      <trkpt lat="35.133846150" lon="-106.468808870">
        <ele>2063.000</ele>
        <time>2019-11-18T20:54:36Z</time>
      </trkpt>
      <trkpt lat="35.133823360" lon="-106.468844760">
        <ele>2061.000</ele>
        <time>2019-11-18T20:54:43Z</time>
      </trkpt>
      <trkpt lat="35.133795600" lon="-106.468809880">
        <ele>2059.000</ele>
        <time>2019-11-18T20:54:49Z</time>
      </trkpt>
      <trkpt lat="35.133759050" lon="-106.468795390">
        <ele>2059.000</ele>
        <time>2019-11-18T20:54:53Z</time>
      </trkpt>
      <trkpt lat="35.133734100" lon="-106.468838600">
        <ele>2057.000</ele>
        <time>2019-11-18T20:54:57Z</time>
      </trkpt>
      <trkpt lat="35.133712580" lon="-106.468892160">
        <ele>2058.000</ele>
        <time>2019-11-18T20:55:02Z</time>
      </trkpt>
      <trkpt lat="35.133712350" lon="-106.468936270">
        <ele>2054.000</ele>
        <time>2019-11-18T20:55:06Z</time>
      </trkpt>
      <trkpt lat="35.133674120" lon="-106.468971810">
        <ele>2054.000</ele>
        <time>2019-11-18T20:55:12Z</time>
      </trkpt>
      <trkpt lat="35.133651970" lon="-106.469018370">
        <ele>2055.000</ele>
        <time>2019-11-18T20:55:16Z</time>
      </trkpt>
      <trkpt lat="35.133648210" lon="-106.469072810">
        <ele>2054.000</ele>
        <time>2019-11-18T20:55:19Z</time>
      </trkpt>
      <trkpt lat="35.133668470" lon="-106.469112290">
        <ele>2055.000</ele>
        <time>2019-11-18T20:55:24Z</time>
      </trkpt>
      <trkpt lat="35.133667310" lon="-106.469157060">
        <ele>2061.000</ele>
        <time>2019-11-18T20:55:37Z</time>
      </trkpt>
      <trkpt lat="35.133637770" lon="-106.469189380">
        <ele>2062.000</ele>
        <time>2019-11-18T20:55:42Z</time>
      </trkpt>
      <trkpt lat="35.133632670" lon="-106.469252880">
        <ele>2061.000</ele>
        <time>2019-11-18T20:55:47Z</time>
      </trkpt>
      <trkpt lat="35.133639500" lon="-106.469297810">
        <ele>2059.000</ele>
        <time>2019-11-18T20:55:51Z</time>
      </trkpt>
      <trkpt lat="35.133646140" lon="-106.469347720">
        <ele>2059.000</ele>
        <time>2019-11-18T20:55:54Z</time>
      </trkpt>
      <trkpt lat="35.133647180" lon="-106.469396530">
        <ele>2058.000</ele>
        <time>2019-11-18T20:55:56Z</time>
      </trkpt>
      <trkpt lat="35.133658940" lon="-106.469440960">
        <ele>2056.000</ele>
        <time>2019-11-18T20:55:58Z</time>
      </trkpt>
      <trkpt lat="35.133660600" lon="-106.469488090">
        <ele>2055.000</ele>
        <time>2019-11-18T20:56:04Z</time>
      </trkpt>
      <trkpt lat="35.133648580" lon="-106.469542210">
        <ele>2054.000</ele>
        <time>2019-11-18T20:56:11Z</time>
      </trkpt>
      <trkpt lat="35.133653110" lon="-106.469595190">
        <ele>2055.000</ele>
        <time>2019-11-18T20:56:17Z</time>
      </trkpt>
      <trkpt lat="35.133639830" lon="-106.469639100">
        <ele>2054.000</ele>
        <time>2019-11-18T20:56:21Z</time>
      </trkpt>
      <trkpt lat="35.133637560" lon="-106.469689960">
        <ele>2054.000</ele>
        <time>2019-11-18T20:56:27Z</time>
      </trkpt>
      <trkpt lat="35.133656940" lon="-106.469732370">
        <ele>2054.000</ele>
        <time>2019-11-18T20:56:31Z</time>
      </trkpt>
      <trkpt lat="35.133642910" lon="-106.469784730">
        <ele>2055.000</ele>
        <time>2019-11-18T20:56:35Z</time>
      </trkpt>
      <trkpt lat="35.133635010" lon="-106.469828230">
        <ele>2053.000</ele>
        <time>2019-11-18T20:56:38Z</time>
      </trkpt>
      <trkpt lat="35.133608400" lon="-106.469875990">
        <ele>2052.000</ele>
        <time>2019-11-18T20:56:44Z</time>
      </trkpt>
      <trkpt lat="35.133595920" lon="-106.469945340">
        <ele>2047.000</ele>
        <time>2019-11-18T20:56:48Z</time>
      </trkpt>
      <trkpt lat="35.133608370" lon="-106.469998060">
        <ele>2046.000</ele>
        <time>2019-11-18T20:56:52Z</time>
      </trkpt>
      <trkpt lat="35.133606010" lon="-106.470046880">
        <ele>2046.000</ele>
        <time>2019-11-18T20:56:55Z</time>
      </trkpt>
      <trkpt lat="35.133625510" lon="-106.470088050">
        <ele>2044.000</ele>
        <time>2019-11-18T20:56:58Z</time>
      </trkpt>
      <trkpt lat="35.133616290" lon="-106.470136890">
        <ele>2050.000</ele>
        <time>2019-11-18T20:57:03Z</time>
      </trkpt>
      <trkpt lat="35.133648200" lon="-106.470162990">
        <ele>2053.000</ele>
        <time>2019-11-18T20:57:07Z</time>
      </trkpt>
      <trkpt lat="35.133685060" lon="-106.470166260">
        <ele>2057.000</ele>
        <time>2019-11-18T20:57:27Z</time>
      </trkpt>
      <trkpt lat="35.133711350" lon="-106.470211070">
        <ele>2053.000</ele>
        <time>2019-11-18T20:57:58Z</time>
      </trkpt>
      <trkpt lat="35.133719710" lon="-106.470256580">
        <ele>2051.000</ele>
        <time>2019-11-18T20:58:04Z</time>
      </trkpt>
      <trkpt lat="35.133750310" lon="-106.470282170">
        <ele>2049.000</ele>
        <time>2019-11-18T20:58:08Z</time>
      </trkpt>
      <trkpt lat="35.133737680" lon="-106.470326370">
        <ele>2048.000</ele>
        <time>2019-11-18T20:58:12Z</time>
      </trkpt>
      <trkpt lat="35.133740290" lon="-106.470377670">
        <ele>2050.000</ele>
        <time>2019-11-18T20:58:16Z</time>
      </trkpt>
      <trkpt lat="35.133750050" lon="-106.470420340">
        <ele>2050.000</ele>
        <time>2019-11-18T20:58:21Z</time>
      </trkpt>
      <trkpt lat="35.133751220" lon="-106.470470320">
        <ele>2055.000</ele>
        <time>2019-11-18T20:58:30Z</time>
      </trkpt>
      <trkpt lat="35.133741150" lon="-106.470515610">
        <ele>2052.000</ele>
        <time>2019-11-18T20:58:39Z</time>
      </trkpt>
      <trkpt lat="35.133763030" lon="-106.470564740">
        <ele>2049.000</ele>
        <time>2019-11-18T20:58:44Z</time>
      </trkpt>
      <trkpt lat="35.133754540" lon="-106.470613830">
        <ele>2049.000</ele>
        <time>2019-11-18T20:58:49Z</time>
      </trkpt>
      <trkpt lat="35.133753760" lon="-106.470660060">
        <ele>2048.000</ele>
        <time>2019-11-18T20:58:54Z</time>
      </trkpt>
      <trkpt lat="35.133771480" lon="-106.470703610">
        <ele>2048.000</ele>
        <time>2019-11-18T20:59:12Z</time>
      </trkpt>
      <trkpt lat="35.133799320" lon="-106.470739770">
        <ele>2044.000</ele>
        <time>2019-11-18T20:59:19Z</time>
      </trkpt>
      <trkpt lat="35.133789920" lon="-106.470784240">
        <ele>2042.000</ele>
        <time>2019-11-18T20:59:21Z</time>
      </trkpt>
      <trkpt lat="35.133775660" lon="-106.470827110">
        <ele>2041.000</ele>
        <time>2019-11-18T20:59:24Z</time>
      </trkpt>
      <trkpt lat="35.133787590" lon="-106.470870480">
        <ele>2040.000</ele>
        <time>2019-11-18T20:59:33Z</time>
      </trkpt>
      <trkpt lat="35.133771150" lon="-106.470916780">
        <ele>2040.000</ele>
        <time>2019-11-18T20:59:37Z</time>
      </trkpt>
      <trkpt lat="35.133785080" lon="-106.470973600">
        <ele>2040.000</ele>
        <time>2019-11-18T20:59:41Z</time>
      </trkpt>
      <trkpt lat="35.133803550" lon="-106.471012490">
        <ele>2039.000</ele>
        <time>2019-11-18T20:59:44Z</time>
      </trkpt>
      <trkpt lat="35.133828890" lon="-106.471051470">
        <ele>2039.000</ele>
        <time>2019-11-18T20:59:48Z</time>
      </trkpt>
      <trkpt lat="35.133866300" lon="-106.471066300">
        <ele>2037.000</ele>
        <time>2019-11-18T21:00:05Z</time>
      </trkpt>
      <trkpt lat="35.133841710" lon="-106.471102680">
        <ele>2037.000</ele>
        <time>2019-11-18T21:00:12Z</time>
      </trkpt>
      <trkpt lat="35.133840110" lon="-106.471150550">
        <ele>2037.000</ele>
        <time>2019-11-18T21:00:16Z</time>
      </trkpt>
      <trkpt lat="35.133825510" lon="-106.471200580">
        <ele>2036.000</ele>
        <time>2019-11-18T21:00:20Z</time>
      </trkpt>
      <trkpt lat="35.133835840" lon="-106.471252120">
        <ele>2035.000</ele>
        <time>2019-11-18T21:00:24Z</time>
      </trkpt>
      <trkpt lat="35.133844360" lon="-106.471297420">
        <ele>2035.000</ele>
        <time>2019-11-18T21:00:28Z</time>
      </trkpt>
      <trkpt lat="35.133838880" lon="-106.471345210">
        <ele>2034.000</ele>
        <time>2019-11-18T21:00:33Z</time>
      </trkpt>
      <trkpt lat="35.133837930" lon="-106.471389150">
        <ele>2034.000</ele>
        <time>2019-11-18T21:00:37Z</time>
      </trkpt>
      <trkpt lat="35.133866920" lon="-106.471425520">
        <ele>2030.000</ele>
        <time>2019-11-18T21:00:41Z</time>
      </trkpt>
      <trkpt lat="35.133872940" lon="-106.471476530">
        <ele>2029.000</ele>
        <time>2019-11-18T21:00:47Z</time>
      </trkpt>
      <trkpt lat="35.133880810" lon="-106.471523260">
        <ele>2029.000</ele>
        <time>2019-11-18T21:00:52Z</time>
      </trkpt>
      <trkpt lat="35.133918310" lon="-106.471557410">
        <ele>2025.000</ele>
        <time>2019-11-18T21:01:13Z</time>
      </trkpt>
      <trkpt lat="35.133943750" lon="-106.471590510">
        <ele>2025.000</ele>
        <time>2019-11-18T21:01:16Z</time>
      </trkpt>
      <trkpt lat="35.133981820" lon="-106.471616200">
        <ele>2024.000</ele>
        <time>2019-11-18T21:01:20Z</time>
      </trkpt>
      <trkpt lat="35.134015620" lon="-106.471655960">
        <ele>2024.000</ele>
        <time>2019-11-18T21:01:25Z</time>
      </trkpt>
      <trkpt lat="35.134041140" lon="-106.471695150">
        <ele>2024.000</ele>
        <time>2019-11-18T21:01:31Z</time>
      </trkpt>
      <trkpt lat="35.134075630" lon="-106.471726170">
        <ele>2024.000</ele>
        <time>2019-11-18T21:01:37Z</time>
      </trkpt>
      <trkpt lat="35.134108070" lon="-106.471749300">
        <ele>2025.000</ele>
        <time>2019-11-18T21:01:52Z</time>
      </trkpt>
      <trkpt lat="35.134072920" lon="-106.471772390">
        <ele>2025.000</ele>
        <time>2019-11-18T21:02:07Z</time>
      </trkpt>
      <trkpt lat="35.134034870" lon="-106.471786160">
        <ele>2024.000</ele>
        <time>2019-11-18T21:02:13Z</time>
      </trkpt>
      <trkpt lat="35.133990500" lon="-106.471789170">
        <ele>2022.000</ele>
        <time>2019-11-18T21:02:19Z</time>
      </trkpt>
      <trkpt lat="35.133954290" lon="-106.471793000">
        <ele>2019.000</ele>
        <time>2019-11-18T21:02:23Z</time>
      </trkpt>
      <trkpt lat="35.133915060" lon="-106.471786870">
        <ele>2019.000</ele>
        <time>2019-11-18T21:02:27Z</time>
      </trkpt>
      <trkpt lat="35.133875270" lon="-106.471785640">
        <ele>2019.000</ele>
        <time>2019-11-18T21:02:32Z</time>
      </trkpt>
      <trkpt lat="35.133845150" lon="-106.471809930">
        <ele>2018.000</ele>
        <time>2019-11-18T21:02:35Z</time>
      </trkpt>
      <trkpt lat="35.133843420" lon="-106.471859710">
        <ele>2016.000</ele>
        <time>2019-11-18T21:02:39Z</time>
      </trkpt>
      <trkpt lat="35.133863320" lon="-106.471902140">
        <ele>2014.000</ele>
        <time>2019-11-18T21:02:43Z</time>
      </trkpt>
      <trkpt lat="35.133899090" lon="-106.471946040">
        <ele>2011.000</ele>
        <time>2019-11-18T21:02:49Z</time>
      </trkpt>
      <trkpt lat="35.133908670" lon="-106.471996680">
        <ele>2013.000</ele>
        <time>2019-11-18T21:02:51Z</time>
      </trkpt>
      <trkpt lat="35.133942090" lon="-106.472014890">
        <ele>2011.000</ele>
        <time>2019-11-18T21:02:54Z</time>
      </trkpt>
      <trkpt lat="35.133952700" lon="-106.472067080">
        <ele>2011.000</ele>
        <time>2019-11-18T21:03:00Z</time>
      </trkpt>
      <trkpt lat="35.133971220" lon="-106.472114260">
        <ele>2005.000</ele>
        <time>2019-11-18T21:03:07Z</time>
      </trkpt>
      <trkpt lat="35.134007340" lon="-106.472125680">
        <ele>2003.000</ele>
        <time>2019-11-18T21:03:11Z</time>
      </trkpt>
      <trkpt lat="35.134036070" lon="-106.472153830">
        <ele>2002.000</ele>
        <time>2019-11-18T21:03:16Z</time>
      </trkpt>
      <trkpt lat="35.134067620" lon="-106.472179140">
        <ele>2002.000</ele>
        <time>2019-11-18T21:03:20Z</time>
      </trkpt>
      <trkpt lat="35.134106310" lon="-106.472197410">
        <ele>2001.000</ele>
        <time>2019-11-18T21:03:23Z</time>
      </trkpt>
      <trkpt lat="35.134147170" lon="-106.472207390">
        <ele>2002.000</ele>
        <time>2019-11-18T21:03:26Z</time>
      </trkpt>
      <trkpt lat="35.134176050" lon="-106.472248110">
        <ele>2003.000</ele>
        <time>2019-11-18T21:03:29Z</time>
      </trkpt>
      <trkpt lat="35.134225540" lon="-106.472249580">
        <ele>2001.000</ele>
        <time>2019-11-18T21:03:32Z</time>
      </trkpt>
      <trkpt lat="35.134262930" lon="-106.472249910">
        <ele>2002.000</ele>
        <time>2019-11-18T21:03:45Z</time>
      </trkpt>
      <trkpt lat="35.134256380" lon="-106.472297700">
        <ele>2000.000</ele>
        <time>2019-11-18T21:03:58Z</time>
      </trkpt>
      <trkpt lat="35.134237000" lon="-106.472343630">
        <ele>2000.000</ele>
        <time>2019-11-18T21:04:02Z</time>
      </trkpt>
      <trkpt lat="35.134234550" lon="-106.472391020">
        <ele>1999.000</ele>
        <time>2019-11-18T21:04:05Z</time>
      </trkpt>
      <trkpt lat="35.134263640" lon="-106.472438230">
        <ele>1997.000</ele>
        <time>2019-11-18T21:04:08Z</time>
      </trkpt>
      <trkpt lat="35.134277950" lon="-106.472482610">
        <ele>1995.000</ele>
        <time>2019-11-18T21:04:12Z</time>
      </trkpt>
      <trkpt lat="35.134285190" lon="-106.472547500">
        <ele>1993.000</ele>
        <time>2019-11-18T21:04:16Z</time>
      </trkpt>
      <trkpt lat="35.134268560" lon="-106.472586770">
        <ele>1994.000</ele>
        <time>2019-11-18T21:04:19Z</time>
      </trkpt>
      <trkpt lat="35.134241860" lon="-106.472628830">
        <ele>1990.000</ele>
        <time>2019-11-18T21:04:24Z</time>
      </trkpt>
      <trkpt lat="35.134208800" lon="-106.472655500">
        <ele>1988.000</ele>
        <time>2019-11-18T21:04:29Z</time>
      </trkpt>
      <trkpt lat="35.134180500" lon="-106.472690860">
        <ele>1987.000</ele>
        <time>2019-11-18T21:04:32Z</time>
      </trkpt>
      <trkpt lat="35.134167590" lon="-106.472733260">
        <ele>1984.000</ele>
        <time>2019-11-18T21:04:35Z</time>
      </trkpt>
      <trkpt lat="35.134147900" lon="-106.472776210">
        <ele>1982.000</ele>
        <time>2019-11-18T21:04:38Z</time>
      </trkpt>
      <trkpt lat="35.134145330" lon="-106.472820120">
        <ele>1983.000</ele>
        <time>2019-11-18T21:04:41Z</time>
      </trkpt>
      <trkpt lat="35.134115740" lon="-106.472855930">
        <ele>1982.000</ele>
        <time>2019-11-18T21:04:44Z</time>
      </trkpt>
      <trkpt lat="35.134099720" lon="-106.472906160">
        <ele>1982.000</ele>
        <time>2019-11-18T21:04:48Z</time>
      </trkpt>
      <trkpt lat="35.134134380" lon="-106.472949560">
        <ele>1983.000</ele>
        <time>2019-11-18T21:04:50Z</time>
      </trkpt>
      <trkpt lat="35.134114990" lon="-106.472995590">
        <ele>1982.000</ele>
        <time>2019-11-18T21:04:54Z</time>
      </trkpt>
      <trkpt lat="35.134093380" lon="-106.473032480">
        <ele>1981.000</ele>
        <time>2019-11-18T21:04:57Z</time>
      </trkpt>
      <trkpt lat="35.134067920" lon="-106.473079760">
        <ele>1979.000</ele>
        <time>2019-11-18T21:05:01Z</time>
      </trkpt>
      <trkpt lat="35.134066030" lon="-106.473134660">
        <ele>1980.000</ele>
        <time>2019-11-18T21:05:06Z</time>
      </trkpt>
      <trkpt lat="35.134042730" lon="-106.473169920">
        <ele>1980.000</ele>
        <time>2019-11-18T21:05:09Z</time>
      </trkpt>
      <trkpt lat="35.134048770" lon="-106.473213540">
        <ele>1979.000</ele>
        <time>2019-11-18T21:05:15Z</time>
      </trkpt>
      <trkpt lat="35.134059080" lon="-106.473263180">
        <ele>1979.000</ele>
        <time>2019-11-18T21:05:19Z</time>
      </trkpt>
      <trkpt lat="35.134077800" lon="-106.473303490">
        <ele>1980.000</ele>
        <time>2019-11-18T21:05:22Z</time>
      </trkpt>
      <trkpt lat="35.134109230" lon="-106.473334980">
        <ele>1979.000</ele>
        <time>2019-11-18T21:05:27Z</time>
      </trkpt>
      <trkpt lat="35.134137450" lon="-106.473374280">
        <ele>1978.000</ele>
        <time>2019-11-18T21:05:30Z</time>
      </trkpt>
      <trkpt lat="35.134165340" lon="-106.473421930">
        <ele>1979.000</ele>
        <time>2019-11-18T21:05:33Z</time>
      </trkpt>
      <trkpt lat="35.134199700" lon="-106.473436290">
        <ele>1978.000</ele>
        <time>2019-11-18T21:05:35Z</time>
      </trkpt>
      <trkpt lat="35.134228390" lon="-106.473469830">
        <ele>1979.000</ele>
        <time>2019-11-18T21:05:37Z</time>
      </trkpt>
      <trkpt lat="35.134263680" lon="-106.473504030">
        <ele>1980.000</ele>
        <time>2019-11-18T21:05:41Z</time>
      </trkpt>
      <trkpt lat="35.134286390" lon="-106.473541150">
        <ele>1976.000</ele>
        <time>2019-11-18T21:05:47Z</time>
      </trkpt>
      <trkpt lat="35.134306410" lon="-106.473599790">
        <ele>1976.000</ele>
        <time>2019-11-18T21:05:52Z</time>
      </trkpt>
      <trkpt lat="35.134311570" lon="-106.473653040">
        <ele>1974.000</ele>
        <time>2019-11-18T21:05:57Z</time>
      </trkpt>
      <trkpt lat="35.134328000" lon="-106.473703260">
        <ele>1974.000</ele>
        <time>2019-11-18T21:06:01Z</time>
      </trkpt>
      <trkpt lat="35.134357730" lon="-106.473739280">
        <ele>1973.000</ele>
        <time>2019-11-18T21:06:04Z</time>
      </trkpt>
      <trkpt lat="35.134394130" lon="-106.473771030">
        <ele>1975.000</ele>
        <time>2019-11-18T21:06:16Z</time>
      </trkpt>
      <trkpt lat="35.134433020" lon="-106.473776360">
        <ele>1975.000</ele>
        <time>2019-11-18T21:06:19Z</time>
      </trkpt>
      <trkpt lat="35.134463880" lon="-106.473806930">
        <ele>1975.000</ele>
        <time>2019-11-18T21:06:22Z</time>
      </trkpt>
      <trkpt lat="35.134499610" lon="-106.473828020">
        <ele>1976.000</ele>
        <time>2019-11-18T21:06:26Z</time>
      </trkpt>
      <trkpt lat="35.134534870" lon="-106.473818310">
        <ele>1974.000</ele>
        <time>2019-11-18T21:06:36Z</time>
      </trkpt>
      <trkpt lat="35.134565240" lon="-106.473856010">
        <ele>1974.000</ele>
        <time>2019-11-18T21:06:42Z</time>
      </trkpt>
      <trkpt lat="35.134593330" lon="-106.473815580">
        <ele>1973.000</ele>
        <time>2019-11-18T21:06:47Z</time>
      </trkpt>
      <trkpt lat="35.134617560" lon="-106.473762610">
        <ele>1972.000</ele>
        <time>2019-11-18T21:06:51Z</time>
      </trkpt>
      <trkpt lat="35.134641300" lon="-106.473723760">
        <ele>1971.000</ele>
        <time>2019-11-18T21:06:54Z</time>
      </trkpt>
      <trkpt lat="35.134674350" lon="-106.473681510">
        <ele>1971.000</ele>
        <time>2019-11-18T21:06:58Z</time>
      </trkpt>
      <trkpt lat="35.134715780" lon="-106.473681650">
        <ele>1969.000</ele>
        <time>2019-11-18T21:07:01Z</time>
      </trkpt>
      <trkpt lat="35.134753620" lon="-106.473669240">
        <ele>1968.000</ele>
        <time>2019-11-18T21:07:05Z</time>
      </trkpt>
      <trkpt lat="35.134797020" lon="-106.473675890">
        <ele>1968.000</ele>
        <time>2019-11-18T21:07:09Z</time>
      </trkpt>
      <trkpt lat="35.134835930" lon="-106.473689520">
        <ele>1968.000</ele>
        <time>2019-11-18T21:07:15Z</time>
      </trkpt>
      <trkpt lat="35.134871990" lon="-106.473693230">
        <ele>1967.000</ele>
        <time>2019-11-18T21:07:19Z</time>
      </trkpt>
      <trkpt lat="35.134913200" lon="-106.473694040">
        <ele>1967.000</ele>
        <time>2019-11-18T21:07:23Z</time>
      </trkpt>
      <trkpt lat="35.134956410" lon="-106.473684870">
        <ele>1966.000</ele>
        <time>2019-11-18T21:07:26Z</time>
      </trkpt>
      <trkpt lat="35.134998690" lon="-106.473686660">
        <ele>1966.000</ele>
        <time>2019-11-18T21:07:30Z</time>
      </trkpt>
      <trkpt lat="35.135039640" lon="-106.473702330">
        <ele>1966.000</ele>
        <time>2019-11-18T21:07:36Z</time>
      </trkpt>
      <trkpt lat="35.135080650" lon="-106.473676720">
        <ele>1964.000</ele>
        <time>2019-11-18T21:07:40Z</time>
      </trkpt>
      <trkpt lat="35.135121670" lon="-106.473673350">
        <ele>1964.000</ele>
        <time>2019-11-18T21:07:43Z</time>
      </trkpt>
      <trkpt lat="35.135155340" lon="-106.473649700">
        <ele>1964.000</ele>
        <time>2019-11-18T21:07:46Z</time>
      </trkpt>
      <trkpt lat="35.135193480" lon="-106.473637320">
        <ele>1963.000</ele>
        <time>2019-11-18T21:07:49Z</time>
      </trkpt>
      <trkpt lat="35.135229800" lon="-106.473609290">
        <ele>1963.000</ele>
        <time>2019-11-18T21:07:52Z</time>
      </trkpt>
      <trkpt lat="35.135257880" lon="-106.473571200">
        <ele>1963.000</ele>
        <time>2019-11-18T21:07:55Z</time>
      </trkpt>
      <trkpt lat="35.135283450" lon="-106.473540040">
        <ele>1963.000</ele>
        <time>2019-11-18T21:07:58Z</time>
      </trkpt>
      <trkpt lat="35.135309960" lon="-106.473495410">
        <ele>1962.000</ele>
        <time>2019-11-18T21:08:02Z</time>
      </trkpt>
      <trkpt lat="35.135340760" lon="-106.473465760">
        <ele>1961.000</ele>
        <time>2019-11-18T21:08:05Z</time>
      </trkpt>
      <trkpt lat="35.135363460" lon="-106.473428060">
        <ele>1960.000</ele>
        <time>2019-11-18T21:08:08Z</time>
      </trkpt>
      <trkpt lat="35.135385680" lon="-106.473391690">
        <ele>1961.000</ele>
        <time>2019-11-18T21:08:19Z</time>
      </trkpt>
      <trkpt lat="35.135420800" lon="-106.473347600">
        <ele>1960.000</ele>
        <time>2019-11-18T21:08:23Z</time>
      </trkpt>
      <trkpt lat="35.135459900" lon="-106.473318040">
        <ele>1960.000</ele>
        <time>2019-11-18T21:08:27Z</time>
      </trkpt>
      <trkpt lat="35.135490970" lon="-106.473287750">
        <ele>1960.000</ele>
        <time>2019-11-18T21:08:31Z</time>
      </trkpt>
      <trkpt lat="35.135524640" lon="-106.473263810">
        <ele>1959.000</ele>
        <time>2019-11-18T21:08:34Z</time>
      </trkpt>
      <trkpt lat="35.135566340" lon="-106.473242750">
        <ele>1959.000</ele>
        <time>2019-11-18T21:08:39Z</time>
      </trkpt>
      <trkpt lat="35.135618890" lon="-106.473246740">
        <ele>1959.000</ele>
        <time>2019-11-18T21:08:43Z</time>
      </trkpt>
      <trkpt lat="35.135665340" lon="-106.473256030">
        <ele>1960.000</ele>
        <time>2019-11-18T21:08:47Z</time>
      </trkpt>
      <trkpt lat="35.135702930" lon="-106.473252470">
        <ele>1960.000</ele>
        <time>2019-11-18T21:08:50Z</time>
      </trkpt>
      <trkpt lat="35.135744010" lon="-106.473261990">
        <ele>1962.000</ele>
        <time>2019-11-18T21:08:54Z</time>
      </trkpt>
      <trkpt lat="35.135782790" lon="-106.473278130">
        <ele>1963.000</ele>
        <time>2019-11-18T21:08:58Z</time>
      </trkpt>
      <trkpt lat="35.135798950" lon="-106.473317800">
        <ele>1964.000</ele>
        <time>2019-11-18T21:09:02Z</time>
      </trkpt>
      <trkpt lat="35.135830750" lon="-106.473348960">
        <ele>1962.000</ele>
        <time>2019-11-18T21:09:06Z</time>
      </trkpt>
      <trkpt lat="35.135874160" lon="-106.473364260">
        <ele>1964.000</ele>
        <time>2019-11-18T21:09:10Z</time>
      </trkpt>
      <trkpt lat="35.135905810" lon="-106.473401920">
        <ele>1964.000</ele>
        <time>2019-11-18T21:09:13Z</time>
      </trkpt>
      <trkpt lat="35.135947450" lon="-106.473415210">
        <ele>1965.000</ele>
        <time>2019-11-18T21:09:17Z</time>
      </trkpt>
      <trkpt lat="35.135987030" lon="-106.473399080">
        <ele>1964.000</ele>
        <time>2019-11-18T21:09:20Z</time>
      </trkpt>
      <trkpt lat="35.136033410" lon="-106.473414310">
        <ele>1963.000</ele>
        <time>2019-11-18T21:09:23Z</time>
      </trkpt>
      <trkpt lat="35.136056180" lon="-106.473448950">
        <ele>1962.000</ele>
        <time>2019-11-18T21:09:25Z</time>
      </trkpt>
      <trkpt lat="35.136089610" lon="-106.473481150">
        <ele>1963.000</ele>
        <time>2019-11-18T21:09:28Z</time>
      </trkpt>
      <trkpt lat="35.136109820" lon="-106.473520450">
        <ele>1965.000</ele>
        <time>2019-11-18T21:09:32Z</time>
      </trkpt>
      <trkpt lat="35.136143110" lon="-106.473557960">
        <ele>1963.000</ele>
        <time>2019-11-18T21:09:36Z</time>
      </trkpt>
      <trkpt lat="35.136160550" lon="-106.473597710">
        <ele>1960.000</ele>
        <time>2019-11-18T21:09:41Z</time>
      </trkpt>
      <trkpt lat="35.136169920" lon="-106.473651530">
        <ele>1961.000</ele>
        <time>2019-11-18T21:09:47Z</time>
      </trkpt>
      <trkpt lat="35.136175360" lon="-106.473698320">
        <ele>1960.000</ele>
        <time>2019-11-18T21:09:51Z</time>
      </trkpt>
      <trkpt lat="35.136189190" lon="-106.473746870">
        <ele>1959.000</ele>
        <time>2019-11-18T21:09:55Z</time>
      </trkpt>
      <trkpt lat="35.136174680" lon="-106.473794090">
        <ele>1958.000</ele>
        <time>2019-11-18T21:09:59Z</time>
      </trkpt>
      <trkpt lat="35.136168340" lon="-106.473841940">
        <ele>1958.000</ele>
        <time>2019-11-18T21:10:02Z</time>
      </trkpt>
      <trkpt lat="35.136151160" lon="-106.473888300">
        <ele>1959.000</ele>
        <time>2019-11-18T21:10:06Z</time>
      </trkpt>
      <trkpt lat="35.136140660" lon="-106.473938220">
        <ele>1957.000</ele>
        <time>2019-11-18T21:10:10Z</time>
      </trkpt>
      <trkpt lat="35.136130580" lon="-106.473990660">
        <ele>1958.000</ele>
        <time>2019-11-18T21:10:16Z</time>
      </trkpt>
      <trkpt lat="35.136129830" lon="-106.474048450">
        <ele>1958.000</ele>
        <time>2019-11-18T21:10:20Z</time>
      </trkpt>
      <trkpt lat="35.136126620" lon="-106.474094300">
        <ele>1957.000</ele>
        <time>2019-11-18T21:10:24Z</time>
      </trkpt>
      <trkpt lat="35.136146570" lon="-106.474138920">
        <ele>1956.000</ele>
        <time>2019-11-18T21:10:28Z</time>
      </trkpt>
      <trkpt lat="35.136152560" lon="-106.474198580">
        <ele>1956.000</ele>
        <time>2019-11-18T21:10:32Z</time>
      </trkpt>
      <trkpt lat="35.136160260" lon="-106.474257410">
        <ele>1957.000</ele>
        <time>2019-11-18T21:10:36Z</time>
      </trkpt>
      <trkpt lat="35.136169320" lon="-106.474301560">
        <ele>1956.000</ele>
        <time>2019-11-18T21:10:39Z</time>
      </trkpt>
      <trkpt lat="35.136181830" lon="-106.474353140">
        <ele>1955.000</ele>
        <time>2019-11-18T21:10:43Z</time>
      </trkpt>
      <trkpt lat="35.136193600" lon="-106.474400090">
        <ele>1956.000</ele>
        <time>2019-11-18T21:10:48Z</time>
      </trkpt>
      <trkpt lat="35.136224280" lon="-106.474423800">
        <ele>1956.000</ele>
        <time>2019-11-18T21:10:51Z</time>
      </trkpt>
      <trkpt lat="35.136257870" lon="-106.474439940">
        <ele>1955.000</ele>
        <time>2019-11-18T21:10:55Z</time>
      </trkpt>
      <trkpt lat="35.136296560" lon="-106.474453590">
        <ele>1954.000</ele>
        <time>2019-11-18T21:10:58Z</time>
      </trkpt>
      <trkpt lat="35.136334890" lon="-106.474480310">
        <ele>1953.000</ele>
        <time>2019-11-18T21:11:02Z</time>
      </trkpt>
      <trkpt lat="35.136375540" lon="-106.474521800">
        <ele>1954.000</ele>
        <time>2019-11-18T21:11:06Z</time>
      </trkpt>
      <trkpt lat="35.136411440" lon="-106.474545630">
        <ele>1953.000</ele>
        <time>2019-11-18T21:11:09Z</time>
      </trkpt>
      <trkpt lat="35.136449770" lon="-106.474551200">
        <ele>1953.000</ele>
        <time>2019-11-18T21:11:15Z</time>
      </trkpt>
      <trkpt lat="35.136499160" lon="-106.474559300">
        <ele>1953.000</ele>
        <time>2019-11-18T21:11:19Z</time>
      </trkpt>
      <trkpt lat="35.136544840" lon="-106.474580610">
        <ele>1955.000</ele>
        <time>2019-11-18T21:11:24Z</time>
      </trkpt>
      <trkpt lat="35.136580340" lon="-106.474621660">
        <ele>1953.000</ele>
        <time>2019-11-18T21:11:28Z</time>
      </trkpt>
      <trkpt lat="35.136612850" lon="-106.474655940">
        <ele>1952.000</ele>
        <time>2019-11-18T21:11:32Z</time>
      </trkpt>
      <trkpt lat="35.136631470" lon="-106.474707750">
        <ele>1952.000</ele>
        <time>2019-11-18T21:11:36Z</time>
      </trkpt>
      <trkpt lat="35.136666220" lon="-106.474745380">
        <ele>1952.000</ele>
        <time>2019-11-18T21:11:42Z</time>
      </trkpt>
      <trkpt lat="35.136676030" lon="-106.474799720">
        <ele>1953.000</ele>
        <time>2019-11-18T21:11:46Z</time>
      </trkpt>
      <trkpt lat="35.136695990" lon="-106.474840390">
        <ele>1954.000</ele>
        <time>2019-11-18T21:11:58Z</time>
      </trkpt>
      <trkpt lat="35.136730940" lon="-106.474862780">
        <ele>1951.000</ele>
        <time>2019-11-18T21:12:01Z</time>
      </trkpt>
      <trkpt lat="35.136772390" lon="-106.474889710">
        <ele>1948.000</ele>
        <time>2019-11-18T21:12:04Z</time>
      </trkpt>
      <trkpt lat="35.136809800" lon="-106.474903480">
        <ele>1948.000</ele>
        <time>2019-11-18T21:12:09Z</time>
      </trkpt>
      <trkpt lat="35.136836000" lon="-106.474939590">
        <ele>1947.000</ele>
        <time>2019-11-18T21:12:12Z</time>
      </trkpt>
      <trkpt lat="35.136870710" lon="-106.474966110">
        <ele>1949.000</ele>
        <time>2019-11-18T21:12:15Z</time>
      </trkpt>
      <trkpt lat="35.136903650" lon="-106.474999330">
        <ele>1950.000</ele>
        <time>2019-11-18T21:12:19Z</time>
      </trkpt>
      <trkpt lat="35.136940620" lon="-106.475022720">
        <ele>1950.000</ele>
        <time>2019-11-18T21:12:22Z</time>
      </trkpt>
      <trkpt lat="35.136986280" lon="-106.475036960">
        <ele>1949.000</ele>
        <time>2019-11-18T21:12:26Z</time>
      </trkpt>
      <trkpt lat="35.136991070" lon="-106.475087250">
        <ele>1949.000</ele>
        <time>2019-11-18T21:12:30Z</time>
      </trkpt>
      <trkpt lat="35.136990640" lon="-106.475143660">
        <ele>1951.000</ele>
        <time>2019-11-18T21:12:34Z</time>
      </trkpt>
      <trkpt lat="35.136969980" lon="-106.475181440">
        <ele>1952.000</ele>
        <time>2019-11-18T21:12:38Z</time>
      </trkpt>
      <trkpt lat="35.136953770" lon="-106.475228050">
        <ele>1950.000</ele>
        <time>2019-11-18T21:12:45Z</time>
      </trkpt>
      <trkpt lat="35.136924700" lon="-106.475260350">
        <ele>1949.000</ele>
        <time>2019-11-18T21:12:49Z</time>
      </trkpt>
      <trkpt lat="35.136887880" lon="-106.475287750">
        <ele>1950.000</ele>
        <time>2019-11-18T21:12:53Z</time>
      </trkpt>
      <trkpt lat="35.136860330" lon="-106.475338180">
        <ele>1949.000</ele>
        <time>2019-11-18T21:12:57Z</time>
      </trkpt>
      <trkpt lat="35.136860880" lon="-106.475389660">
        <ele>1948.000</ele>
        <time>2019-11-18T21:13:00Z</time>
      </trkpt>
      <trkpt lat="35.136862640" lon="-106.475440690">
        <ele>1948.000</ele>
        <time>2019-11-18T21:13:04Z</time>
      </trkpt>
      <trkpt lat="35.136885630" lon="-106.475474630">
        <ele>1947.000</ele>
        <time>2019-11-18T21:13:07Z</time>
      </trkpt>
      <trkpt lat="35.136917590" lon="-106.475496350">
        <ele>1948.000</ele>
        <time>2019-11-18T21:13:10Z</time>
      </trkpt>
      <trkpt lat="35.136939940" lon="-106.475544210">
        <ele>1947.000</ele>
        <time>2019-11-18T21:13:14Z</time>
      </trkpt>
      <trkpt lat="35.136943480" lon="-106.475592040">
        <ele>1948.000</ele>
        <time>2019-11-18T21:13:17Z</time>
      </trkpt>
      <trkpt lat="35.136960940" lon="-106.475634840">
        <ele>1948.000</ele>
        <time>2019-11-18T21:13:21Z</time>
      </trkpt>
      <trkpt lat="35.136971350" lon="-106.475683390">
        <ele>1947.000</ele>
        <time>2019-11-18T21:13:25Z</time>
      </trkpt>
      <trkpt lat="35.136972950" lon="-106.475727970">
        <ele>1947.000</ele>
        <time>2019-11-18T21:13:28Z</time>
      </trkpt>
      <trkpt lat="35.137000870" lon="-106.475772520">
        <ele>1946.000</ele>
        <time>2019-11-18T21:13:32Z</time>
      </trkpt>
      <trkpt lat="35.137021920" lon="-106.475821880">
        <ele>1946.000</ele>
        <time>2019-11-18T21:13:36Z</time>
      </trkpt>
      <trkpt lat="35.137022240" lon="-106.475867730">
        <ele>1945.000</ele>
        <time>2019-11-18T21:13:40Z</time>
      </trkpt>
      <trkpt lat="35.137046480" lon="-106.475908090">
        <ele>1946.000</ele>
        <time>2019-11-18T21:13:44Z</time>
      </trkpt>
      <trkpt lat="35.137044180" lon="-106.475955870">
        <ele>1945.000</ele>
        <time>2019-11-18T21:13:47Z</time>
      </trkpt>
      <trkpt lat="35.137067610" lon="-106.475996090">
        <ele>1946.000</ele>
        <time>2019-11-18T21:13:50Z</time>
      </trkpt>
      <trkpt lat="35.137095520" lon="-106.476031730">
        <ele>1946.000</ele>
        <time>2019-11-18T21:13:53Z</time>
      </trkpt>
      <trkpt lat="35.137119360" lon="-106.476076240">
        <ele>1946.000</ele>
        <time>2019-11-18T21:13:58Z</time>
      </trkpt>
      <trkpt lat="35.137127000" lon="-106.476132000">
        <ele>1945.000</ele>
        <time>2019-11-18T21:14:02Z</time>
      </trkpt>
      <trkpt lat="35.137146640" lon="-106.476172150">
        <ele>1946.000</ele>
        <time>2019-11-18T21:14:06Z</time>
      </trkpt>
      <trkpt lat="35.137171060" lon="-106.476220180">
        <ele>1946.000</ele>
        <time>2019-11-18T21:14:11Z</time>
      </trkpt>
      <trkpt lat="35.137182860" lon="-106.476267130">
        <ele>1944.000</ele>
        <time>2019-11-18T21:14:14Z</time>
      </trkpt>
      <trkpt lat="35.137213480" lon="-106.476304720">
        <ele>1943.000</ele>
        <time>2019-11-18T21:14:17Z</time>
      </trkpt>
      <trkpt lat="35.137249860" lon="-106.476326130">
        <ele>1941.000</ele>
        <time>2019-11-18T21:14:20Z</time>
      </trkpt>
      <trkpt lat="35.137288160" lon="-106.476352750">
        <ele>1939.000</ele>
        <time>2019-11-18T21:14:24Z</time>
      </trkpt>
      <trkpt lat="35.137321420" lon="-106.476377550">
        <ele>1938.000</ele>
        <time>2019-11-18T21:14:28Z</time>
      </trkpt>
      <trkpt lat="35.137328900" lon="-106.476429480">
        <ele>1939.000</ele>
        <time>2019-11-18T21:14:32Z</time>
      </trkpt>
      <trkpt lat="35.137353340" lon="-106.476471990">
        <ele>1939.000</ele>
        <time>2019-11-18T21:14:36Z</time>
      </trkpt>
      <trkpt lat="35.137384220" lon="-106.476495470">
        <ele>1938.000</ele>
        <time>2019-11-18T21:14:39Z</time>
      </trkpt>
      <trkpt lat="35.137377790" lon="-106.476544020">
        <ele>1937.000</ele>
        <time>2019-11-18T21:14:44Z</time>
      </trkpt>
      <trkpt lat="35.137403040" lon="-106.476583710">
        <ele>1937.000</ele>
        <time>2019-11-18T21:14:48Z</time>
      </trkpt>
      <trkpt lat="35.137437660" lon="-106.476614870">
        <ele>1937.000</ele>
        <time>2019-11-18T21:14:52Z</time>
      </trkpt>
      <trkpt lat="35.137464140" lon="-106.476658130">
        <ele>1937.000</ele>
        <time>2019-11-18T21:14:56Z</time>
      </trkpt>
      <trkpt lat="35.137484150" lon="-106.476704320">
        <ele>1936.000</ele>
        <time>2019-11-18T21:15:00Z</time>
      </trkpt>
      <trkpt lat="35.137513230" lon="-106.476731220">
        <ele>1935.000</ele>
        <time>2019-11-18T21:15:04Z</time>
      </trkpt>
      <trkpt lat="35.137531920" lon="-106.476778930">
        <ele>1933.000</ele>
        <time>2019-11-18T21:15:08Z</time>
      </trkpt>
      <trkpt lat="35.137553690" lon="-106.476828300">
        <ele>1932.000</ele>
        <time>2019-11-18T21:15:13Z</time>
      </trkpt>
      <trkpt lat="35.137581380" lon="-106.476860210">
        <ele>1933.000</ele>
        <time>2019-11-18T21:15:17Z</time>
      </trkpt>
      <trkpt lat="35.137613330" lon="-106.476902630">
        <ele>1931.000</ele>
        <time>2019-11-18T21:15:21Z</time>
      </trkpt>
      <trkpt lat="35.137644320" lon="-106.476942070">
        <ele>1931.000</ele>
        <time>2019-11-18T21:15:25Z</time>
      </trkpt>
      <trkpt lat="35.137687240" lon="-106.476967990">
        <ele>1929.000</ele>
        <time>2019-11-18T21:15:28Z</time>
      </trkpt>
      <trkpt lat="35.137715100" lon="-106.476997670">
        <ele>1927.000</ele>
        <time>2019-11-18T21:15:31Z</time>
      </trkpt>
      <trkpt lat="35.137744730" lon="-106.477033950">
        <ele>1928.000</ele>
        <time>2019-11-18T21:15:35Z</time>
      </trkpt>
      <trkpt lat="35.137779200" lon="-106.477055840">
        <ele>1927.000</ele>
        <time>2019-11-18T21:15:38Z</time>
      </trkpt>
      <trkpt lat="35.137786610" lon="-106.477099320">
        <ele>1928.000</ele>
        <time>2019-11-18T21:15:41Z</time>
      </trkpt>
      <trkpt lat="35.137803300" lon="-106.477154230">
        <ele>1927.000</ele>
        <time>2019-11-18T21:15:45Z</time>
      </trkpt>
      <trkpt lat="35.137820290" lon="-106.477199980">
        <ele>1928.000</ele>
        <time>2019-11-18T21:15:50Z</time>
      </trkpt>
      <trkpt lat="35.137813600" lon="-106.477255130">
        <ele>1927.000</ele>
        <time>2019-11-18T21:15:55Z</time>
      </trkpt>
      <trkpt lat="35.137829350" lon="-106.477296920">
        <ele>1927.000</ele>
        <time>2019-11-18T21:16:03Z</time>
      </trkpt>
      <trkpt lat="35.137798440" lon="-106.477333230">
        <ele>1929.000</ele>
        <time>2019-11-18T21:16:07Z</time>
      </trkpt>
      <trkpt lat="35.137792060" lon="-106.477381570">
        <ele>1929.000</ele>
        <time>2019-11-18T21:16:11Z</time>
      </trkpt>
      <trkpt lat="35.137799580" lon="-106.477430070">
        <ele>1929.000</ele>
        <time>2019-11-18T21:16:16Z</time>
      </trkpt>
      <trkpt lat="35.137796520" lon="-106.477480460">
        <ele>1927.000</ele>
        <time>2019-11-18T21:16:20Z</time>
      </trkpt>
      <trkpt lat="35.137779850" lon="-106.477524820">
        <ele>1925.000</ele>
        <time>2019-11-18T21:16:24Z</time>
      </trkpt>
      <trkpt lat="35.137762650" lon="-106.477577300">
        <ele>1924.000</ele>
        <time>2019-11-18T21:16:28Z</time>
      </trkpt>
      <trkpt lat="35.137751130" lon="-106.477624330">
        <ele>1924.000</ele>
        <time>2019-11-18T21:16:31Z</time>
      </trkpt>
      <trkpt lat="35.137723550" lon="-106.477672150">
        <ele>1925.000</ele>
        <time>2019-11-18T21:16:35Z</time>
      </trkpt>
      <trkpt lat="35.137700900" lon="-106.477720150">
        <ele>1924.000</ele>
        <time>2019-11-18T21:16:39Z</time>
      </trkpt>
      <trkpt lat="35.137675990" lon="-106.477766480">
        <ele>1923.000</ele>
        <time>2019-11-18T21:16:44Z</time>
      </trkpt>
      <trkpt lat="35.137664310" lon="-106.477816710">
        <ele>1922.000</ele>
        <time>2019-11-18T21:16:48Z</time>
      </trkpt>
      <trkpt lat="35.137640640" lon="-106.477861420">
        <ele>1921.000</ele>
        <time>2019-11-18T21:16:53Z</time>
      </trkpt>
      <trkpt lat="35.137638670" lon="-106.477909150">
        <ele>1919.000</ele>
        <time>2019-11-18T21:16:56Z</time>
      </trkpt>
      <trkpt lat="35.137633720" lon="-106.477966730">
        <ele>1918.000</ele>
        <time>2019-11-18T21:17:00Z</time>
      </trkpt>
      <trkpt lat="35.137620980" lon="-106.478010820">
        <ele>1918.000</ele>
        <time>2019-11-18T21:17:03Z</time>
      </trkpt>
      <trkpt lat="35.137605590" lon="-106.478059780">
        <ele>1918.000</ele>
        <time>2019-11-18T21:17:06Z</time>
      </trkpt>
      <trkpt lat="35.137618400" lon="-106.478106410">
        <ele>1917.000</ele>
        <time>2019-11-18T21:17:09Z</time>
      </trkpt>
      <trkpt lat="35.137629270" lon="-106.478155120">
        <ele>1917.000</ele>
        <time>2019-11-18T21:17:13Z</time>
      </trkpt>
      <trkpt lat="35.137609420" lon="-106.478198100">
        <ele>1915.000</ele>
        <time>2019-11-18T21:17:17Z</time>
      </trkpt>
      <trkpt lat="35.137583660" lon="-106.478237160">
        <ele>1917.000</ele>
        <time>2019-11-18T21:17:20Z</time>
      </trkpt>
      <trkpt lat="35.137542910" lon="-106.478262910">
        <ele>1916.000</ele>
        <time>2019-11-18T21:17:24Z</time>
      </trkpt>
      <trkpt lat="35.137504600" lon="-106.478275280">
        <ele>1916.000</ele>
        <time>2019-11-18T21:17:28Z</time>
      </trkpt>
      <trkpt lat="35.137477630" lon="-106.478305240">
        <ele>1915.000</ele>
        <time>2019-11-18T21:17:31Z</time>
      </trkpt>
      <trkpt lat="35.137435380" lon="-106.478345180">
        <ele>1914.000</ele>
        <time>2019-11-18T21:17:35Z</time>
      </trkpt>
      <trkpt lat="35.137410240" lon="-106.478383650">
        <ele>1914.000</ele>
        <time>2019-11-18T21:17:38Z</time>
      </trkpt>
      <trkpt lat="35.137387840" lon="-106.478419060">
        <ele>1913.000</ele>
        <time>2019-11-18T21:17:41Z</time>
      </trkpt>
      <trkpt lat="35.137366350" lon="-106.478457400">
        <ele>1911.000</ele>
        <time>2019-11-18T21:17:44Z</time>
      </trkpt>
      <trkpt lat="35.137343210" lon="-106.478503700">
        <ele>1912.000</ele>
        <time>2019-11-18T21:17:48Z</time>
      </trkpt>
      <trkpt lat="35.137308430" lon="-106.478523750">
        <ele>1910.000</ele>
        <time>2019-11-18T21:17:52Z</time>
      </trkpt>
      <trkpt lat="35.137280570" lon="-106.478562020">
        <ele>1909.000</ele>
        <time>2019-11-18T21:17:56Z</time>
      </trkpt>
      <trkpt lat="35.137246780" lon="-106.478581480">
        <ele>1909.000</ele>
        <time>2019-11-18T21:17:59Z</time>
      </trkpt>
      <trkpt lat="35.137210990" lon="-106.478607130">
        <ele>1908.000</ele>
        <time>2019-11-18T21:18:03Z</time>
      </trkpt>
      <trkpt lat="35.137172810" lon="-106.478625210">
        <ele>1907.000</ele>
        <time>2019-11-18T21:18:07Z</time>
      </trkpt>
      <trkpt lat="35.137137310" lon="-106.478643980">
        <ele>1905.000</ele>
        <time>2019-11-18T21:18:10Z</time>
      </trkpt>
      <trkpt lat="35.137094740" lon="-106.478663500">
        <ele>1904.000</ele>
        <time>2019-11-18T21:18:14Z</time>
      </trkpt>
      <trkpt lat="35.137065490" lon="-106.478701920">
        <ele>1900.000</ele>
        <time>2019-11-18T21:18:18Z</time>
      </trkpt>
      <trkpt lat="35.137024960" lon="-106.478731980">
        <ele>1902.000</ele>
        <time>2019-11-18T21:18:22Z</time>
      </trkpt>
      <trkpt lat="35.136985890" lon="-106.478757350">
        <ele>1901.000</ele>
        <time>2019-11-18T21:18:26Z</time>
      </trkpt>
      <trkpt lat="35.136940370" lon="-106.478775900">
        <ele>1900.000</ele>
        <time>2019-11-18T21:18:30Z</time>
      </trkpt>
      <trkpt lat="35.136899770" lon="-106.478779670">
        <ele>1899.000</ele>
        <time>2019-11-18T21:18:33Z</time>
      </trkpt>
      <trkpt lat="35.136865240" lon="-106.478757280">
        <ele>1900.000</ele>
        <time>2019-11-18T21:18:35Z</time>
      </trkpt>
      <trkpt lat="35.136822480" lon="-106.478742920">
        <ele>1900.000</ele>
        <time>2019-11-18T21:18:39Z</time>
      </trkpt>
      <trkpt lat="35.136777980" lon="-106.478740750">
        <ele>1899.000</ele>
        <time>2019-11-18T21:18:43Z</time>
      </trkpt>
      <trkpt lat="35.136729400" lon="-106.478726360">
        <ele>1900.000</ele>
        <time>2019-11-18T21:18:47Z</time>
      </trkpt>
      <trkpt lat="35.136691660" lon="-106.478718690">
        <ele>1901.000</ele>
        <time>2019-11-18T21:18:50Z</time>
      </trkpt>
      <trkpt lat="35.136662640" lon="-106.478747600">
        <ele>1899.000</ele>
        <time>2019-11-18T21:18:54Z</time>
      </trkpt>
      <trkpt lat="35.136658300" lon="-106.478792530">
        <ele>1894.000</ele>
        <time>2019-11-18T21:19:17Z</time>
      </trkpt>
      <trkpt lat="35.136638600" lon="-106.478831330">
        <ele>1895.000</ele>
        <time>2019-11-18T21:19:21Z</time>
      </trkpt>
      <trkpt lat="35.136611530" lon="-106.478873550">
        <ele>1898.000</ele>
        <time>2019-11-18T21:19:25Z</time>
      </trkpt>
      <trkpt lat="35.136596180" lon="-106.478925770">
        <ele>1896.000</ele>
        <time>2019-11-18T21:19:29Z</time>
      </trkpt>
      <trkpt lat="35.136578590" lon="-106.478968290">
        <ele>1896.000</ele>
        <time>2019-11-18T21:19:32Z</time>
      </trkpt>
      <trkpt lat="35.136555380" lon="-106.479013130">
        <ele>1896.000</ele>
        <time>2019-11-18T21:19:35Z</time>
      </trkpt>
      <trkpt lat="35.136531960" lon="-106.479061240">
        <ele>1895.000</ele>
        <time>2019-11-18T21:19:39Z</time>
      </trkpt>
      <trkpt lat="35.136520080" lon="-106.479111170">
        <ele>1894.000</ele>
        <time>2019-11-18T21:19:42Z</time>
      </trkpt>
      <trkpt lat="35.136505500" lon="-106.479161160">
        <ele>1893.000</ele>
        <time>2019-11-18T21:19:45Z</time>
      </trkpt>
      <trkpt lat="35.136500270" lon="-106.479213000">
        <ele>1893.000</ele>
        <time>2019-11-18T21:19:48Z</time>
      </trkpt>
      <trkpt lat="35.136485860" lon="-106.479265530">
        <ele>1891.000</ele>
        <time>2019-11-18T21:19:52Z</time>
      </trkpt>
      <trkpt lat="35.136462150" lon="-106.479313820">
        <ele>1893.000</ele>
        <time>2019-11-18T21:19:56Z</time>
      </trkpt>
      <trkpt lat="35.136449720" lon="-106.479366560">
        <ele>1894.000</ele>
        <time>2019-11-18T21:20:00Z</time>
      </trkpt>
      <trkpt lat="35.136431000" lon="-106.479408420">
        <ele>1894.000</ele>
        <time>2019-11-18T21:20:03Z</time>
      </trkpt>
      <trkpt lat="35.136400060" lon="-106.479446500">
        <ele>1894.000</ele>
        <time>2019-11-18T21:20:07Z</time>
      </trkpt>
      <trkpt lat="35.136387740" lon="-106.479493610">
        <ele>1894.000</ele>
        <time>2019-11-18T21:20:10Z</time>
      </trkpt>
      <trkpt lat="35.136382590" lon="-106.479543610">
        <ele>1893.000</ele>
        <time>2019-11-18T21:20:14Z</time>
      </trkpt>
      <trkpt lat="35.136368420" lon="-106.479593890">
        <ele>1893.000</ele>
        <time>2019-11-18T21:20:18Z</time>
      </trkpt>
      <trkpt lat="35.136352350" lon="-106.479635680">
        <ele>1892.000</ele>
        <time>2019-11-18T21:20:21Z</time>
      </trkpt>
      <trkpt lat="35.136338030" lon="-106.479681430">
        <ele>1891.000</ele>
        <time>2019-11-18T21:20:24Z</time>
      </trkpt>
      <trkpt lat="35.136315330" lon="-106.479723330">
        <ele>1891.000</ele>
        <time>2019-11-18T21:20:27Z</time>
      </trkpt>
      <trkpt lat="35.136308670" lon="-106.479769570">
        <ele>1890.000</ele>
        <time>2019-11-18T21:20:30Z</time>
      </trkpt>
      <trkpt lat="35.136292950" lon="-106.479811470">
        <ele>1889.000</ele>
        <time>2019-11-18T21:20:33Z</time>
      </trkpt>
      <trkpt lat="35.136278190" lon="-106.479854060">
        <ele>1889.000</ele>
        <time>2019-11-18T21:20:36Z</time>
      </trkpt>
      <trkpt lat="35.136267780" lon="-106.479906870">
        <ele>1889.000</ele>
        <time>2019-11-18T21:20:39Z</time>
      </trkpt>
      <trkpt lat="35.136249460" lon="-106.479963510">
        <ele>1889.000</ele>
        <time>2019-11-18T21:20:43Z</time>
      </trkpt>
      <trkpt lat="35.136234100" lon="-106.480007620">
        <ele>1890.000</ele>
        <time>2019-11-18T21:20:46Z</time>
      </trkpt>
      <trkpt lat="35.136214230" lon="-106.480050810">
        <ele>1890.000</ele>
        <time>2019-11-18T21:20:49Z</time>
      </trkpt>
      <trkpt lat="35.136203370" lon="-106.480097580">
        <ele>1890.000</ele>
        <time>2019-11-18T21:20:52Z</time>
      </trkpt>
      <trkpt lat="35.136183390" lon="-106.480151070">
        <ele>1890.000</ele>
        <time>2019-11-18T21:20:56Z</time>
      </trkpt>
      <trkpt lat="35.136171880" lon="-106.480194320">
        <ele>1890.000</ele>
        <time>2019-11-18T21:21:00Z</time>
      </trkpt>
      <trkpt lat="35.136160730" lon="-106.480237140">
        <ele>1890.000</ele>
        <time>2019-11-18T21:23:07Z</time>
      </trkpt>
      <trkpt lat="35.136148760" lon="-106.480286730">
        <ele>1888.000</ele>
        <time>2019-11-18T21:24:27Z</time>
      </trkpt>
      <trkpt lat="35.136125590" lon="-106.480333770">
        <ele>1888.000</ele>
        <time>2019-11-18T21:24:31Z</time>
      </trkpt>
      <trkpt lat="35.136125900" lon="-106.480378950">
        <ele>1889.000</ele>
        <time>2019-11-18T21:24:36Z</time>
      </trkpt>
      <trkpt lat="35.136113260" lon="-106.480421030">
        <ele>1889.000</ele>
        <time>2019-11-18T21:25:11Z</time>
      </trkpt>
      <trkpt lat="35.136080450" lon="-106.480441030">
        <ele>1889.000</ele>
        <time>2019-11-18T21:25:38Z</time>
      </trkpt>
      <trkpt lat="35.136096790" lon="-106.480481330">
        <ele>1888.000</ele>
        <time>2019-11-18T21:26:24Z</time>
      </trkpt>
      <trkpt lat="35.136081560" lon="-106.480533640">
        <ele>1889.000</ele>
        <time>2019-11-18T21:26:29Z</time>
      </trkpt>
      <trkpt lat="35.136087690" lon="-106.480584140">
        <ele>1887.000</ele>
        <time>2019-11-18T21:26:32Z</time>
      </trkpt>
      <trkpt lat="35.136096060" lon="-106.480629030">
        <ele>1887.000</ele>
        <time>2019-11-18T21:26:35Z</time>
      </trkpt>
      <trkpt lat="35.136098690" lon="-106.480680740">
        <ele>1886.000</ele>
        <time>2019-11-18T21:26:39Z</time>
      </trkpt>
      <trkpt lat="35.136104130" lon="-106.480727210">
        <ele>1886.000</ele>
        <time>2019-11-18T21:26:42Z</time>
      </trkpt>
      <trkpt lat="35.136102770" lon="-106.480781580">
        <ele>1887.000</ele>
        <time>2019-11-18T21:26:46Z</time>
      </trkpt>
      <trkpt lat="35.136105000" lon="-106.480837560">
        <ele>1887.000</ele>
        <time>2019-11-18T21:26:50Z</time>
      </trkpt>
      <trkpt lat="35.136107560" lon="-106.480884100">
        <ele>1886.000</ele>
        <time>2019-11-18T21:26:53Z</time>
      </trkpt>
      <trkpt lat="35.136139870" lon="-106.480925610">
        <ele>1883.000</ele>
        <time>2019-11-18T21:26:57Z</time>
      </trkpt>
      <trkpt lat="35.136151590" lon="-106.480971260">
        <ele>1883.000</ele>
        <time>2019-11-18T21:27:01Z</time>
      </trkpt>
      <trkpt lat="35.136155320" lon="-106.481021020">
        <ele>1883.000</ele>
        <time>2019-11-18T21:27:05Z</time>
      </trkpt>
      <trkpt lat="35.136156810" lon="-106.481065480">
        <ele>1884.000</ele>
        <time>2019-11-18T21:27:08Z</time>
      </trkpt>
      <trkpt lat="35.136156140" lon="-106.481113520">
        <ele>1884.000</ele>
        <time>2019-11-18T21:27:11Z</time>
      </trkpt>
      <trkpt lat="35.136163260" lon="-106.481160870">
        <ele>1884.000</ele>
        <time>2019-11-18T21:27:14Z</time>
      </trkpt>
      <trkpt lat="35.136159360" lon="-106.481207960">
        <ele>1882.000</ele>
        <time>2019-11-18T21:27:17Z</time>
      </trkpt>
      <trkpt lat="35.136161240" lon="-106.481252340">
        <ele>1882.000</ele>
        <time>2019-11-18T21:27:20Z</time>
      </trkpt>
      <trkpt lat="35.136172730" lon="-106.481306510">
        <ele>1883.000</ele>
        <time>2019-11-18T21:27:24Z</time>
      </trkpt>
      <trkpt lat="35.136189860" lon="-106.481352390">
        <ele>1884.000</ele>
        <time>2019-11-18T21:27:27Z</time>
      </trkpt>
      <trkpt lat="35.136217070" lon="-106.481383740">
        <ele>1884.000</ele>
        <time>2019-11-18T21:27:30Z</time>
      </trkpt>
      <trkpt lat="35.136230390" lon="-106.481428240">
        <ele>1883.000</ele>
        <time>2019-11-18T21:27:33Z</time>
      </trkpt>
      <trkpt lat="35.136248680" lon="-106.481473030">
        <ele>1884.000</ele>
        <time>2019-11-18T21:27:36Z</time>
      </trkpt>
      <trkpt lat="35.136271430" lon="-106.481521000">
        <ele>1882.000</ele>
        <time>2019-11-18T21:27:40Z</time>
      </trkpt>
      <trkpt lat="35.136288500" lon="-106.481564070">
        <ele>1881.000</ele>
        <time>2019-11-18T21:27:43Z</time>
      </trkpt>
      <trkpt lat="35.136311850" lon="-106.481608880">
        <ele>1879.000</ele>
        <time>2019-11-18T21:27:46Z</time>
      </trkpt>
      <trkpt lat="35.136329910" lon="-106.481650290">
        <ele>1878.000</ele>
        <time>2019-11-18T21:27:49Z</time>
      </trkpt>
      <trkpt lat="35.136340390" lon="-106.481692720">
        <ele>1878.000</ele>
        <time>2019-11-18T21:27:52Z</time>
      </trkpt>
      <trkpt lat="35.136346360" lon="-106.481746600">
        <ele>1877.000</ele>
        <time>2019-11-18T21:27:56Z</time>
      </trkpt>
      <trkpt lat="35.136336940" lon="-106.481795180">
        <ele>1878.000</ele>
        <time>2019-11-18T21:27:59Z</time>
      </trkpt>
      <trkpt lat="35.136323850" lon="-106.481845360">
        <ele>1878.000</ele>
        <time>2019-11-18T21:28:03Z</time>
      </trkpt>
      <trkpt lat="35.136300310" lon="-106.481883880">
        <ele>1879.000</ele>
        <time>2019-11-18T21:28:07Z</time>
      </trkpt>
      <trkpt lat="35.136261310" lon="-106.481914050">
        <ele>1879.000</ele>
        <time>2019-11-18T21:28:11Z</time>
      </trkpt>
      <trkpt lat="35.136227480" lon="-106.481949420">
        <ele>1878.000</ele>
        <time>2019-11-18T21:28:15Z</time>
      </trkpt>
      <trkpt lat="35.136189020" lon="-106.481958150">
        <ele>1878.000</ele>
        <time>2019-11-18T21:28:18Z</time>
      </trkpt>
      <trkpt lat="35.136155230" lon="-106.481929480">
        <ele>1877.000</ele>
        <time>2019-11-18T21:28:22Z</time>
      </trkpt>
      <trkpt lat="35.136143300" lon="-106.481887060">
        <ele>1877.000</ele>
        <time>2019-11-18T21:28:26Z</time>
      </trkpt>
      <trkpt lat="35.136155830" lon="-106.481851750">
        <ele>1878.000</ele>
        <time>2019-11-18T21:29:08Z</time>
      </trkpt>
    </trkseg>
  </trk>
</gpx>
